Wetterdaten: Donnerstag, 15.11.2018
Datum Zeit Temp. A. Pool Temp. Temp. 5cm Feuchte A. Luftdruck Regen Wind Richtung Richtung Sonnenschein ET UV Solar Taupunkt Windchill Windben Empfang
15.11.2018 00:00 4,1 C 8,9 C 4,4 C 98 % 1028,9 hPa 0,0 l/m 9,7 km/h (2 Bft) O-NO 65 0 min 0,000 mm 0,0 UV-I 0 W/m 3,8 C 1,3 C 14,5 km/h (3 Bft) 97,87 %
15.11.2018 00:02 4,1 C 8,9 C 4,4 C 98 % 1029,0 hPa 0,0 l/m 10,9 km/h (2 Bft) O 95 0 min 0,000 mm 0,0 UV-I 0 W/m 3,8 C 0,4 C 14,5 km/h (3 Bft) 97,56 %
15.11.2018 00:04 4,1 C 8,9 C 4,4 C 98 % 1028,9 hPa 0,0 l/m 8,9 km/h (2 Bft) O-NO 74 0 min 0,000 mm 0,0 UV-I 0 W/m 3,8 C 1,9 C 14,5 km/h (3 Bft) 97,87 %
15.11.2018 00:06 4,2 C 8,9 C 4,4 C 98 % 1028,9 hPa 0,0 l/m 9,8 km/h (2 Bft) O 88 0 min 0,000 mm 0,0 UV-I 0 W/m 3,9 C 1,3 C 14,5 km/h (3 Bft) 97,87 %
15.11.2018 00:08 4,2 C 8,9 C 4,4 C 98 % 1028,9 hPa 0,0 l/m 8,1 km/h (2 Bft) O 83 0 min 0,000 mm 0,0 UV-I 0 W/m 3,9 C 2,7 C 14,5 km/h (3 Bft) 95,74 %
15.11.2018 00:10 4,2 C 8,9 C 4,4 C 98 % 1028,8 hPa 0,0 l/m 7,2 km/h (2 Bft) NO 51 0 min 0,000 mm 0,0 UV-I 0 W/m 3,9 C 3,5 C 12,9 km/h (3 Bft) 93,62 %
15.11.2018 00:12 4,2 C 8,9 C 4,4 C 98 % 1028,8 hPa 0,0 l/m 5,6 km/h (1 Bft) O-NO 59 0 min 0,000 mm 0,0 UV-I 0 W/m 3,9 C 4,2 C 9,7 km/h (2 Bft) 96,00 %
15.11.2018 00:14 4,3 C 8,9 C 4,4 C 98 % 1028,8 hPa 0,0 l/m 5,7 km/h (1 Bft) O 88 0 min 0,000 mm 0,0 UV-I 0 W/m 4,0 C 4,3 C 8,0 km/h (2 Bft) 94,87 %
15.11.2018 00:16 4,3 C 8,9 C 4,4 C 98 % 1028,8 hPa 0,0 l/m 5,8 km/h (2 Bft) O-NO 67 0 min 0,000 mm 0,0 UV-I 0 W/m 4,0 C 4,3 C 9,7 km/h (2 Bft) 96,00 %
15.11.2018 00:18 4,3 C 8,9 C 4,4 C 98 % 1028,8 hPa 0,0 l/m 7,1 km/h (2 Bft) O 82 0 min 0,000 mm 0,0 UV-I 0 W/m 4,0 C 3,7 C 11,3 km/h (2 Bft) 93,62 %
15.11.2018 00:20 4,3 C 8,9 C 4,4 C 98 % 1028,8 hPa 0,0 l/m 4,8 km/h (1 Bft) O-NO 71 0 min 0,000 mm 0,0 UV-I 0 W/m 4,0 C 4,3 C 8,0 km/h (2 Bft) 91,43 %
15.11.2018 00:22 4,3 C 8,9 C 5,0 C 98 % 1028,8 hPa 0,0 l/m 5,6 km/h (1 Bft) O-NO 61 0 min 0,000 mm 0,0 UV-I 0 W/m 4,0 C 4,3 C 9,7 km/h (2 Bft) 95,38 %
15.11.2018 00:24 4,4 C 8,9 C 5,0 C 98 % 1028,8 hPa 0,0 l/m 4,5 km/h (1 Bft) O 96 0 min 0,000 mm 0,0 UV-I 0 W/m 4,1 C 4,4 C 6,4 km/h (2 Bft) 100,00 %
15.11.2018 00:26 4,4 C 8,9 C 5,0 C 98 % 1028,7 hPa 0,0 l/m 6,9 km/h (2 Bft) O-NO 74 0 min 0,000 mm 0,0 UV-I 0 W/m 4,1 C 4,0 C 9,7 km/h (2 Bft) 92,00 %
15.11.2018 00:28 4,4 C 8,9 C 5,0 C 98 % 1028,7 hPa 0,0 l/m 4,3 km/h (1 Bft) O 83 0 min 0,000 mm 0,0 UV-I 0 W/m 4,1 C 4,4 C 9,7 km/h (2 Bft) 97,87 %
15.11.2018 00:30 4,4 C 8,9 C 5,0 C 98 % 1028,6 hPa 0,0 l/m 5,6 km/h (1 Bft) O 82 0 min 0,000 mm 0,0 UV-I 0 W/m 4,1 C 4,4 C 9,7 km/h (2 Bft) 95,74 %
15.11.2018 00:32 4,4 C 8,9 C 5,0 C 98 % 1028,6 hPa 0,0 l/m 6,9 km/h (2 Bft) O 88 0 min 0,000 mm 0,0 UV-I 0 W/m 4,1 C 4,0 C 11,3 km/h (2 Bft) 98,00 %
15.11.2018 00:34 4,5 C 8,9 C 5,0 C 98 % 1028,6 hPa 0,0 l/m 4,3 km/h (1 Bft) O-NO 72 0 min 0,000 mm 0,0 UV-I 0 W/m 4,2 C 4,5 C 8,0 km/h (2 Bft) 97,87 %
15.11.2018 00:36 4,5 C 8,9 C 5,0 C 98 % 1028,6 hPa 0,0 l/m 5,4 km/h (1 Bft) O 92 0 min 0,000 mm 0,0 UV-I 0 W/m 4,2 C 4,5 C 12,9 km/h (3 Bft) 100,00 %
15.11.2018 00:38 4,6 C 8,9 C 5,0 C 98 % 1028,6 hPa 0,0 l/m 5,8 km/h (2 Bft) O 97 0 min 0,000 mm 0,0 UV-I 0 W/m 4,3 C 4,6 C 9,7 km/h (2 Bft) 100,00 %
15.11.2018 00:40 4,6 C 8,9 C 5,0 C 98 % 1028,6 hPa 0,0 l/m 6,8 km/h (2 Bft) O 101 0 min 0,000 mm 0,0 UV-I 0 W/m 4,3 C 4,3 C 9,7 km/h (2 Bft) 100,00 %
15.11.2018 00:42 4,6 C 8,9 C 5,0 C 98 % 1028,6 hPa 0,0 l/m 7,3 km/h (2 Bft) O 80 0 min 0,000 mm 0,0 UV-I 0 W/m 4,3 C 3,8 C 11,3 km/h (2 Bft) 100,00 %
15.11.2018 00:44 4,6 C 8,9 C 5,0 C 98 % 1028,6 hPa 0,0 l/m 6,1 km/h (2 Bft) O-SO 109 0 min 0,000 mm 0,0 UV-I 0 W/m 4,3 C 4,6 C 11,3 km/h (2 Bft) 100,00 %
15.11.2018 00:46 4,6 C 8,9 C 5,0 C 98 % 1028,6 hPa 0,0 l/m 3,2 km/h (1 Bft) O 90 0 min 0,000 mm 0,0 UV-I 0 W/m 4,3 C 4,6 C 6,4 km/h (2 Bft) 100,00 %
15.11.2018 00:48 4,7 C 8,9 C 5,0 C 98 % 1028,5 hPa 0,0 l/m 4,6 km/h (1 Bft) O-SO 104 0 min 0,000 mm 0,0 UV-I 0 W/m 4,4 C 4,7 C 8,0 km/h (2 Bft) 100,00 %
15.11.2018 00:50 4,7 C 8,9 C 5,0 C 98 % 1028,5 hPa 0,0 l/m 4,8 km/h (1 Bft) O 101 0 min 0,000 mm 0,0 UV-I 0 W/m 4,4 C 4,7 C 6,4 km/h (2 Bft) 97,87 %
15.11.2018 00:52 4,7 C 8,9 C 5,0 C 98 % 1028,5 hPa 0,0 l/m 6,4 km/h (2 Bft) O 90 0 min 0,000 mm 0,0 UV-I 0 W/m 4,4 C 4,7 C 11,3 km/h (2 Bft) 100,00 %
15.11.2018 00:54 4,7 C 8,9 C 5,0 C 98 % 1028,5 hPa 0,0 l/m 7,2 km/h (2 Bft) O 94 0 min 0,000 mm 0,0 UV-I 0 W/m 4,4 C 4,0 C 11,3 km/h (2 Bft) 98,00 %
15.11.2018 00:56 4,7 C 8,9 C 5,0 C 98 % 1028,5 hPa 0,0 l/m 3,7 km/h (1 Bft) O 101 0 min 0,000 mm 0,0 UV-I 0 W/m 4,4 C 4,7 C 6,4 km/h (2 Bft) 100,00 %
15.11.2018 00:58 4,7 C 8,9 C 5,0 C 98 % 1028,6 hPa 0,0 l/m 5,2 km/h (1 Bft) O 86 0 min 0,000 mm 0,0 UV-I 0 W/m 4,4 C 4,7 C 11,3 km/h (2 Bft) 97,87 %
15.11.2018 01:00 4,7 C 8,9 C 5,0 C 98 % 1028,6 hPa 0,0 l/m 5,0 km/h (1 Bft) O 101 0 min 0,000 mm 0,0 UV-I 0 W/m 4,4 C 4,7 C 9,7 km/h (2 Bft) 100,00 %
15.11.2018 01:02 4,7 C 8,9 C 5,0 C 98 % 1028,6 hPa 0,0 l/m 7,6 km/h (2 Bft) O 94 0 min 0,000 mm 0,0 UV-I 0 W/m 4,4 C 3,6 C 9,7 km/h (2 Bft) 97,87 %
15.11.2018 01:04 4,7 C 8,9 C 5,0 C 98 % 1028,5 hPa 0,0 l/m 8,6 km/h (2 Bft) SO 138 0 min 0,000 mm 0,0 UV-I 0 W/m 4,4 C 2,8 C 12,9 km/h (3 Bft) 100,00 %
15.11.2018 01:06 4,7 C 8,9 C 5,0 C 98 % 1028,5 hPa 0,0 l/m 6,5 km/h (2 Bft) O-SO 109 0 min 0,000 mm 0,0 UV-I 0 W/m 4,4 C 4,6 C 11,3 km/h (2 Bft) 100,00 %
15.11.2018 01:08 4,7 C 8,9 C 5,0 C 98 % 1028,5 hPa 0,0 l/m 8,1 km/h (2 Bft) O 96 0 min 0,000 mm 0,0 UV-I 0 W/m 4,4 C 3,2 C 11,3 km/h (2 Bft) 100,00 %
15.11.2018 01:10 4,8 C 8,9 C 5,0 C 98 % 1028,4 hPa 0,0 l/m 11,3 km/h (2 Bft) O 95 0 min 0,000 mm 0,0 UV-I 0 W/m 4,5 C 1,0 C 14,5 km/h (3 Bft) 100,00 %
15.11.2018 01:12 4,8 C 8,9 C 5,0 C 98 % 1028,4 hPa 0,0 l/m 9,2 km/h (2 Bft) O-NO 71 0 min 0,000 mm 0,0 UV-I 0 W/m 4,5 C 2,4 C 16,1 km/h (3 Bft) 100,00 %
15.11.2018 01:14 4,8 C 8,9 C 5,0 C 98 % 1028,5 hPa 0,0 l/m 7,9 km/h (2 Bft) O 82 0 min 0,000 mm 0,0 UV-I 0 W/m 4,5 C 3,5 C 11,3 km/h (2 Bft) 100,00 %
15.11.2018 01:16 4,8 C 8,9 C 5,0 C 98 % 1028,5 hPa 0,0 l/m 6,5 km/h (2 Bft) O 90 0 min 0,000 mm 0,0 UV-I 0 W/m 4,5 C 4,7 C 9,7 km/h (2 Bft) 98,00 %
15.11.2018 01:18 4,8 C 8,9 C 5,0 C 98 % 1028,6 hPa 0,0 l/m 6,0 km/h (2 Bft) O-NO 67 0 min 0,000 mm 0,0 UV-I 0 W/m 4,5 C 4,8 C 9,7 km/h (2 Bft) 97,87 %
15.11.2018 01:20 4,8 C 8,9 C 5,0 C 98 % 1028,7 hPa 0,0 l/m 7,7 km/h (2 Bft) O 87 0 min 0,000 mm 0,0 UV-I 0 W/m 4,5 C 3,6 C 12,9 km/h (3 Bft) 97,87 %
15.11.2018 01:22 4,8 C 8,9 C 5,0 C 98 % 1028,6 hPa 0,0 l/m 6,5 km/h (2 Bft) NO 53 0 min 0,000 mm 0,0 UV-I 0 W/m 4,5 C 4,7 C 11,3 km/h (2 Bft) 96,00 %
15.11.2018 01:24 4,9 C 8,9 C 5,0 C 98 % 1028,6 hPa 0,0 l/m 8,3 km/h (2 Bft) NO 50 0 min 0,000 mm 0,0 UV-I 0 W/m 4,6 C 3,3 C 12,9 km/h (3 Bft) 97,87 %
15.11.2018 01:26 4,9 C 8,9 C 5,0 C 98 % 1028,6 hPa 0,0 l/m 7,9 km/h (2 Bft) O-NO 60 0 min 0,000 mm 0,0 UV-I 0 W/m 4,6 C 3,6 C 11,3 km/h (2 Bft) 95,74 %
15.11.2018 01:28 4,9 C 8,9 C 5,0 C 98 % 1028,6 hPa 0,0 l/m 7,9 km/h (2 Bft) O 79 0 min 0,000 mm 0,0 UV-I 0 W/m 4,6 C 3,6 C 9,7 km/h (2 Bft) 95,74 %
15.11.2018 01:30 4,8 C 8,9 C 5,0 C 98 % 1028,5 hPa 0,0 l/m 10,0 km/h (2 Bft) O-NO 70 0 min 0,000 mm 0,0 UV-I 0 W/m 4,5 C 1,9 C 17,7 km/h (3 Bft) 94,44 %
15.11.2018 01:32 4,8 C 8,9 C 5,0 C 98 % 1028,5 hPa 0,0 l/m 11,3 km/h (2 Bft) O-NO 78 0 min 0,000 mm 0,0 UV-I 0 W/m 4,5 C 1,0 C 14,5 km/h (3 Bft) 93,62 %
15.11.2018 01:34 4,8 C 8,9 C 5,0 C 98 % 1028,6 hPa 0,0 l/m 8,8 km/h (2 Bft) NO 41 0 min 0,000 mm 0,0 UV-I 0 W/m 4,5 C 2,7 C 14,5 km/h (3 Bft) 95,74 %
15.11.2018 01:36 4,8 C 8,9 C 5,0 C 98 % 1028,6 hPa 0,0 l/m 10,1 km/h (2 Bft) O-NO 71 0 min 0,000 mm 0,0 UV-I 0 W/m 4,5 C 1,8 C 14,5 km/h (3 Bft) 96,00 %
15.11.2018 01:38 4,7 C 8,9 C 5,0 C 98 % 1028,6 hPa 0,0 l/m 10,1 km/h (2 Bft) O-NO 74 0 min 0,000 mm 0,0 UV-I 0 W/m 4,4 C 1,7 C 12,9 km/h (3 Bft) 93,62 %
15.11.2018 01:40 4,7 C 8,9 C 5,0 C 98 % 1028,6 hPa 0,0 l/m 10,4 km/h (2 Bft) O-NO 76 0 min 0,000 mm 0,0 UV-I 0 W/m 4,4 C 1,5 C 14,5 km/h (3 Bft) 93,62 %
15.11.2018 01:42 4,7 C 8,9 C 5,0 C 98 % 1028,6 hPa 0,0 l/m 11,2 km/h (2 Bft) O-NO 77 0 min 0,000 mm 0,0 UV-I 0 W/m 4,4 C 0,9 C 14,5 km/h (3 Bft) 95,74 %
15.11.2018 01:44 4,6 C 8,9 C 5,0 C 98 % 1028,5 hPa 0,0 l/m 11,6 km/h (2 Bft) O-SO 106 0 min 0,000 mm 0,0 UV-I 0 W/m 4,3 C 0,5 C 14,5 km/h (3 Bft) 94,00 %
15.11.2018 01:46 4,6 C 8,9 C 5,0 C 98 % 1028,4 hPa 0,0 l/m 11,9 km/h (2 Bft) O 91 0 min 0,000 mm 0,0 UV-I 0 W/m 4,3 C 0,4 C 17,7 km/h (3 Bft) 93,62 %
15.11.2018 01:48 4,6 C 8,9 C 5,0 C 98 % 1028,4 hPa 0,0 l/m 13,1 km/h (3 Bft) O 100 0 min 0,000 mm 0,0 UV-I 0 W/m 4,3 C -0,4 C 17,7 km/h (3 Bft) 96,00 %
15.11.2018 01:50 4,6 C 8,9 C 5,0 C 98 % 1028,4 hPa 0,0 l/m 10,7 km/h (2 Bft) O-SO 118 0 min 0,000 mm 0,0 UV-I 0 W/m 4,3 C 1,1 C 14,5 km/h (3 Bft) 94,74 %
15.11.2018 01:52 4,7 C 8,9 C 5,0 C 98 % 1028,4 hPa 0,0 l/m 11,1 km/h (2 Bft) O-SO 113 0 min 0,000 mm 0,0 UV-I 0 W/m 4,4 C 1,0 C 16,1 km/h (3 Bft) 100,00 %
15.11.2018 01:54 4,6 C 8,9 C 5,0 C 98 % 1028,4 hPa 0,0 l/m 9,5 km/h (2 Bft) O 96 0 min 0,000 mm 0,0 UV-I 0 W/m 4,3 C 2,0 C 14,5 km/h (3 Bft) 97,87 %
15.11.2018 01:56 4,7 C 8,9 C 5,0 C 98 % 1028,4 hPa 0,0 l/m 10,0 km/h (2 Bft) O 86 0 min 0,000 mm 0,0 UV-I 0 W/m 4,4 C 1,7 C 14,5 km/h (3 Bft) 97,87 %
15.11.2018 01:58 4,7 C 8,9 C 5,0 C 98 % 1028,4 hPa 0,0 l/m 9,4 km/h (2 Bft) O-NO 74 0 min 0,000 mm 0,0 UV-I 0 W/m 4,4 C 2,2 C 12,9 km/h (3 Bft) 100,00 %
15.11.2018 02:00 4,7 C 8,9 C 5,0 C 98 % 1028,4 hPa 0,0 l/m 5,5 km/h (1 Bft) O 94 0 min 0,000 mm 0,0 UV-I 0 W/m 4,4 C 4,7 C 9,7 km/h (2 Bft) 97,87 %
15.11.2018 02:02 4,7 C 8,9 C 5,0 C 98 % 1028,4 hPa 0,0 l/m 5,9 km/h (2 Bft) SO 138 0 min 0,000 mm 0,0 UV-I 0 W/m 4,4 C 4,7 C 11,3 km/h (2 Bft) 100,00 %
15.11.2018 02:04 4,7 C 8,9 C 5,0 C 98 % 1028,4 hPa 0,0 l/m 4,8 km/h (1 Bft) SO 142 0 min 0,000 mm 0,0 UV-I 0 W/m 4,4 C 4,7 C 9,7 km/h (2 Bft) 100,00 %
15.11.2018 02:06 4,4 C 8,9 C 5,0 C 98 % 1028,4 hPa 0,0 l/m 6,4 km/h (2 Bft) S-SO 148 0 min 0,000 mm 0,0 UV-I 0 W/m 4,1 C 4,4 C 9,7 km/h (2 Bft) 100,00 %
15.11.2018 02:08 4,3 C 8,9 C 5,0 C 98 % 1028,4 hPa 0,0 l/m 3,7 km/h (1 Bft) SO 137 0 min 0,000 mm 0,0 UV-I 0 W/m 4,0 C 4,3 C 8,0 km/h (2 Bft) 100,00 %
15.11.2018 02:10 4,3 C 8,9 C 5,0 C 98 % 1028,4 hPa 0,0 l/m 5,6 km/h (1 Bft) SO 142 0 min 0,000 mm 0,0 UV-I 0 W/m 4,0 C 4,3 C 8,0 km/h (2 Bft) 100,00 %
15.11.2018 02:12 4,3 C 8,9 C 5,0 C 98 % 1028,4 hPa 0,0 l/m 4,7 km/h (1 Bft) S-SO 159 0 min 0,000 mm 0,0 UV-I 0 W/m 4,0 C 4,3 C 8,0 km/h (2 Bft) 100,00 %
15.11.2018 02:14 4,3 C 8,9 C 5,0 C 98 % 1028,5 hPa 0,0 l/m 3,2 km/h (1 Bft) S-SO 155 0 min 0,000 mm 0,0 UV-I 0 W/m 4,0 C 4,3 C 6,4 km/h (2 Bft) 97,87 %
15.11.2018 02:16 4,3 C 8,9 C 4,4 C 98 % 1028,5 hPa 0,0 l/m 3,3 km/h (1 Bft) SO 136 0 min 0,000 mm 0,0 UV-I 0 W/m 4,0 C 4,3 C 4,8 km/h (1 Bft) 100,00 %
15.11.2018 02:18 4,3 C 8,9 C 5,0 C 98 % 1028,5 hPa 0,0 l/m 3,2 km/h (1 Bft) SO 144 0 min 0,000 mm 0,0 UV-I 0 W/m 4,0 C 4,3 C 6,4 km/h (2 Bft) 97,87 %
15.11.2018 02:20 4,3 C 8,9 C 5,0 C 98 % 1028,4 hPa 0,0 l/m 5,0 km/h (1 Bft) O 92 0 min 0,000 mm 0,0 UV-I 0 W/m 4,0 C 4,3 C 11,3 km/h (2 Bft) 100,00 %
15.11.2018 02:22 4,3 C 8,9 C 5,0 C 98 % 1028,5 hPa 0,0 l/m 6,9 km/h (2 Bft) SO 126 0 min 0,000 mm 0,0 UV-I 0 W/m 4,0 C 3,9 C 11,3 km/h (2 Bft) 97,87 %
15.11.2018 02:24 4,4 C 8,9 C 5,0 C 98 % 1028,5 hPa 0,0 l/m 3,5 km/h (1 Bft) O 98 0 min 0,000 mm 0,0 UV-I 0 W/m 4,1 C 4,4 C 6,4 km/h (2 Bft) 97,87 %
15.11.2018 02:26 4,3 C 8,9 C 5,0 C 98 % 1028,5 hPa 0,0 l/m 3,7 km/h (1 Bft) O 97 0 min 0,000 mm 0,0 UV-I 0 W/m 4,0 C 4,3 C 6,4 km/h (2 Bft) 100,00 %
15.11.2018 02:28 4,3 C 8,9 C 5,0 C 98 % 1028,5 hPa 0,0 l/m 4,0 km/h (1 Bft) O-SO 112 0 min 0,000 mm 0,0 UV-I 0 W/m 4,0 C 4,3 C 6,4 km/h (2 Bft) 100,00 %
15.11.2018 02:30 4,3 C 8,9 C 5,0 C 98 % 1028,4 hPa 0,0 l/m 2,9 km/h (1 Bft) SO 132 0 min 0,000 mm 0,0 UV-I 0 W/m 4,0 C 4,3 C 4,8 km/h (1 Bft) 98,00 %
15.11.2018 02:32 4,3 C 8,9 C 5,0 C 98 % 1028,4 hPa 0,0 l/m 4,1 km/h (1 Bft) O-SO 117 0 min 0,000 mm 0,0 UV-I 0 W/m 4,0 C 4,3 C 6,4 km/h (2 Bft) 100,00 %
15.11.2018 02:34 4,3 C 8,9 C 5,0 C 98 % 1028,4 hPa 0,0 l/m 3,4 km/h (1 Bft) SO 138 0 min 0,000 mm 0,0 UV-I 0 W/m 4,0 C 4,3 C 4,8 km/h (1 Bft) 97,87 %
15.11.2018 02:36 4,3 C 8,9 C 5,0 C 98 % 1028,4 hPa 0,0 l/m 4,1 km/h (1 Bft) O-NO 69 0 min 0,000 mm 0,0 UV-I 0 W/m 4,0 C 4,3 C 6,4 km/h (2 Bft) 97,87 %
15.11.2018 02:38 4,3 C 8,9 C 5,0 C 98 % 1028,3 hPa 0,0 l/m 6,0 km/h (2 Bft) O-SO 110 0 min 0,000 mm 0,0 UV-I 0 W/m 4,0 C 4,3 C 11,3 km/h (2 Bft) 97,87 %
15.11.2018 02:40 4,3 C 8,9 C 5,0 C 98 % 1028,3 hPa 0,0 l/m 7,2 km/h (2 Bft) O-SO 105 0 min 0,000 mm 0,0 UV-I 0 W/m 4,0 C 3,6 C 11,3 km/h (2 Bft) 100,00 %
15.11.2018 02:42 4,3 C 8,9 C 5,0 C 98 % 1028,2 hPa 0,0 l/m 6,3 km/h (2 Bft) O-SO 106 0 min 0,000 mm 0,0 UV-I 0 W/m 4,0 C 4,3 C 11,3 km/h (2 Bft) 97,87 %
15.11.2018 02:44 4,3 C 8,9 C 5,0 C 98 % 1028,3 hPa 0,0 l/m 8,0 km/h (2 Bft) O-SO 107 0 min 0,000 mm 0,0 UV-I 0 W/m 4,0 C 2,9 C 12,9 km/h (3 Bft) 100,00 %
15.11.2018 02:46 4,3 C 8,9 C 5,0 C 98 % 1028,2 hPa 0,0 l/m 6,0 km/h (2 Bft) O 101 0 min 0,000 mm 0,0 UV-I 0 W/m 4,0 C 4,3 C 9,7 km/h (2 Bft) 97,87 %
15.11.2018 02:48 4,3 C 8,9 C 5,0 C 98 % 1028,2 hPa 0,0 l/m 5,3 km/h (1 Bft) SO 127 0 min 0,000 mm 0,0 UV-I 0 W/m 4,0 C 4,3 C 8,0 km/h (2 Bft) 95,74 %
15.11.2018 02:50 4,3 C 8,9 C 5,0 C 98 % 1028,2 hPa 0,0 l/m 6,8 km/h (2 Bft) O-NO 78 0 min 0,000 mm 0,0 UV-I 0 W/m 4,0 C 3,9 C 11,3 km/h (2 Bft) 95,74 %
15.11.2018 02:52 4,3 C 8,9 C 5,0 C 98 % 1028,2 hPa 0,0 l/m 6,2 km/h (2 Bft) O 89 0 min 0,000 mm 0,0 UV-I 0 W/m 4,0 C 4,3 C 12,9 km/h (3 Bft) 97,92 %
15.11.2018 02:54 4,3 C 8,9 C 5,0 C 98 % 1028,1 hPa 0,0 l/m 6,2 km/h (2 Bft) O-SO 107 0 min 0,000 mm 0,0 UV-I 0 W/m 4,0 C 4,3 C 11,3 km/h (2 Bft) 95,74 %
15.11.2018 02:56 4,3 C 8,9 C 5,0 C 98 % 1028,1 hPa 0,0 l/m 7,8 km/h (2 Bft) O-SO 113 0 min 0,000 mm 0,0 UV-I 0 W/m 4,0 C 3,0 C 12,9 km/h (3 Bft) 95,74 %
15.11.2018 02:58 4,3 C 8,9 C 4,4 C 98 % 1028,2 hPa 0,0 l/m 8,5 km/h (2 Bft) O 101 0 min 0,000 mm 0,0 UV-I 0 W/m 4,0 C 2,5 C 14,5 km/h (3 Bft) 97,87 %
15.11.2018 03:00 4,3 C 8,9 C 4,4 C 98 % 1028,2 hPa 0,0 l/m 8,5 km/h (2 Bft) O-NO 74 0 min 0,000 mm 0,0 UV-I 0 W/m 4,0 C 2,5 C 14,5 km/h (3 Bft) 97,87 %
15.11.2018 03:02 4,3 C 8,9 C 4,4 C 98 % 1028,2 hPa 0,0 l/m 9,5 km/h (2 Bft) O 96 0 min 0,000 mm 0,0 UV-I 0 W/m 4,0 C 1,7 C 14,5 km/h (3 Bft) 97,87 %
15.11.2018 03:04 4,3 C 8,9 C 4,4 C 98 % 1028,1 hPa 0,0 l/m 9,0 km/h (2 Bft) O 96 0 min 0,000 mm 0,0 UV-I 0 W/m 4,0 C 2,1 C 14,5 km/h (3 Bft) 97,14 %
15.11.2018 03:06 4,2 C 8,9 C 4,4 C 98 % 1028,1 hPa 0,0 l/m 6,9 km/h (2 Bft) O-NO 59 0 min 0,000 mm 0,0 UV-I 0 W/m 3,9 C 3,8 C 11,3 km/h (2 Bft) 96,00 %
15.11.2018 03:08 4,2 C 8,9 C 4,4 C 98 % 1028,1 hPa 0,0 l/m 8,6 km/h (2 Bft) O-SO 117 0 min 0,000 mm 0,0 UV-I 0 W/m 3,9 C 2,3 C 12,9 km/h (3 Bft) 93,62 %
15.11.2018 03:10 4,2 C 8,9 C 4,4 C 98 % 1028,1 hPa 0,0 l/m 9,1 km/h (2 Bft) O 90 0 min 0,000 mm 0,0 UV-I 0 W/m 3,9 C 1,9 C 14,5 km/h (3 Bft) 95,74 %
15.11.2018 03:12 4,2 C 8,9 C 4,4 C 98 % 1028,2 hPa 0,0 l/m 10,4 km/h (2 Bft) O 100 0 min 0,000 mm 0,0 UV-I 0 W/m 3,9 C 0,9 C 14,5 km/h (3 Bft) 100,00 %
15.11.2018 03:14 4,1 C 8,9 C 4,4 C 98 % 1028,2 hPa 0,0 l/m 9,9 km/h (2 Bft) O 80 0 min 0,000 mm 0,0 UV-I 0 W/m 3,8 C 1,2 C 16,1 km/h (3 Bft) 100,00 %
15.11.2018 03:16 4,1 C 8,9 C 3,9 C 98 % 1028,2 hPa 0,0 l/m 10,1 km/h (2 Bft) O 83 0 min 0,000 mm 0,0 UV-I 0 W/m 3,8 C 1,0 C 14,5 km/h (3 Bft) 96,43 %
15.11.2018 03:18 4,1 C 8,9 C 3,9 C 98 % 1028,2 hPa 0,0 l/m 9,7 km/h (2 Bft) O-NO 74 0 min 0,000 mm 0,0 UV-I 0 W/m 3,8 C 1,3 C 16,1 km/h (3 Bft) 94,74 %
15.11.2018 03:20 4,0 C 8,9 C 3,9 C 98 % 1028,2 hPa 0,0 l/m 9,8 km/h (2 Bft) O 92 0 min 0,000 mm 0,0 UV-I 0 W/m 3,7 C 1,1 C 16,1 km/h (3 Bft) 91,49 %
15.11.2018 03:22 4,0 C 8,9 C 3,9 C 98 % 1028,2 hPa 0,0 l/m 10,0 km/h (2 Bft) O-NO 69 0 min 0,000 mm 0,0 UV-I 0 W/m 3,7 C 1,0 C 14,5 km/h (3 Bft) 95,74 %
15.11.2018 03:24 3,9 C 8,9 C 3,9 C 98 % 1028,2 hPa 0,0 l/m 8,7 km/h (2 Bft) O-SO 102 0 min 0,000 mm 0,0 UV-I 0 W/m 3,6 C 1,9 C 16,1 km/h (3 Bft) 95,74 %
15.11.2018 03:26 4,0 C 8,9 C 3,9 C 98 % 1028,1 hPa 0,0 l/m 9,8 km/h (2 Bft) O 82 0 min 0,000 mm 0,0 UV-I 0 W/m 3,7 C 1,1 C 14,5 km/h (3 Bft) 93,75 %
15.11.2018 03:28 4,0 C 8,9 C 3,9 C 98 % 1028,1 hPa 0,0 l/m 5,7 km/h (1 Bft) O-SO 105 0 min 0,000 mm 0,0 UV-I 0 W/m 3,7 C 4,0 C 9,7 km/h (2 Bft) 95,74 %
15.11.2018 03:30 4,0 C 8,9 C 3,9 C 98 % 1028,2 hPa 0,0 l/m 6,1 km/h (2 Bft) O 82 0 min 0,000 mm 0,0 UV-I 0 W/m 3,7 C 4,0 C 8,0 km/h (2 Bft) 93,62 %
15.11.2018 03:32 4,0 C 8,9 C 3,9 C 98 % 1028,2 hPa 0,0 l/m 7,4 km/h (2 Bft) O-NO 64 0 min 0,000 mm 0,0 UV-I 0 W/m 3,7 C 3,1 C 12,9 km/h (3 Bft) 95,74 %
15.11.2018 03:34 4,0 C 8,9 C 4,4 C 98 % 1028,2 hPa 0,0 l/m 7,5 km/h (2 Bft) O 80 0 min 0,000 mm 0,0 UV-I 0 W/m 3,7 C 3,0 C 11,3 km/h (2 Bft) 95,74 %
15.11.2018 03:36 3,9 C 8,9 C 4,4 C 98 % 1028,2 hPa 0,0 l/m 7,9 km/h (2 Bft) O 84 0 min 0,000 mm 0,0 UV-I 0 W/m 3,6 C 2,5 C 12,9 km/h (3 Bft) 93,62 %
15.11.2018 03:38 3,9 C 8,9 C 4,4 C 98 % 1028,2 hPa 0,0 l/m 8,6 km/h (2 Bft) O-NO 65 0 min 0,000 mm 0,0 UV-I 0 W/m 3,6 C 1,9 C 14,5 km/h (3 Bft) 94,00 %
15.11.2018 03:40 3,9 C 8,9 C 3,9 C 98 % 1028,1 hPa 0,0 l/m 10,6 km/h (2 Bft) O 90 0 min 0,000 mm 0,0 UV-I 0 W/m 3,6 C 0,4 C 16,1 km/h (3 Bft) 94,00 %
15.11.2018 03:42 3,8 C 8,9 C 3,9 C 98 % 1028,1 hPa 0,0 l/m 12,4 km/h (3 Bft) O 82 0 min 0,000 mm 0,0 UV-I 0 W/m 3,5 C -0,9 C 17,7 km/h (3 Bft) 94,29 %
15.11.2018 03:44 3,8 C 8,9 C 3,9 C 98 % 1028,1 hPa 0,0 l/m 9,6 km/h (2 Bft) NO 50 0 min 0,000 mm 0,0 UV-I 0 W/m 3,5 C 1,0 C 14,5 km/h (3 Bft) 91,84 %
15.11.2018 03:46 3,8 C 8,9 C 3,9 C 98 % 1028,1 hPa 0,0 l/m 12,1 km/h (2 Bft) O-NO 71 0 min 0,000 mm 0,0 UV-I 0 W/m 3,5 C -0,7 C 20,9 km/h (4 Bft) 95,74 %
15.11.2018 03:48 3,7 C 8,9 C 3,9 C 98 % 1028,0 hPa 0,0 l/m 13,0 km/h (3 Bft) O 86 0 min 0,000 mm 0,0 UV-I 0 W/m 3,4 C -1,4 C 17,7 km/h (3 Bft) 91,49 %
15.11.2018 03:50 3,7 C 8,9 C 3,9 C 98 % 1028,0 hPa 0,0 l/m 15,0 km/h (3 Bft) O-NO 69 0 min 0,000 mm 0,0 UV-I 0 W/m 3,4 C -2,5 C 20,9 km/h (4 Bft) 93,62 %
15.11.2018 03:52 3,7 C 8,9 C 3,9 C 98 % 1028,0 hPa 0,0 l/m 12,9 km/h (3 Bft) O-NO 67 0 min 0,000 mm 0,0 UV-I 0 W/m 3,4 C -1,3 C 19,3 km/h (3 Bft) 97,96 %
15.11.2018 03:54 3,7 C 8,9 C 3,9 C 98 % 1027,9 hPa 0,0 l/m 14,9 km/h (3 Bft) O 81 0 min 0,000 mm 0,0 UV-I 0 W/m 3,4 C -2,4 C 19,3 km/h (3 Bft) 98,08 %
15.11.2018 03:56 3,7 C 8,9 C 3,9 C 98 % 1027,9 hPa 0,0 l/m 13,9 km/h (3 Bft) O-NO 78 0 min 0,000 mm 0,0 UV-I 0 W/m 3,4 C -1,9 C 19,3 km/h (3 Bft) 93,62 %
15.11.2018 03:58 3,7 C 8,9 C 3,9 C 98 % 1027,9 hPa 0,0 l/m 11,4 km/h (2 Bft) O 79 0 min 0,000 mm 0,0 UV-I 0 W/m 3,4 C -0,3 C 16,1 km/h (3 Bft) 100,00 %
15.11.2018 04:00 3,7 C 8,9 C 3,9 C 98 % 1027,9 hPa 0,0 l/m 12,7 km/h (3 Bft) O-NO 63 0 min 0,000 mm 0,0 UV-I 0 W/m 3,4 C -1,2 C 17,7 km/h (3 Bft) 96,23 %
15.11.2018 04:02 3,7 C 8,9 C 3,3 C 98 % 1027,9 hPa 0,0 l/m 11,5 km/h (2 Bft) O-NO 67 0 min 0,000 mm 0,0 UV-I 0 W/m 3,4 C -0,4 C 16,1 km/h (3 Bft) 96,55 %
15.11.2018 04:04 3,6 C 8,9 C 3,3 C 98 % 1027,9 hPa 0,0 l/m 13,8 km/h (3 Bft) O-SO 105 0 min 0,000 mm 0,0 UV-I 0 W/m 3,3 C -2,0 C 19,3 km/h (3 Bft) 97,87 %
15.11.2018 04:06 3,6 C 8,9 C 3,3 C 98 % 1027,8 hPa 0,0 l/m 12,1 km/h (2 Bft) O 96 0 min 0,000 mm 0,0 UV-I 0 W/m 3,3 C -0,9 C 17,7 km/h (3 Bft) 95,83 %
15.11.2018 04:08 3,6 C 8,9 C 3,9 C 98 % 1027,8 hPa 0,0 l/m 11,9 km/h (2 Bft) O-NO 68 0 min 0,000 mm 0,0 UV-I 0 W/m 3,3 C -0,8 C 17,7 km/h (3 Bft) 95,74 %
15.11.2018 04:10 3,7 C 8,9 C 3,9 C 98 % 1027,8 hPa 0,0 l/m 11,3 km/h (2 Bft) O 88 0 min 0,000 mm 0,0 UV-I 0 W/m 3,4 C -0,3 C 17,7 km/h (3 Bft) 95,74 %
15.11.2018 04:12 3,7 C 8,9 C 3,9 C 98 % 1027,8 hPa 0,0 l/m 10,3 km/h (2 Bft) O-NO 65 0 min 0,000 mm 0,0 UV-I 0 W/m 3,4 C 0,4 C 12,9 km/h (3 Bft) 92,00 %
15.11.2018 04:14 3,7 C 8,9 C 3,9 C 98 % 1027,8 hPa 0,0 l/m 8,4 km/h (2 Bft) O 84 0 min 0,000 mm 0,0 UV-I 0 W/m 3,4 C 1,9 C 11,3 km/h (2 Bft) 93,62 %
15.11.2018 04:16 3,7 C 8,9 C 3,9 C 98 % 1027,9 hPa 0,0 l/m 7,2 km/h (2 Bft) NO 50 0 min 0,000 mm 0,0 UV-I 0 W/m 3,4 C 3,0 C 11,3 km/h (2 Bft) 92,11 %
15.11.2018 04:18 3,7 C 8,9 C 3,9 C 98 % 1027,9 hPa 0,0 l/m 7,8 km/h (2 Bft) O 82 0 min 0,000 mm 0,0 UV-I 0 W/m 3,4 C 2,4 C 14,5 km/h (3 Bft) 95,74 %
15.11.2018 04:20 3,7 C 8,9 C 3,9 C 98 % 1028,0 hPa 0,0 l/m 11,5 km/h (2 Bft) O 98 0 min 0,000 mm 0,0 UV-I 0 W/m 3,4 C -0,4 C 16,1 km/h (3 Bft) 97,87 %
15.11.2018 04:22 3,7 C 8,9 C 3,9 C 98 % 1028,0 hPa 0,0 l/m 9,0 km/h (2 Bft) O 83 0 min 0,000 mm 0,0 UV-I 0 W/m 3,4 C 1,4 C 14,5 km/h (3 Bft) 97,87 %
15.11.2018 04:24 3,7 C 8,9 C 3,9 C 98 % 1028,0 hPa 0,0 l/m 10,5 km/h (2 Bft) O-NO 76 0 min 0,000 mm 0,0 UV-I 0 W/m 3,4 C 0,3 C 16,1 km/h (3 Bft) 95,74 %
15.11.2018 04:26 3,7 C 8,9 C 3,9 C 98 % 1028,0 hPa 0,0 l/m 8,9 km/h (2 Bft) O-NO 78 0 min 0,000 mm 0,0 UV-I 0 W/m 3,4 C 1,5 C 12,9 km/h (3 Bft) 98,00 %
15.11.2018 04:28 3,7 C 8,9 C 3,9 C 98 % 1028,0 hPa 0,0 l/m 7,6 km/h (2 Bft) O-NO 70 0 min 0,000 mm 0,0 UV-I 0 W/m 3,4 C 2,6 C 11,3 km/h (2 Bft) 98,11 %
15.11.2018 04:30 3,7 C 8,9 C 3,9 C 98 % 1028,0 hPa 0,0 l/m 5,6 km/h (1 Bft) NO 36 0 min 0,000 mm 0,0 UV-I 0 W/m 3,4 C 3,7 C 8,0 km/h (2 Bft) 97,30 %
15.11.2018 04:32 3,7 C 8,9 C 3,9 C 98 % 1028,0 hPa 0,0 l/m 7,4 km/h (2 Bft) NO 41 0 min 0,000 mm 0,0 UV-I 0 W/m 3,4 C 2,8 C 9,7 km/h (2 Bft) 98,00 %
15.11.2018 04:34 3,7 C 8,9 C 3,9 C 98 % 1028,1 hPa 0,0 l/m 9,3 km/h (2 Bft) O-NO 62 0 min 0,000 mm 0,0 UV-I 0 W/m 3,4 C 1,2 C 14,5 km/h (3 Bft) 100,00 %
15.11.2018 04:36 3,7 C 8,9 C 3,9 C 98 % 1028,1 hPa 0,0 l/m 12,4 km/h (3 Bft) O-NO 63 0 min 0,000 mm 0,0 UV-I 0 W/m 3,4 C -1,0 C 16,1 km/h (3 Bft) 98,00 %
15.11.2018 04:38 3,7 C 8,9 C 3,9 C 98 % 1028,1 hPa 0,0 l/m 11,7 km/h (2 Bft) O 82 0 min 0,000 mm 0,0 UV-I 0 W/m 3,4 C -0,5 C 16,1 km/h (3 Bft) 97,87 %
15.11.2018 04:40 3,7 C 8,9 C 3,9 C 98 % 1028,1 hPa 0,0 l/m 6,9 km/h (2 Bft) NO 53 0 min 0,000 mm 0,0 UV-I 0 W/m 3,4 C 3,2 C 12,9 km/h (3 Bft) 97,96 %
15.11.2018 04:42 3,7 C 8,9 C 3,9 C 98 % 1028,1 hPa 0,0 l/m 7,0 km/h (2 Bft) O-NO 59 0 min 0,000 mm 0,0 UV-I 0 W/m 3,4 C 3,1 C 12,9 km/h (3 Bft) 100,00 %
15.11.2018 04:44 3,7 C 8,9 C 3,9 C 98 % 1028,1 hPa 0,0 l/m 9,8 km/h (2 Bft) NO 55 0 min 0,000 mm 0,0 UV-I 0 W/m 3,4 C 0,8 C 16,1 km/h (3 Bft) 100,00 %
15.11.2018 04:46 3,7 C 8,9 C 3,9 C 98 % 1028,1 hPa 0,0 l/m 7,9 km/h (2 Bft) O-NO 58 0 min 0,000 mm 0,0 UV-I 0 W/m 3,4 C 2,3 C 11,3 km/h (2 Bft) 97,87 %
15.11.2018 04:48 3,7 C 8,9 C 3,9 C 98 % 1028,1 hPa 0,0 l/m 9,0 km/h (2 Bft) NO 48 0 min 0,000 mm 0,0 UV-I 0 W/m 3,4 C 1,4 C 14,5 km/h (3 Bft) 100,00 %
15.11.2018 04:50 3,7 C 8,9 C 3,9 C 98 % 1028,1 hPa 0,0 l/m 9,6 km/h (2 Bft) O-NO 64 0 min 0,000 mm 0,0 UV-I 0 W/m 3,4 C 0,9 C 14,5 km/h (3 Bft) 100,00 %
15.11.2018 04:52 3,7 C 8,9 C 3,9 C 98 % 1028,0 hPa 0,0 l/m 9,7 km/h (2 Bft) NO 40 0 min 0,000 mm 0,0 UV-I 0 W/m 3,4 C 0,9 C 14,5 km/h (3 Bft) 100,00 %
15.11.2018 04:54 3,7 C 8,9 C 3,9 C 98 % 1028,0 hPa 0,0 l/m 9,6 km/h (2 Bft) O-NO 78 0 min 0,000 mm 0,0 UV-I 0 W/m 3,4 C 0,9 C 16,1 km/h (3 Bft) 100,00 %
15.11.2018 04:56 3,7 C 8,9 C 3,9 C 98 % 1028,0 hPa 0,0 l/m 10,8 km/h (2 Bft) O-NO 76 0 min 0,000 mm 0,0 UV-I 0 W/m 3,4 C 0,1 C 14,5 km/h (3 Bft) 95,92 %
15.11.2018 04:58 3,6 C 8,9 C 3,9 C 98 % 1028,0 hPa 0,0 l/m 12,8 km/h (3 Bft) O-NO 69 0 min 0,000 mm 0,0 UV-I 0 W/m 3,3 C -1,4 C 19,3 km/h (3 Bft) 100,00 %
15.11.2018 05:00 3,6 C 8,9 C 3,3 C 98 % 1028,0 hPa 0,0 l/m 12,4 km/h (3 Bft) O-NO 63 0 min 0,000 mm 0,0 UV-I 0 W/m 3,3 C -1,1 C 17,7 km/h (3 Bft) 97,37 %
15.11.2018 05:02 3,5 C 8,9 C 3,3 C 98 % 1028,0 hPa 0,0 l/m 12,9 km/h (3 Bft) O-NO 70 0 min 0,000 mm 0,0 UV-I 0 W/m 3,2 C -1,5 C 17,7 km/h (3 Bft) 97,87 %
15.11.2018 05:04 3,4 C 8,9 C 2,8 C 98 % 1027,9 hPa 0,0 l/m 12,3 km/h (3 Bft) O 93 0 min 0,000 mm 0,0 UV-I 0 W/m 3,1 C -1,3 C 17,7 km/h (3 Bft) 100,00 %
15.11.2018 05:06 3,4 C 8,9 C 2,8 C 98 % 1027,9 hPa 0,0 l/m 10,1 km/h (2 Bft) O 88 0 min 0,000 mm 0,0 UV-I 0 W/m 3,1 C 0,2 C 14,5 km/h (3 Bft) 100,00 %
15.11.2018 05:08 3,4 C 8,9 C 2,8 C 98 % 1027,8 hPa 0,0 l/m 8,0 km/h (2 Bft) O-SO 121 0 min 0,000 mm 0,0 UV-I 0 W/m 3,1 C 1,9 C 12,9 km/h (3 Bft) 100,00 %
15.11.2018 05:10 3,3 C 8,9 C 2,8 C 98 % 1027,8 hPa 0,0 l/m 5,7 km/h (1 Bft) O-NO 75 0 min 0,000 mm 0,0 UV-I 0 W/m 3,0 C 3,3 C 12,9 km/h (3 Bft) 100,00 %
15.11.2018 05:12 3,3 C 8,9 C 2,8 C 98 % 1027,9 hPa 0,0 l/m 6,2 km/h (2 Bft) O-NO 68 0 min 0,000 mm 0,0 UV-I 0 W/m 3,0 C 3,3 C 9,7 km/h (2 Bft) 100,00 %
15.11.2018 05:14 3,3 C 8,9 C 2,8 C 98 % 1027,9 hPa 0,0 l/m 6,1 km/h (2 Bft) O-NO 76 0 min 0,000 mm 0,0 UV-I 0 W/m 3,0 C 3,3 C 12,9 km/h (3 Bft) 100,00 %
15.11.2018 05:16 3,3 C 8,9 C 2,8 C 98 % 1027,8 hPa 0,0 l/m 6,7 km/h (2 Bft) O-NO 75 0 min 0,000 mm 0,0 UV-I 0 W/m 3,0 C 3,0 C 8,0 km/h (2 Bft) 100,00 %
15.11.2018 05:18 3,3 C 8,9 C 2,8 C 98 % 1027,9 hPa 0,0 l/m 6,0 km/h (2 Bft) O 82 0 min 0,000 mm 0,0 UV-I 0 W/m 3,0 C 3,3 C 8,0 km/h (2 Bft) 100,00 %
15.11.2018 05:20 3,3 C 8,9 C 2,8 C 98 % 1027,8 hPa 0,0 l/m 4,7 km/h (1 Bft) O-NO 67 0 min 0,000 mm 0,0 UV-I 0 W/m 3,0 C 3,3 C 6,4 km/h (2 Bft) 97,92 %
15.11.2018 05:22 3,3 C 8,9 C 3,3 C 98 % 1027,8 hPa 0,0 l/m 3,9 km/h (1 Bft) O-NO 69 0 min 0,000 mm 0,0 UV-I 0 W/m 3,0 C 3,3 C 6,4 km/h (2 Bft) 95,74 %
15.11.2018 05:24 3,3 C 8,9 C 3,3 C 98 % 1027,8 hPa 0,0 l/m 6,2 km/h (2 Bft) O-NO 68 0 min 0,000 mm 0,0 UV-I 0 W/m 3,0 C 3,3 C 9,7 km/h (2 Bft) 97,87 %
15.11.2018 05:26 3,4 C 8,9 C 3,3 C 98 % 1027,8 hPa 0,0 l/m 6,5 km/h (2 Bft) O-NO 59 0 min 0,000 mm 0,0 UV-I 0 W/m 3,1 C 3,3 C 9,7 km/h (2 Bft) 93,62 %
15.11.2018 05:28 3,4 C 8,9 C 3,3 C 98 % 1027,9 hPa 0,0 l/m 11,0 km/h (2 Bft) NO 38 0 min 0,000 mm 0,0 UV-I 0 W/m 3,1 C -0,4 C 14,5 km/h (3 Bft) 93,62 %
15.11.2018 05:30 3,4 C 8,9 C 3,3 C 98 % 1027,8 hPa 0,0 l/m 6,5 km/h (2 Bft) O-NO 59 0 min 0,000 mm 0,0 UV-I 0 W/m 3,1 C 3,3 C 9,7 km/h (2 Bft) 95,74 %
15.11.2018 05:32 3,4 C 8,9 C 3,3 C 98 % 1027,9 hPa 0,0 l/m 8,6 km/h (2 Bft) O-NO 75 0 min 0,000 mm 0,0 UV-I 0 W/m 3,1 C 1,4 C 14,5 km/h (3 Bft) 91,49 %
15.11.2018 05:34 3,4 C 8,9 C 3,3 C 98 % 1027,8 hPa 0,0 l/m 5,3 km/h (1 Bft) O 82 0 min 0,000 mm 0,0 UV-I 0 W/m 3,1 C 3,4 C 8,0 km/h (2 Bft) 94,00 %
15.11.2018 05:36 3,4 C 8,9 C 3,3 C 98 % 1027,8 hPa 0,0 l/m 7,1 km/h (2 Bft) O-NO 68 0 min 0,000 mm 0,0 UV-I 0 W/m 3,1 C 2,7 C 11,3 km/h (2 Bft) 94,00 %
15.11.2018 05:38 3,4 C 8,9 C 3,3 C 98 % 1027,8 hPa 0,0 l/m 8,1 km/h (2 Bft) O-NO 59 0 min 0,000 mm 0,0 UV-I 0 W/m 3,1 C 1,8 C 12,9 km/h (3 Bft) 97,87 %
15.11.2018 05:40 3,4 C 8,9 C 3,3 C 98 % 1027,8 hPa 0,0 l/m 6,2 km/h (2 Bft) O-NO 59 0 min 0,000 mm 0,0 UV-I 0 W/m 3,1 C 3,4 C 11,3 km/h (2 Bft) 93,62 %
15.11.2018 05:42 3,4 C 8,9 C 3,9 C 98 % 1027,9 hPa 0,0 l/m 8,2 km/h (2 Bft) NO 53 0 min 0,000 mm 0,0 UV-I 0 W/m 3,1 C 1,7 C 14,5 km/h (3 Bft) 95,74 %
15.11.2018 05:44 3,4 C 8,9 C 3,9 C 98 % 1027,9 hPa 0,0 l/m 8,3 km/h (2 Bft) NO 35 0 min 0,000 mm 0,0 UV-I 0 W/m 3,1 C 1,7 C 12,9 km/h (3 Bft) 95,74 %
15.11.2018 05:46 3,4 C 8,9 C 3,9 C 98 % 1027,9 hPa 0,0 l/m 8,6 km/h (2 Bft) NO 56 0 min 0,000 mm 0,0 UV-I 0 W/m 3,1 C 1,4 C 16,1 km/h (3 Bft) 94,74 %
15.11.2018 05:48 3,4 C 8,9 C 3,9 C 98 % 1027,9 hPa 0,0 l/m 9,6 km/h (2 Bft) O-NO 65 0 min 0,000 mm 0,0 UV-I 0 W/m 3,1 C 0,6 C 12,9 km/h (3 Bft) 95,74 %
15.11.2018 05:50 3,4 C 8,9 C 3,3 C 98 % 1027,9 hPa 0,0 l/m 10,3 km/h (2 Bft) O-NO 72 0 min 0,000 mm 0,0 UV-I 0 W/m 3,1 C 0,1 C 14,5 km/h (3 Bft) 95,74 %
15.11.2018 05:52 3,3 C 8,9 C 3,3 C 98 % 1027,8 hPa 0,0 l/m 9,1 km/h (2 Bft) O-NO 66 0 min 0,000 mm 0,0 UV-I 0 W/m 3,0 C 0,9 C 14,5 km/h (3 Bft) 95,74 %
15.11.2018 05:54 3,3 C 8,9 C 3,3 C 98 % 1027,9 hPa 0,0 l/m 5,9 km/h (2 Bft) NO 51 0 min 0,000 mm 0,0 UV-I 0 W/m 3,0 C 3,3 C 9,7 km/h (2 Bft) 97,87 %
15.11.2018 05:56 3,3 C 8,9 C 3,9 C 98 % 1027,9 hPa 0,0 l/m 8,3 km/h (2 Bft) O-NO 73 0 min 0,000 mm 0,0 UV-I 0 W/m 3,0 C 1,6 C 12,9 km/h (3 Bft) 100,00 %
15.11.2018 05:58 3,3 C 8,9 C 3,9 C 98 % 1027,8 hPa 0,0 l/m 8,1 km/h (2 Bft) O 85 0 min 0,000 mm 0,0 UV-I 0 W/m 3,0 C 1,7 C 11,3 km/h (2 Bft) 98,00 %
15.11.2018 06:00 3,4 C 8,9 C 3,9 C 98 % 1027,9 hPa 0,0 l/m 7,1 km/h (2 Bft) O-NO 76 0 min 0,000 mm 0,0 UV-I 0 W/m 3,1 C 2,7 C 11,3 km/h (2 Bft) 100,00 %
15.11.2018 06:02 3,3 C 8,9 C 3,9 C 98 % 1027,9 hPa 0,0 l/m 6,6 km/h (2 Bft) O 86 0 min 0,000 mm 0,0 UV-I 0 W/m 3,0 C 3,1 C 12,9 km/h (3 Bft) 100,00 %
15.11.2018 06:04 3,3 C 8,9 C 3,9 C 98 % 1027,9 hPa 0,0 l/m 8,2 km/h (2 Bft) O-NO 65 0 min 0,000 mm 0,0 UV-I 0 W/m 3,0 C 1,6 C 12,9 km/h (3 Bft) 97,87 %
15.11.2018 06:06 3,4 C 8,9 C 3,9 C 98 % 1027,9 hPa 0,0 l/m 7,8 km/h (2 Bft) O-NO 67 0 min 0,000 mm 0,0 UV-I 0 W/m 3,1 C 2,1 C 12,9 km/h (3 Bft) 100,00 %
15.11.2018 06:08 3,4 C 8,9 C 3,9 C 98 % 1027,9 hPa 0,0 l/m 5,3 km/h (1 Bft) NO 54 0 min 0,000 mm 0,0 UV-I 0 W/m 3,1 C 3,4 C 8,0 km/h (2 Bft) 100,00 %
15.11.2018 06:10 3,4 C 8,9 C 3,9 C 98 % 1027,9 hPa 0,0 l/m 7,0 km/h (2 Bft) O-NO 67 0 min 0,000 mm 0,0 UV-I 0 W/m 3,1 C 2,8 C 11,3 km/h (2 Bft) 100,00 %
15.11.2018 06:12 3,4 C 8,9 C 3,9 C 98 % 1027,9 hPa 0,0 l/m 6,5 km/h (2 Bft) O 92 0 min 0,000 mm 0,0 UV-I 0 W/m 3,1 C 3,3 C 9,7 km/h (2 Bft) 100,00 %
15.11.2018 06:14 3,4 C 8,9 C 3,9 C 98 % 1027,9 hPa 0,0 l/m 9,0 km/h (2 Bft) O 97 0 min 0,000 mm 0,0 UV-I 0 W/m 3,1 C 1,1 C 14,5 km/h (3 Bft) 98,00 %
15.11.2018 06:16 3,4 C 8,9 C 3,9 C 98 % 1027,9 hPa 0,0 l/m 9,7 km/h (2 Bft) O-NO 65 0 min 0,000 mm 0,0 UV-I 0 W/m 3,1 C 0,5 C 12,9 km/h (3 Bft) 97,87 %
15.11.2018 06:18 3,4 C 8,9 C 3,9 C 98 % 1027,9 hPa 0,0 l/m 7,2 km/h (2 Bft) O-NO 67 0 min 0,000 mm 0,0 UV-I 0 W/m 3,1 C 2,7 C 11,3 km/h (2 Bft) 100,00 %
15.11.2018 06:20 3,4 C 8,9 C 3,3 C 98 % 1027,9 hPa 0,0 l/m 9,0 km/h (2 Bft) O-NO 74 0 min 0,000 mm 0,0 UV-I 0 W/m 3,1 C 1,1 C 16,1 km/h (3 Bft) 100,00 %
15.11.2018 06:22 3,3 C 8,9 C 3,3 C 98 % 1027,9 hPa 0,0 l/m 9,5 km/h (2 Bft) O 82 0 min 0,000 mm 0,0 UV-I 0 W/m 3,0 C 0,6 C 14,5 km/h (3 Bft) 97,87 %
15.11.2018 06:24 3,3 C 8,9 C 3,3 C 98 % 1028,0 hPa 0,0 l/m 8,0 km/h (2 Bft) O-NO 61 0 min 0,000 mm 0,0 UV-I 0 W/m 3,0 C 1,8 C 12,9 km/h (3 Bft) 100,00 %
15.11.2018 06:26 3,3 C 8,9 C 3,3 C 98 % 1028,0 hPa 0,0 l/m 8,8 km/h (2 Bft) O-NO 59 0 min 0,000 mm 0,0 UV-I 0 W/m 3,0 C 1,1 C 14,5 km/h (3 Bft) 97,87 %
15.11.2018 06:28 3,4 C 8,9 C 3,3 C 98 % 1028,0 hPa 0,0 l/m 8,0 km/h (2 Bft) NO 43 0 min 0,000 mm 0,0 UV-I 0 W/m 3,1 C 1,9 C 12,9 km/h (3 Bft) 100,00 %
15.11.2018 06:30 3,3 C 8,9 C 3,9 C 98 % 1028,0 hPa 0,0 l/m 6,2 km/h (2 Bft) O-NO 66 0 min 0,000 mm 0,0 UV-I 0 W/m 3,0 C 3,3 C 9,7 km/h (2 Bft) 100,00 %
15.11.2018 06:32 3,3 C 8,9 C 3,9 C 98 % 1028,0 hPa 0,0 l/m 5,5 km/h (1 Bft) O-NO 68 0 min 0,000 mm 0,0 UV-I 0 W/m 3,0 C 3,3 C 6,4 km/h (2 Bft) 100,00 %
15.11.2018 06:34 3,3 C 8,9 C 3,9 C 98 % 1028,0 hPa 0,0 l/m 7,8 km/h (2 Bft) NO 39 0 min 0,000 mm 0,0 UV-I 0 W/m 3,0 C 2,0 C 11,3 km/h (2 Bft) 100,00 %
15.11.2018 06:36 3,3 C 8,9 C 3,3 C 98 % 1028,0 hPa 0,0 l/m 7,5 km/h (2 Bft) O-NO 77 0 min 0,000 mm 0,0 UV-I 0 W/m 3,0 C 2,3 C 11,3 km/h (2 Bft) 100,00 %
15.11.2018 06:38 3,3 C 8,9 C 3,3 C 98 % 1028,0 hPa 0,0 l/m 9,6 km/h (2 Bft) O 92 0 min 0,000 mm 0,0 UV-I 0 W/m 3,0 C 0,5 C 14,5 km/h (3 Bft) 97,22 %
15.11.2018 06:40 3,3 C 8,9 C 3,3 C 98 % 1028,0 hPa 0,0 l/m 10,6 km/h (2 Bft) O-NO 67 0 min 0,000 mm 0,0 UV-I 0 W/m 3,0 C -0,2 C 14,5 km/h (3 Bft) 98,11 %
15.11.2018 06:42 3,3 C 8,9 C 3,3 C 98 % 1028,0 hPa 0,0 l/m 10,1 km/h (2 Bft) NO 53 0 min 0,000 mm 0,0 UV-I 0 W/m 3,0 C 0,1 C 14,5 km/h (3 Bft) 97,37 %
15.11.2018 06:44 3,3 C 8,9 C 3,3 C 98 % 1028,0 hPa 0,0 l/m 9,0 km/h (2 Bft) O-NO 71 0 min 0,000 mm 0,0 UV-I 0 W/m 3,0 C 1,0 C 14,5 km/h (3 Bft) 98,08 %
15.11.2018 06:46 3,3 C 8,9 C 3,3 C 98 % 1028,0 hPa 0,0 l/m 9,4 km/h (2 Bft) O 86 0 min 0,000 mm 0,0 UV-I 0 W/m 3,0 C 0,7 C 14,5 km/h (3 Bft) 98,00 %
15.11.2018 06:48 3,3 C 8,9 C 3,3 C 98 % 1028,0 hPa 0,0 l/m 8,1 km/h (2 Bft) O 87 0 min 0,000 mm 0,0 UV-I 0 W/m 3,0 C 1,7 C 12,9 km/h (3 Bft) 94,00 %
15.11.2018 06:50 3,3 C 8,9 C 3,3 C 98 % 1028,0 hPa 0,0 l/m 9,3 km/h (2 Bft) O-NO 76 0 min 0,000 mm 0,0 UV-I 0 W/m 3,0 C 0,7 C 12,9 km/h (3 Bft) 97,87 %
15.11.2018 06:52 3,3 C 8,9 C 3,3 C 98 % 1028,1 hPa 0,0 l/m 9,4 km/h (2 Bft) O 82 0 min 0,000 mm 0,0 UV-I 0 W/m 3,0 C 0,7 C 16,1 km/h (3 Bft) 97,37 %
15.11.2018 06:54 3,3 C 8,9 C 3,3 C 98 % 1028,1 hPa 0,0 l/m 9,1 km/h (2 Bft) O-SO 113 0 min 0,000 mm 0,0 UV-I 0 W/m 3,0 C 0,9 C 14,5 km/h (3 Bft) 95,74 %
15.11.2018 06:56 3,3 C 8,9 C 3,3 C 98 % 1028,1 hPa 0,0 l/m 8,9 km/h (2 Bft) O-SO 109 0 min 0,000 mm 0,0 UV-I 0 W/m 3,0 C 1,1 C 12,9 km/h (3 Bft) 95,74 %
15.11.2018 06:58 3,3 C 8,9 C 3,3 C 98 % 1028,1 hPa 0,0 l/m 8,9 km/h (2 Bft) O 82 0 min 0,000 mm 0,0 UV-I 0 W/m 3,0 C 1,1 C 11,3 km/h (2 Bft) 95,74 %
15.11.2018 07:00 3,3 C 8,9 C 3,3 C 98 % 1028,1 hPa 0,0 l/m 6,8 km/h (2 Bft) O-NO 78 0 min 0,000 mm 0,0 UV-I 5 W/m 3,0 C 2,9 C 9,7 km/h (2 Bft) 91,49 %
15.11.2018 07:02 3,2 C 8,9 C 3,3 C 98 % 1028,1 hPa 0,0 l/m 6,9 km/h (2 Bft) O 80 0 min 0,000 mm 0,0 UV-I 5 W/m 2,9 C 2,7 C 11,3 km/h (2 Bft) 96,00 %
15.11.2018 07:04 3,3 C 8,9 C 3,3 C 98 % 1028,2 hPa 0,0 l/m 8,0 km/h (2 Bft) O 96 0 min 0,000 mm 0,0 UV-I 5 W/m 3,0 C 1,8 C 12,9 km/h (3 Bft) 93,62 %
15.11.2018 07:06 3,2 C 8,9 C 3,3 C 98 % 1028,1 hPa 0,0 l/m 7,1 km/h (2 Bft) O-SO 103 0 min 0,000 mm 0,0 UV-I 5 W/m 2,9 C 2,5 C 14,5 km/h (3 Bft) 97,87 %
15.11.2018 07:08 3,2 C 8,9 C 3,3 C 98 % 1028,1 hPa 0,0 l/m 6,2 km/h (2 Bft) O 96 0 min 0,000 mm 0,0 UV-I 5 W/m 2,9 C 3,2 C 9,7 km/h (2 Bft) 97,87 %
15.11.2018 07:10 3,2 C 8,9 C 3,3 C 98 % 1028,1 hPa 0,0 l/m 7,4 km/h (2 Bft) O 101 0 min 0,000 mm 0,0 UV-I 5 W/m 2,9 C 2,3 C 12,9 km/h (3 Bft) 94,00 %
15.11.2018 07:12 3,2 C 8,9 C 3,3 C 98 % 1028,1 hPa 0,0 l/m 7,7 km/h (2 Bft) O 98 0 min 0,000 mm 0,0 UV-I 5 W/m 2,9 C 2,0 C 12,9 km/h (3 Bft) 97,87 %
15.11.2018 07:14 3,2 C 8,9 C 3,3 C 98 % 1028,1 hPa 0,0 l/m 7,1 km/h (2 Bft) O 97 0 min 0,000 mm 0,0 UV-I 6 W/m 2,9 C 2,5 C 11,3 km/h (2 Bft) 97,44 %
15.11.2018 07:16 3,2 C 8,9 C 3,3 C 98 % 1028,1 hPa 0,0 l/m 6,7 km/h (2 Bft) O 90 0 min 0,000 mm 0,0 UV-I 7 W/m 2,9 C 2,9 C 11,3 km/h (2 Bft) 98,08 %
15.11.2018 07:18 3,2 C 8,9 C 3,3 C 98 % 1028,1 hPa 0,0 l/m 6,1 km/h (2 Bft) O-NO 74 0 min 0,000 mm 0,0 UV-I 7 W/m 2,9 C 3,2 C 11,3 km/h (2 Bft) 97,92 %
15.11.2018 07:20 3,2 C 8,9 C 3,3 C 98 % 1028,1 hPa 0,0 l/m 6,5 km/h (2 Bft) O-NO 69 0 min 0,000 mm 0,0 UV-I 8 W/m 2,9 C 3,1 C 9,7 km/h (2 Bft) 95,74 %
15.11.2018 07:22 3,2 C 8,9 C 3,3 C 98 % 1028,2 hPa 0,0 l/m 6,5 km/h (2 Bft) O-NO 67 0 min 0,000 mm 0,0 UV-I 9 W/m 2,9 C 3,1 C 11,3 km/h (2 Bft) 97,87 %
15.11.2018 07:24 3,2 C 8,9 C 3,3 C 98 % 1028,2 hPa 0,0 l/m 5,5 km/h (1 Bft) O 82 0 min 0,000 mm 0,0 UV-I 9 W/m 2,9 C 3,2 C 8,0 km/h (2 Bft) 93,62 %
15.11.2018 07:26 3,2 C 8,9 C 3,3 C 98 % 1028,2 hPa 0,0 l/m 6,8 km/h (2 Bft) O-NO 78 0 min 0,000 mm 0,0 UV-I 11 W/m 2,9 C 2,8 C 9,7 km/h (2 Bft) 95,74 %
15.11.2018 07:28 3,2 C 8,9 C 3,3 C 98 % 1028,1 hPa 0,0 l/m 4,2 km/h (1 Bft) O-NO 58 0 min 0,000 mm 0,0 UV-I 11 W/m 2,9 C 3,2 C 8,0 km/h (2 Bft) 95,74 %
15.11.2018 07:30 3,2 C 8,9 C 3,3 C 98 % 1028,1 hPa 0,0 l/m 4,4 km/h (1 Bft) O-NO 78 0 min 0,000 mm 0,0 UV-I 12 W/m 2,9 C 3,2 C 8,0 km/h (2 Bft) 95,74 %
15.11.2018 07:32 3,2 C 8,9 C 3,3 C 98 % 1028,1 hPa 0,0 l/m 6,4 km/h (2 Bft) O-NO 62 0 min 0,000 mm 0,0 UV-I 13 W/m 2,9 C 3,2 C 11,3 km/h (2 Bft) 93,62 %
15.11.2018 07:34 3,2 C 8,9 C 3,3 C 98 % 1028,1 hPa 0,0 l/m 6,3 km/h (2 Bft) O-NO 65 0 min 0,000 mm 0,0 UV-I 14 W/m 2,9 C 3,2 C 9,7 km/h (2 Bft) 93,62 %
15.11.2018 07:36 3,2 C 8,9 C 3,3 C 98 % 1028,1 hPa 0,0 l/m 5,6 km/h (1 Bft) O 86 0 min 0,000 mm 0,0 UV-I 16 W/m 2,9 C 3,2 C 8,0 km/h (2 Bft) 93,62 %
15.11.2018 07:38 3,2 C 8,9 C 3,3 C 98 % 1028,2 hPa 0,0 l/m 5,2 km/h (1 Bft) O-NO 71 0 min 0,000 mm 0,0 UV-I 17 W/m 2,9 C 3,2 C 9,7 km/h (2 Bft) 93,62 %
15.11.2018 07:40 3,2 C 8,9 C 3,3 C 98 % 1028,2 hPa 0,0 l/m 7,2 km/h (2 Bft) O-NO 71 0 min 0,000 mm 0,0 UV-I 18 W/m 2,9 C 2,4 C 11,3 km/h (2 Bft) 95,74 %
15.11.2018 07:42 3,2 C 8,9 C 3,3 C 98 % 1028,1 hPa 0,0 l/m 7,6 km/h (2 Bft) O-NO 77 0 min 0,000 mm 0,0 UV-I 19 W/m 2,9 C 2,1 C 11,3 km/h (2 Bft) 93,62 %
15.11.2018 07:44 3,1 C 8,9 C 3,3 C 98 % 1028,2 hPa 0,0 l/m 6,3 km/h (2 Bft) O-NO 68 0 min 0,000 mm 0,0 UV-I 20 W/m 2,8 C 3,1 C 11,3 km/h (2 Bft) 95,74 %
15.11.2018 07:46 3,1 C 8,9 C 3,3 C 98 % 1028,2 hPa 0,0 l/m 7,5 km/h (2 Bft) O-NO 69 0 min 0,000 mm 0,0 UV-I 23 W/m 2,8 C 2,1 C 11,3 km/h (2 Bft) 94,74 %
15.11.2018 07:48 3,1 C 8,9 C 3,3 C 98 % 1028,2 hPa 0,0 l/m 4,3 km/h (1 Bft) O-NO 71 0 min 0,000 mm 0,0 UV-I 24 W/m 2,8 C 3,1 C 6,4 km/h (2 Bft) 91,49 %
15.11.2018 07:50 3,2 C 8,9 C 3,3 C 98 % 1028,2 hPa 0,0 l/m 5,7 km/h (1 Bft) O 83 0 min 0,000 mm 0,0 UV-I 26 W/m 2,9 C 3,2 C 8,0 km/h (2 Bft) 95,83 %
15.11.2018 07:52 3,1 C 8,9 C 3,3 C 98 % 1028,2 hPa 0,0 l/m 5,9 km/h (2 Bft) O 80 0 min 0,000 mm 0,0 UV-I 26 W/m 2,8 C 3,1 C 8,0 km/h (2 Bft) 92,00 %
15.11.2018 07:54 3,1 C 8,9 C 3,3 C 98 % 1028,3 hPa 0,0 l/m 6,4 km/h (2 Bft) O 88 0 min 0,000 mm 0,0 UV-I 26 W/m 2,8 C 3,1 C 9,7 km/h (2 Bft) 91,84 %
15.11.2018 07:56 3,1 C 8,3 C 3,3 C 98 % 1028,3 hPa 0,0 l/m 5,1 km/h (1 Bft) O-NO 73 0 min 0,000 mm 0,0 UV-I 26 W/m 2,8 C 3,1 C 8,0 km/h (2 Bft) 93,75 %
15.11.2018 07:58 3,1 C 8,3 C 3,3 C 98 % 1028,3 hPa 0,0 l/m 6,6 km/h (2 Bft) O 94 0 min 0,000 mm 0,0 UV-I 26 W/m 2,8 C 2,9 C 11,3 km/h (2 Bft) 95,74 %
15.11.2018 08:00 3,1 C 8,3 C 3,3 C 98 % 1028,4 hPa 0,0 l/m 5,9 km/h (2 Bft) NO 55 0 min 0,000 mm 0,0 UV-I 27 W/m 2,8 C 3,1 C 8,0 km/h (2 Bft) 95,74 %
15.11.2018 08:02 3,1 C 8,3 C 3,3 C 98 % 1028,3 hPa 0,0 l/m 5,7 km/h (1 Bft) O 80 0 min 0,000 mm 0,0 UV-I 26 W/m 2,8 C 3,1 C 9,7 km/h (2 Bft) 95,74 %
15.11.2018 08:04 3,1 C 8,9 C 3,3 C 98 % 1028,3 hPa 0,0 l/m 4,3 km/h (1 Bft) O 79 0 min 0,000 mm 0,0 UV-I 24 W/m 2,8 C 3,1 C 6,4 km/h (2 Bft) 95,74 %
15.11.2018 08:06 3,1 C 8,9 C 3,3 C 98 % 1028,3 hPa 0,0 l/m 4,0 km/h (1 Bft) O-NO 76 0 min 0,000 mm 0,0 UV-I 21 W/m 2,8 C 3,1 C 6,4 km/h (2 Bft) 93,62 %
15.11.2018 08:08 3,1 C 8,9 C 3,3 C 98 % 1028,3 hPa 0,0 l/m 6,5 km/h (2 Bft) O-NO 59 0 min 0,000 mm 0,0 UV-I 23 W/m 2,8 C 3,0 C 11,3 km/h (2 Bft) 93,62 %
15.11.2018 08:10 3,1 C 8,3 C 3,3 C 98 % 1028,4 hPa 0,0 l/m 8,3 km/h (2 Bft) O-NO 57 0 min 0,000 mm 0,0 UV-I 33 W/m 2,8 C 1,3 C 11,3 km/h (2 Bft) 100,00 %
15.11.2018 08:12 3,1 C 8,9 C 3,3 C 98 % 1028,4 hPa 0,0 l/m 8,2 km/h (2 Bft) O-NO 57 0 min 0,000 mm 0,0 UV-I 42 W/m 2,8 C 1,4 C 12,9 km/h (3 Bft) 97,14 %
15.11.2018 08:14 3,1 C 8,3 C 3,3 C 98 % 1028,4 hPa 0,0 l/m 8,6 km/h (2 Bft) NO 49 0 min 0,000 mm 0,0 UV-I 49 W/m 2,8 C 1,1 C 12,9 km/h (3 Bft) 96,92 %
15.11.2018 08:16 3,1 C 8,3 C 3,3 C 98 % 1028,4 hPa 0,0 l/m 9,9 km/h (2 Bft) NO 56 0 min 0,000 mm 0,0 UV-I 43 W/m 2,8 C 0,0 C 14,5 km/h (3 Bft) 97,87 %
15.11.2018 08:18 3,1 C 8,3 C 3,9 C 98 % 1028,4 hPa 0,0 l/m 10,4 km/h (2 Bft) O-NO 74 0 min 0,000 mm 0,0 UV-I 48 W/m 2,8 C -0,3 C 14,5 km/h (3 Bft) 97,87 %
15.11.2018 08:20 3,1 C 8,9 C 3,9 C 98 % 1028,4 hPa 0,0 l/m 8,3 km/h (2 Bft) O-NO 73 0 min 0,000 mm 0,0 UV-I 47 W/m 2,8 C 1,3 C 12,9 km/h (3 Bft) 95,74 %
15.11.2018 08:22 3,1 C 8,3 C 3,9 C 98 % 1028,4 hPa 0,0 l/m 7,0 km/h (2 Bft) O-NO 71 0 min 0,000 mm 0,0 UV-I 55 W/m 2,8 C 2,5 C 12,9 km/h (3 Bft) 95,74 %
15.11.2018 08:24 3,1 C 8,9 C 3,9 C 98 % 1028,5 hPa 0,0 l/m 7,7 km/h (2 Bft) NO 51 0 min 0,000 mm 0,0 UV-I 44 W/m 2,8 C 1,9 C 11,3 km/h (2 Bft) 100,00 %
15.11.2018 08:26 3,1 C 8,9 C 3,9 C 98 % 1028,5 hPa 0,0 l/m 10,3 km/h (2 Bft) O-NO 65 0 min 0,000 mm 0,0 UV-I 28 W/m 2,8 C -0,2 C 16,1 km/h (3 Bft) 100,00 %
15.11.2018 08:28 3,1 C 8,3 C 3,9 C 98 % 1028,5 hPa 0,0 l/m 9,5 km/h (2 Bft) O-NO 67 0 min 0,000 mm 0,0 UV-I 32 W/m 2,8 C 0,4 C 17,7 km/h (3 Bft) 100,00 %
15.11.2018 08:30 3,1 C 8,9 C 3,9 C 98 % 1028,5 hPa 0,0 l/m 10,0 km/h (2 Bft) O-NO 64 0 min 0,000 mm 0,0 UV-I 45 W/m 2,8 C -0,0 C 14,5 km/h (3 Bft) 100,00 %
15.11.2018 08:32 3,0 C 8,3 C 3,9 C 98 % 1028,5 hPa 0,0 l/m 11,4 km/h (2 Bft) O-NO 71 0 min 0,000 mm 0,0 UV-I 53 W/m 2,7 C -1,1 C 19,3 km/h (3 Bft) 100,00 %
15.11.2018 08:34 3,0 C 8,3 C 3,9 C 98 % 1028,5 hPa 0,0 l/m 8,5 km/h (2 Bft) O-NO 70 0 min 0,000 mm 0,0 UV-I 50 W/m 2,7 C 1,1 C 12,9 km/h (3 Bft) 100,00 %
15.11.2018 08:36 2,9 C 8,3 C 3,9 C 98 % 1028,5 hPa 0,0 l/m 10,5 km/h (2 Bft) O-NO 64 0 min 0,000 mm 0,0 UV-I 53 W/m 2,6 C -0,6 C 17,7 km/h (3 Bft) 97,87 %
15.11.2018 08:38 2,9 C 8,3 C 3,9 C 98 % 1028,5 hPa 0,0 l/m 10,4 km/h (2 Bft) O 79 0 min 0,000 mm 0,0 UV-I 57 W/m 2,6 C -0,5 C 16,1 km/h (3 Bft) 100,00 %
15.11.2018 08:40 2,9 C 8,3 C 3,9 C 98 % 1028,5 hPa 0,0 l/m 9,5 km/h (2 Bft) O-NO 59 0 min 0,000 mm 0,0 UV-I 60 W/m 2,6 C 0,1 C 16,1 km/h (3 Bft) 100,00 %
15.11.2018 08:42 2,9 C 8,3 C 3,9 C 98 % 1028,4 hPa 0,0 l/m 11,2 km/h (2 Bft) O 81 0 min 0,000 mm 0,0 UV-I 68 W/m 2,6 C -1,1 C 14,5 km/h (3 Bft) 97,87 %
15.11.2018 08:44 2,9 C 8,3 C 3,9 C 98 % 1028,5 hPa 0,0 l/m 9,1 km/h (2 Bft) O-NO 57 0 min 0,000 mm 0,0 UV-I 89 W/m 2,6 C 0,5 C 12,9 km/h (3 Bft) 100,00 %
15.11.2018 08:46 3,1 C 8,3 C 3,9 C 98 % 1028,5 hPa 0,0 l/m 10,2 km/h (2 Bft) O 79 0 min 0,000 mm 0,0 UV-I 80 W/m 2,8 C -0,2 C 19,3 km/h (3 Bft) 97,87 %
15.11.2018 08:48 3,1 C 8,3 C 4,4 C 98 % 1028,5 hPa 0,0 l/m 11,3 km/h (2 Bft) O-NO 71 0 min 0,000 mm 0,0 UV-I 110 W/m 2,8 C -1,0 C 14,5 km/h (3 Bft) 100,00 %
15.11.2018 08:50 3,1 C 8,3 C 3,9 C 98 % 1028,5 hPa 0,0 l/m 7,9 km/h (2 Bft) NO 46 0 min 0,000 mm 0,0 UV-I 85 W/m 2,8 C 1,7 C 12,9 km/h (3 Bft) 97,87 %
15.11.2018 08:52 3,2 C 8,3 C 4,4 C 98 % 1028,5 hPa 0,0 l/m 8,8 km/h (2 Bft) O-NO 57 0 min 0,000 mm 0,0 UV-I 92 W/m 2,9 C 1,0 C 16,1 km/h (3 Bft) 100,00 %
15.11.2018 08:54 3,2 C 8,3 C 4,4 C 98 % 1028,4 hPa 0,0 l/m 11,4 km/h (2 Bft) O-NO 74 0 min 0,000 mm 0,0 UV-I 87 W/m 2,9 C -0,9 C 14,5 km/h (3 Bft) 100,00 %
15.11.2018 08:56 3,1 C 8,9 C 4,4 C 98 % 1028,5 hPa 0,0 l/m 11,7 km/h (2 Bft) O-NO 76 0 min 0,000 mm 0,0 UV-I 115 W/m 2,8 C -1,2 C 16,1 km/h (3 Bft) 97,87 %
15.11.2018 08:58 3,2 C 8,3 C 4,4 C 98 % 1028,5 hPa 0,0 l/m 9,0 km/h (2 Bft) O-NO 74 0 min 0,000 mm 0,0 UV-I 108 W/m 2,9 C 0,9 C 14,5 km/h (3 Bft) 100,00 %
15.11.2018 09:00 3,1 C 8,3 C 4,4 C 98 % 1028,4 hPa 0,0 l/m 10,9 km/h (2 Bft) O 92 0 min 0,025 mm 0,0 UV-I 98 W/m 2,8 C -0,7 C 16,1 km/h (3 Bft) 97,87 %
15.11.2018 09:02 3,1 C 8,3 C 4,4 C 98 % 1028,4 hPa 0,0 l/m 11,2 km/h (2 Bft) O-NO 68 0 min 0,000 mm 0,0 UV-I 113 W/m 2,8 C -0,9 C 14,5 km/h (3 Bft) 100,00 %
15.11.2018 09:04 3,1 C 8,3 C 4,4 C 98 % 1028,4 hPa 0,0 l/m 14,4 km/h (3 Bft) O-NO 72 0 min 0,000 mm 0,0 UV-I 93 W/m 2,8 C -2,9 C 19,3 km/h (3 Bft) 100,00 %
15.11.2018 09:06 3,1 C 8,3 C 4,4 C 98 % 1028,5 hPa 0,0 l/m 11,2 km/h (2 Bft) O 80 0 min 0,000 mm 0,0 UV-I 111 W/m 2,8 C -0,9 C 16,1 km/h (3 Bft) 100,00 %
15.11.2018 09:08 3,2 C 8,3 C 5,0 C 98 % 1028,4 hPa 0,0 l/m 11,3 km/h (2 Bft) O 90 2 min 0,000 mm 0,0 UV-I 150 W/m 2,9 C -0,8 C 16,1 km/h (3 Bft) 100,00 %
15.11.2018 09:10 3,2 C 8,3 C 4,4 C 98 % 1028,4 hPa 0,0 l/m 13,3 km/h (3 Bft) O-NO 67 0 min 0,000 mm 0,0 UV-I 118 W/m 2,9 C -2,1 C 17,7 km/h (3 Bft) 100,00 %
15.11.2018 09:12 3,2 C 8,3 C 5,0 C 98 % 1028,5 hPa 0,0 l/m 13,8 km/h (3 Bft) O 92 0 min 0,000 mm 0,0 UV-I 132 W/m 2,9 C -2,4 C 17,7 km/h (3 Bft) 97,87 %
15.11.2018 09:14 3,2 C 8,3 C 4,4 C 98 % 1028,4 hPa 0,0 l/m 11,1 km/h (2 Bft) O-NO 78 0 min 0,000 mm 0,0 UV-I 128 W/m 2,9 C -0,7 C 17,7 km/h (3 Bft) 100,00 %
15.11.2018 09:16 3,3 C 8,3 C 5,0 C 98 % 1028,4 hPa 0,0 l/m 14,6 km/h (3 Bft) O 88 2 min 0,000 mm 0,0 UV-I 205 W/m 3,0 C -2,8 C 17,7 km/h (3 Bft) 96,00 %
15.11.2018 09:18 3,3 C 8,3 C 4,4 C 98 % 1028,4 hPa 0,0 l/m 13,7 km/h (3 Bft) O-SO 103 2 min 0,000 mm 0,0 UV-I 159 W/m 3,0 C -2,3 C 19,3 km/h (3 Bft) 97,87 %
15.11.2018 09:20 3,4 C 8,3 C 4,4 C 98 % 1028,5 hPa 0,0 l/m 12,1 km/h (2 Bft) O-NO 65 2 min 0,000 mm 0,0 UV-I 167 W/m 3,1 C -1,2 C 17,7 km/h (3 Bft) 95,74 %
15.11.2018 09:22 3,4 C 8,3 C 4,4 C 98 % 1028,5 hPa 0,0 l/m 9,9 km/h (2 Bft) O 82 2 min 0,000 mm 0,0 UV-I 191 W/m 3,1 C 0,4 C 14,5 km/h (3 Bft) 97,37 %
15.11.2018 09:24 3,6 C 8,3 C 4,4 C 98 % 1028,5 hPa 0,0 l/m 9,7 km/h (2 Bft) O-NO 76 2 min 0,000 mm 0,0 UV-I 226 W/m 3,3 C 0,8 C 14,5 km/h (3 Bft) 96,00 %
15.11.2018 09:26 3,6 C 8,3 C 5,0 C 98 % 1028,5 hPa 0,0 l/m 9,8 km/h (2 Bft) O 90 2 min 0,000 mm 0,0 UV-I 204 W/m 3,3 C 0,7 C 14,5 km/h (3 Bft) 95,74 %
15.11.2018 09:28 3,7 C 8,3 C 5,0 C 98 % 1028,5 hPa 0,0 l/m 11,6 km/h (2 Bft) O 79 2 min 0,000 mm 0,0 UV-I 229 W/m 3,4 C -0,5 C 16,1 km/h (3 Bft) 93,62 %
15.11.2018 09:30 3,7 C 8,3 C 5,0 C 98 % 1028,5 hPa 0,0 l/m 11,0 km/h (2 Bft) O 98 2 min 0,000 mm 0,0 UV-I 247 W/m 3,4 C -0,1 C 17,7 km/h (3 Bft) 95,74 %
15.11.2018 09:32 3,8 C 8,3 C 5,0 C 98 % 1028,5 hPa 0,0 l/m 14,1 km/h (3 Bft) O-NO 62 2 min 0,000 mm 0,0 UV-I 248 W/m 3,5 C -1,9 C 22,5 km/h (4 Bft) 93,62 %
15.11.2018 09:34 3,9 C 8,3 C 5,0 C 98 % 1028,5 hPa 0,0 l/m 15,7 km/h (3 Bft) O-SO 108 2 min 0,000 mm 0,3 UV-I 255 W/m 3,6 C -2,6 C 20,9 km/h (4 Bft) 90,00 %
15.11.2018 09:36 3,9 C 8,3 C 5,0 C 98 % 1028,5 hPa 0,0 l/m 15,7 km/h (3 Bft) O-NO 69 2 min 0,000 mm 0,3 UV-I 241 W/m 3,6 C -2,6 C 20,9 km/h (4 Bft) 94,74 %
15.11.2018 09:38 4,1 C 8,3 C 5,0 C 98 % 1028,5 hPa 0,0 l/m 15,6 km/h (3 Bft) O-NO 68 2 min 0,000 mm 0,4 UV-I 244 W/m 3,8 C -2,3 C 22,5 km/h (4 Bft) 95,74 %
15.11.2018 09:40 4,1 C 8,3 C 5,0 C 98 % 1028,5 hPa 0,0 l/m 16,8 km/h (3 Bft) O-NO 74 2 min 0,000 mm 0,5 UV-I 238 W/m 3,8 C -2,9 C 22,5 km/h (4 Bft) 97,92 %
15.11.2018 09:42 4,2 C 8,3 C 5,6 C 98 % 1028,5 hPa 0,0 l/m 17,0 km/h (3 Bft) NO 53 2 min 0,000 mm 0,5 UV-I 266 W/m 3,9 C -2,9 C 24,1 km/h (4 Bft) 97,87 %
15.11.2018 09:44 4,2 C 8,3 C 5,0 C 98 % 1028,4 hPa 0,0 l/m 15,5 km/h (3 Bft) O-NO 78 2 min 0,000 mm 0,5 UV-I 195 W/m 3,9 C -2,2 C 22,5 km/h (4 Bft) 97,87 %
15.11.2018 09:46 4,3 C 8,3 C 5,0 C 98 % 1028,4 hPa 0,0 l/m 12,6 km/h (3 Bft) O 82 2 min 0,000 mm 0,5 UV-I 181 W/m 4,0 C -0,4 C 19,3 km/h (3 Bft) 97,87 %
15.11.2018 09:48 4,4 C 8,3 C 5,0 C 98 % 1028,5 hPa 0,0 l/m 13,8 km/h (3 Bft) O-NO 61 2 min 0,000 mm 0,5 UV-I 196 W/m 4,1 C -1,0 C 20,9 km/h (4 Bft) 97,87 %
15.11.2018 09:50 4,3 C 8,3 C 5,0 C 98 % 1028,5 hPa 0,0 l/m 16,4 km/h (3 Bft) NO 51 0 min 0,000 mm 0,5 UV-I 117 W/m 4,0 C -2,5 C 27,4 km/h (4 Bft) 97,87 %
15.11.2018 09:52 4,3 C 8,3 C 4,4 C 98 % 1028,5 hPa 0,0 l/m 17,3 km/h (3 Bft) O 95 0 min 0,000 mm 0,5 UV-I 125 W/m 4,0 C -2,9 C 24,1 km/h (4 Bft) 96,00 %
15.11.2018 09:54 4,3 C 8,3 C 5,0 C 98 % 1028,5 hPa 0,0 l/m 14,2 km/h (3 Bft) O-NO 69 2 min 0,000 mm 0,5 UV-I 220 W/m 4,0 C -1,3 C 19,3 km/h (3 Bft) 100,00 %
15.11.2018 09:56 4,4 C 8,3 C 5,0 C 98 % 1028,5 hPa 0,0 l/m 12,8 km/h (3 Bft) O-NO 62 2 min 0,000 mm 0,6 UV-I 294 W/m 4,1 C -0,4 C 19,3 km/h (3 Bft) 100,00 %
15.11.2018 09:58 4,6 C 8,3 C 5,0 C 98 % 1028,4 hPa 0,0 l/m 15,3 km/h (3 Bft) O 90 2 min 0,000 mm 0,6 UV-I 294 W/m 4,3 C -1,6 C 20,9 km/h (4 Bft) 97,87 %
15.11.2018 10:00 4,6 C 8,3 C 5,0 C 98 % 1028,4 hPa 0,0 l/m 12,2 km/h (2 Bft) O-NO 77 2 min 0,077 mm 0,6 UV-I 293 W/m 4,3 C 0,2 C 19,3 km/h (3 Bft) 100,00 %
15.11.2018 10:02 4,7 C 8,3 C 5,6 C 98 % 1028,4 hPa 0,0 l/m 12,9 km/h (3 Bft) O 95 2 min 0,000 mm 0,6 UV-I 292 W/m 4,4 C -0,1 C 20,9 km/h (4 Bft) 97,87 %
15.11.2018 10:04 4,7 C 8,3 C 5,6 C 98 % 1028,3 hPa 0,0 l/m 18,5 km/h (3 Bft) O-SO 109 2 min 0,000 mm 0,6 UV-I 296 W/m 4,4 C -2,9 C 29,0 km/h (5 Bft) 100,00 %
15.11.2018 10:06 4,7 C 8,3 C 5,6 C 98 % 1028,4 hPa 0,0 l/m 14,0 km/h (3 Bft) O-NO 74 2 min 0,000 mm 0,6 UV-I 311 W/m 4,4 C -0,8 C 19,3 km/h (3 Bft) 100,00 %
15.11.2018 10:08 4,8 C 8,3 C 6,1 C 98 % 1028,4 hPa 0,0 l/m 15,1 km/h (3 Bft) O-NO 76 2 min 0,000 mm 0,6 UV-I 306 W/m 4,5 C -1,2 C 22,5 km/h (4 Bft) 97,87 %
15.11.2018 10:10 4,9 C 8,3 C 6,1 C 98 % 1028,3 hPa 0,0 l/m 12,5 km/h (3 Bft) O 81 2 min 0,000 mm 0,6 UV-I 321 W/m 4,6 C 0,3 C 19,3 km/h (3 Bft) 95,74 %
15.11.2018 10:12 5,0 C 8,3 C 6,1 C 98 % 1028,4 hPa 0,0 l/m 12,4 km/h (3 Bft) O 93 2 min 0,000 mm 0,6 UV-I 313 W/m 4,7 C 0,5 C 17,7 km/h (3 Bft) 97,87 %
15.11.2018 10:14 5,1 C 8,3 C 6,1 C 98 % 1028,4 hPa 0,0 l/m 14,5 km/h (3 Bft) O-NO 73 2 min 0,000 mm 0,6 UV-I 320 W/m 4,8 C -0,5 C 20,9 km/h (4 Bft) 100,00 %
15.11.2018 10:16 5,2 C 8,3 C 6,7 C 98 % 1028,4 hPa 0,0 l/m 14,2 km/h (3 Bft) O-NO 74 2 min 0,000 mm 0,7 UV-I 353 W/m 4,9 C -0,3 C 20,9 km/h (4 Bft) 100,00 %
15.11.2018 10:18 5,2 C 8,3 C 6,7 C 97 % 1028,4 hPa 0,0 l/m 14,0 km/h (3 Bft) O-NO 64 2 min 0,000 mm 0,7 UV-I 357 W/m 4,8 C -0,2 C 19,3 km/h (3 Bft) 97,87 %
15.11.2018 10:20 5,3 C 8,3 C 6,7 C 98 % 1028,4 hPa 0,0 l/m 15,3 km/h (3 Bft) O-NO 67 2 min 0,000 mm 0,7 UV-I 360 W/m 5,0 C -0,7 C 25,7 km/h (4 Bft) 100,00 %
15.11.2018 10:22 5,3 C 8,3 C 6,7 C 97 % 1028,4 hPa 0,0 l/m 18,0 km/h (3 Bft) O 90 2 min 0,000 mm 0,7 UV-I 261 W/m 4,9 C -2,0 C 25,7 km/h (4 Bft) 100,00 %
15.11.2018 10:24 5,3 C 8,3 C 6,7 C 97 % 1028,4 hPa 0,0 l/m 17,8 km/h (3 Bft) O-SO 104 2 min 0,000 mm 0,6 UV-I 221 W/m 4,9 C -1,9 C 24,1 km/h (4 Bft) 97,92 %
15.11.2018 10:26 5,3 C 8,3 C 7,2 C 97 % 1028,4 hPa 0,0 l/m 15,2 km/h (3 Bft) O-SO 103 2 min 0,000 mm 0,7 UV-I 250 W/m 4,9 C -0,7 C 20,9 km/h (4 Bft) 100,00 %
15.11.2018 10:28 5,4 C 8,3 C 7,2 C 97 % 1028,4 hPa 0,0 l/m 12,8 km/h (3 Bft) O-SO 114 2 min 0,000 mm 0,7 UV-I 238 W/m 5,0 C 0,7 C 19,3 km/h (3 Bft) 100,00 %
15.11.2018 10:30 5,3 C 8,3 C 7,2 C 97 % 1028,3 hPa 0,0 l/m 12,3 km/h (3 Bft) O-NO 67 2 min 0,000 mm 0,6 UV-I 241 W/m 4,9 C 0,9 C 16,1 km/h (3 Bft) 97,87 %
15.11.2018 10:32 5,4 C 8,3 C 7,2 C 97 % 1028,3 hPa 0,0 l/m 9,5 km/h (2 Bft) O-NO 68 2 min 0,000 mm 0,6 UV-I 211 W/m 5,0 C 2,9 C 14,5 km/h (3 Bft) 97,87 %
15.11.2018 10:34 5,5 C 8,3 C 7,2 C 96 % 1028,3 hPa 0,0 l/m 13,2 km/h (3 Bft) O-NO 65 2 min 0,000 mm 0,6 UV-I 214 W/m 4,9 C 0,6 C 19,3 km/h (3 Bft) 97,37 %
15.11.2018 10:36 5,5 C 8,3 C 7,2 C 96 % 1028,3 hPa 0,0 l/m 12,1 km/h (2 Bft) O 93 2 min 0,000 mm 0,6 UV-I 217 W/m 4,9 C 1,3 C 16,1 km/h (3 Bft) 97,87 %
15.11.2018 10:38 5,6 C 8,3 C 7,8 C 96 % 1028,2 hPa 0,0 l/m 13,5 km/h (3 Bft) O 93 2 min 0,000 mm 0,7 UV-I 222 W/m 5,0 C 0,6 C 19,3 km/h (3 Bft) 96,00 %
15.11.2018 10:40 5,6 C 8,3 C 7,8 C 96 % 1028,2 hPa 0,0 l/m 14,1 km/h (3 Bft) O-NO 71 2 min 0,000 mm 0,7 UV-I 220 W/m 5,0 C 0,3 C 19,3 km/h (3 Bft) 97,87 %
15.11.2018 10:42 5,7 C 8,3 C 7,8 C 96 % 1028,2 hPa 0,0 l/m 14,3 km/h (3 Bft) O-NO 63 2 min 0,000 mm 0,7 UV-I 214 W/m 5,1 C 0,3 C 19,3 km/h (3 Bft) 97,87 %
15.11.2018 10:44 5,7 C 8,3 C 7,8 C 96 % 1028,2 hPa 0,0 l/m 14,2 km/h (3 Bft) O-NO 67 2 min 0,000 mm 0,7 UV-I 261 W/m 5,1 C 0,3 C 17,7 km/h (3 Bft) 94,00 %
15.11.2018 10:46 5,8 C 8,3 C 7,8 C 95 % 1028,2 hPa 0,0 l/m 14,6 km/h (3 Bft) O-NO 74 2 min 0,000 mm 0,7 UV-I 250 W/m 5,1 C 0,2 C 19,3 km/h (3 Bft) 95,74 %
15.11.2018 10:48 5,8 C 8,3 C 7,8 C 95 % 1028,2 hPa 0,0 l/m 15,7 km/h (3 Bft) O 93 2 min 0,000 mm 0,7 UV-I 223 W/m 5,1 C -0,3 C 24,1 km/h (4 Bft) 95,74 %
15.11.2018 10:50 5,9 C 8,3 C 7,8 C 95 % 1028,2 hPa 0,0 l/m 14,8 km/h (3 Bft) O-NO 66 2 min 0,000 mm 0,7 UV-I 229 W/m 5,2 C 0,3 C 22,5 km/h (4 Bft) 93,62 %
15.11.2018 10:52 6,0 C 8,3 C 7,8 C 95 % 1028,1 hPa 0,0 l/m 15,9 km/h (3 Bft) O-SO 109 2 min 0,000 mm 0,7 UV-I 244 W/m 5,3 C -0,1 C 19,3 km/h (3 Bft) 97,56 %
15.11.2018 10:54 6,1 C 8,3 C 7,8 C 94 % 1028,1 hPa 0,0 l/m 16,5 km/h (3 Bft) O-NO 64 2 min 0,000 mm 0,7 UV-I 245 W/m 5,2 C -0,3 C 24,1 km/h (4 Bft) 97,87 %
15.11.2018 10:56 6,1 C 8,3 C 7,8 C 94 % 1028,1 hPa 0,0 l/m 14,3 km/h (3 Bft) O 81 2 min 0,000 mm 0,7 UV-I 248 W/m 5,2 C 0,8 C 20,9 km/h (4 Bft) 98,00 %
15.11.2018 10:58 6,2 C 8,3 C 8,3 C 93 % 1028,1 hPa 0,0 l/m 13,5 km/h (3 Bft) O 79 2 min 0,000 mm 0,7 UV-I 251 W/m 5,2 C 1,3 C 17,7 km/h (3 Bft) 100,00 %
15.11.2018 11:00 6,3 C 8,3 C 8,3 C 93 % 1028,1 hPa 0,0 l/m 15,4 km/h (3 Bft) O-NO 57 2 min 0,101 mm 0,7 UV-I 234 W/m 5,3 C 0,5 C 22,5 km/h (4 Bft) 97,87 %
15.11.2018 11:02 6,3 C 8,3 C 8,3 C 93 % 1028,0 hPa 0,0 l/m 14,0 km/h (3 Bft) NO 51 2 min 0,000 mm 0,7 UV-I 300 W/m 5,3 C 1,2 C 20,9 km/h (4 Bft) 97,87 %
15.11.2018 11:04 6,4 C 8,3 C 8,3 C 92 % 1028,0 hPa 0,0 l/m 15,5 km/h (3 Bft) O-NO 68 2 min 0,000 mm 0,7 UV-I 278 W/m 5,2 C 0,5 C 22,5 km/h (4 Bft) 97,92 %
15.11.2018 11:06 6,4 C 8,3 C 8,3 C 92 % 1028,0 hPa 0,0 l/m 17,0 km/h (3 Bft) O-NO 75 2 min 0,000 mm 0,8 UV-I 262 W/m 5,2 C -0,1 C 22,5 km/h (4 Bft) 97,87 %
15.11.2018 11:08 6,6 C 8,3 C 8,9 C 92 % 1028,0 hPa 0,0 l/m 16,8 km/h (3 Bft) O-NO 70 2 min 0,000 mm 0,8 UV-I 274 W/m 5,4 C 0,2 C 24,1 km/h (4 Bft) 95,74 %
15.11.2018 11:10 6,7 C 8,3 C 8,3 C 91 % 1028,0 hPa 0,0 l/m 19,9 km/h (4 Bft) NO 49 2 min 0,000 mm 0,8 UV-I 277 W/m 5,3 C -0,9 C 27,4 km/h (4 Bft) 97,87 %
15.11.2018 11:12 6,7 C 8,3 C 8,3 C 91 % 1028,0 hPa 0,0 l/m 13,7 km/h (3 Bft) O-NO 57 2 min 0,000 mm 0,7 UV-I 221 W/m 5,3 C 1,8 C 17,7 km/h (3 Bft) 97,56 %
15.11.2018 11:14 6,7 C 8,3 C 8,3 C 90 % 1027,9 hPa 0,0 l/m 11,9 km/h (2 Bft) O 97 2 min 0,000 mm 0,8 UV-I 226 W/m 5,2 C 2,8 C 20,9 km/h (4 Bft) 97,87 %
15.11.2018 11:16 6,8 C 8,3 C 8,3 C 90 % 1027,9 hPa 0,0 l/m 12,4 km/h (3 Bft) O-NO 61 2 min 0,000 mm 0,8 UV-I 299 W/m 5,3 C 2,6 C 17,7 km/h (3 Bft) 93,62 %
15.11.2018 11:18 6,8 C 8,3 C 8,9 C 90 % 1027,9 hPa 0,0 l/m 13,7 km/h (3 Bft) NO 50 2 min 0,000 mm 0,8 UV-I 308 W/m 5,3 C 1,9 C 17,7 km/h (3 Bft) 96,00 %
15.11.2018 11:20 7,0 C 8,3 C 9,4 C 89 % 1027,9 hPa 0,0 l/m 14,4 km/h (3 Bft) O 82 2 min 0,000 mm 0,8 UV-I 426 W/m 5,3 C 1,8 C 22,5 km/h (4 Bft) 97,87 %
15.11.2018 11:22 7,1 C 8,3 C 8,9 C 88 % 1027,9 hPa 0,0 l/m 21,1 km/h (4 Bft) O-SO 103 2 min 0,000 mm 0,8 UV-I 373 W/m 5,2 C -0,9 C 30,6 km/h (5 Bft) 97,87 %
15.11.2018 11:24 7,2 C 8,3 C 9,4 C 88 % 1027,9 hPa 0,0 l/m 16,6 km/h (3 Bft) O-NO 60 2 min 0,000 mm 0,8 UV-I 285 W/m 5,3 C 1,0 C 20,9 km/h (4 Bft) 97,87 %
15.11.2018 11:26 7,3 C 8,3 C 9,4 C 88 % 1027,9 hPa 0,0 l/m 17,1 km/h (3 Bft) O-NO 77 2 min 0,000 mm 0,8 UV-I 278 W/m 5,4 C 0,9 C 24,1 km/h (4 Bft) 97,87 %
15.11.2018 11:28 7,3 C 8,3 C 9,4 C 87 % 1027,9 hPa 0,0 l/m 17,9 km/h (3 Bft) O 84 2 min 0,000 mm 0,8 UV-I 274 W/m 5,3 C 0,6 C 27,4 km/h (4 Bft) 97,56 %
15.11.2018 11:30 7,3 C 8,3 C 9,4 C 86 % 1027,8 hPa 0,0 l/m 21,8 km/h (4 Bft) O 81 2 min 0,000 mm 0,8 UV-I 323 W/m 5,1 C -0,8 C 29,0 km/h (5 Bft) 97,87 %
15.11.2018 11:32 7,3 C 8,3 C 9,4 C 85 % 1027,8 hPa 0,0 l/m 19,5 km/h (3 Bft) O 89 2 min 0,000 mm 0,9 UV-I 345 W/m 4,9 C -0,0 C 27,4 km/h (4 Bft) 97,87 %
15.11.2018 11:34 7,3 C 8,9 C 9,4 C 85 % 1027,8 hPa 0,0 l/m 18,6 km/h (3 Bft) O-NO 61 2 min 0,000 mm 0,8 UV-I 343 W/m 4,9 C 0,3 C 24,1 km/h (4 Bft) 94,00 %
15.11.2018 11:36 7,3 C 8,3 C 9,4 C 85 % 1027,8 hPa 0,0 l/m 21,1 km/h (4 Bft) O-NO 70 2 min 0,000 mm 0,8 UV-I 303 W/m 4,9 C -0,6 C 27,4 km/h (4 Bft) 95,74 %
15.11.2018 11:38 7,3 C 8,9 C 9,4 C 84 % 1027,8 hPa 0,0 l/m 21,1 km/h (4 Bft) O 82 2 min 0,000 mm 0,8 UV-I 278 W/m 4,8 C -0,6 C 32,2 km/h (5 Bft) 100,00 %
15.11.2018 11:40 7,4 C 8,3 C 9,4 C 84 % 1027,7 hPa 0,0 l/m 20,1 km/h (4 Bft) O-NO 77 2 min 0,000 mm 0,9 UV-I 330 W/m 4,9 C -0,1 C 27,4 km/h (4 Bft) 100,00 %
15.11.2018 11:42 7,4 C 8,9 C 9,4 C 83 % 1027,7 hPa 0,0 l/m 19,3 km/h (3 Bft) O 95 2 min 0,000 mm 0,8 UV-I 287 W/m 4,7 C 0,2 C 24,1 km/h (4 Bft) 97,87 %
15.11.2018 11:44 7,4 C 8,9 C 10,0 C 83 % 1027,8 hPa 0,0 l/m 16,0 km/h (3 Bft) O-NO 68 2 min 0,000 mm 0,9 UV-I 358 W/m 4,7 C 1,5 C 24,1 km/h (4 Bft) 100,00 %
15.11.2018 11:46 7,6 C 8,3 C 10,6 C 83 % 1027,7 hPa 0,0 l/m 18,2 km/h (3 Bft) O-NO 68 2 min 0,000 mm 0,9 UV-I 439 W/m 4,9 C 0,9 C 24,1 km/h (4 Bft) 100,00 %
15.11.2018 11:48 7,7 C 8,3 C 10,6 C 84 % 1027,7 hPa 0,0 l/m 15,1 km/h (3 Bft) O-NO 65 2 min 0,000 mm 0,9 UV-I 448 W/m 5,2 C 2,3 C 20,9 km/h (4 Bft) 96,00 %
15.11.2018 11:50 7,8 C 8,9 C 10,6 C 84 % 1027,7 hPa 0,0 l/m 14,7 km/h (3 Bft) O 80 2 min 0,000 mm 0,8 UV-I 336 W/m 5,3 C 2,6 C 20,9 km/h (4 Bft) 97,37 %
15.11.2018 11:52 7,8 C 8,9 C 10,6 C 83 % 1027,7 hPa 0,0 l/m 17,3 km/h (3 Bft) O 94 2 min 0,000 mm 0,8 UV-I 313 W/m 5,1 C 1,5 C 24,1 km/h (4 Bft) 94,00 %
15.11.2018 11:54 7,8 C 8,9 C 11,1 C 83 % 1027,7 hPa 0,0 l/m 16,3 km/h (3 Bft) NO 53 2 min 0,000 mm 0,8 UV-I 315 W/m 5,1 C 1,9 C 24,1 km/h (4 Bft) 96,00 %
15.11.2018 11:56 7,8 C 8,3 C 10,6 C 83 % 1027,6 hPa 0,0 l/m 14,7 km/h (3 Bft) O-NO 78 2 min 0,000 mm 0,8 UV-I 300 W/m 5,1 C 2,6 C 20,9 km/h (4 Bft) 95,74 %
15.11.2018 11:58 7,8 C 8,3 C 10,6 C 83 % 1027,7 hPa 0,0 l/m 16,5 km/h (3 Bft) O-NO 75 0 min 0,000 mm 0,7 UV-I 215 W/m 5,1 C 1,8 C 20,9 km/h (4 Bft) 98,00 %
15.11.2018 12:00 7,8 C 8,3 C 10,0 C 82 % 1027,6 hPa 0,0 l/m 15,1 km/h (3 Bft) O-NO 76 0 min 0,153 mm 0,7 UV-I 195 W/m 4,9 C 2,4 C 20,9 km/h (4 Bft) 97,87 %
15.11.2018 12:02 7,7 C 8,3 C 10,0 C 83 % 1027,6 hPa 0,0 l/m 14,1 km/h (3 Bft) NO 55 0 min 0,000 mm 0,7 UV-I 186 W/m 5,0 C 2,8 C 19,3 km/h (3 Bft) 97,87 %
15.11.2018 12:04 7,6 C 8,3 C 10,0 C 83 % 1027,6 hPa 0,0 l/m 16,6 km/h (3 Bft) O 83 0 min 0,000 mm 0,7 UV-I 196 W/m 4,9 C 1,5 C 20,9 km/h (4 Bft) 97,14 %
15.11.2018 12:06 7,6 C 8,9 C 10,0 C 84 % 1027,6 hPa 0,0 l/m 13,0 km/h (3 Bft) O-NO 60 2 min 0,000 mm 0,8 UV-I 233 W/m 5,1 C 3,2 C 19,3 km/h (3 Bft) 98,00 %
15.11.2018 12:08 7,6 C 8,3 C 10,0 C 85 % 1027,5 hPa 0,0 l/m 12,8 km/h (3 Bft) O-NO 71 0 min 0,000 mm 0,7 UV-I 209 W/m 5,2 C 3,3 C 20,9 km/h (4 Bft) 97,87 %
15.11.2018 12:10 7,5 C 8,3 C 10,0 C 85 % 1027,5 hPa 0,0 l/m 7,4 km/h (2 Bft) NO 44 0 min 0,000 mm 0,7 UV-I 201 W/m 5,1 C 6,7 C 9,7 km/h (2 Bft) 100,00 %
15.11.2018 12:12 7,6 C 8,3 C 10,0 C 85 % 1027,5 hPa 0,0 l/m 11,6 km/h (2 Bft) O 89 0 min 0,000 mm 0,7 UV-I 207 W/m 5,2 C 4,0 C 19,3 km/h (3 Bft) 96,00 %
15.11.2018 12:14 7,6 C 8,3 C 9,4 C 85 % 1027,4 hPa 0,0 l/m 9,8 km/h (2 Bft) O-NO 71 0 min 0,000 mm 0,7 UV-I 203 W/m 5,2 C 5,1 C 12,9 km/h (3 Bft) 97,87 %
15.11.2018 12:16 7,6 C 8,9 C 9,4 C 85 % 1027,4 hPa 0,0 l/m 11,7 km/h (2 Bft) NO 56 0 min 0,000 mm 0,7 UV-I 151 W/m 5,2 C 3,9 C 17,7 km/h (3 Bft) 95,83 %
15.11.2018 12:18 7,5 C 8,3 C 8,9 C 85 % 1027,4 hPa 0,0 l/m 10,3 km/h (2 Bft) O-NO 74 0 min 0,000 mm 0,7 UV-I 133 W/m 5,1 C 4,6 C 16,1 km/h (3 Bft) 100,00 %
15.11.2018 12:20 7,4 C 8,9 C 8,9 C 85 % 1027,3 hPa 0,0 l/m 11,0 km/h (2 Bft) O-NO 76 0 min 0,000 mm 0,7 UV-I 125 W/m 5,0 C 4,1 C 16,1 km/h (3 Bft) 100,00 %
15.11.2018 12:22 7,4 C 8,3 C 8,3 C 85 % 1027,3 hPa 0,0 l/m 11,1 km/h (2 Bft) O 88 0 min 0,000 mm 0,7 UV-I 121 W/m 5,0 C 4,0 C 17,7 km/h (3 Bft) 97,87 %
15.11.2018 12:24 7,4 C 8,3 C 8,3 C 85 % 1027,3 hPa 0,0 l/m 10,0 km/h (2 Bft) O-NO 76 0 min 0,000 mm 0,7 UV-I 130 W/m 5,0 C 4,7 C 16,1 km/h (3 Bft) 100,00 %
15.11.2018 12:26 7,4 C 8,9 C 8,9 C 86 % 1027,2 hPa 0,0 l/m 9,1 km/h (2 Bft) O-NO 62 0 min 0,000 mm 0,8 UV-I 161 W/m 5,2 C 5,3 C 14,5 km/h (3 Bft) 100,00 %
15.11.2018 12:28 7,7 C 8,9 C 9,4 C 86 % 1027,2 hPa 0,0 l/m 10,8 km/h (2 Bft) NO 55 2 min 0,000 mm 0,8 UV-I 426 W/m 5,5 C 4,6 C 19,3 km/h (3 Bft) 100,00 %
15.11.2018 12:30 7,9 C 8,9 C 10,0 C 86 % 1027,2 hPa 0,0 l/m 12,9 km/h (3 Bft) O-NO 71 2 min 0,000 mm 0,8 UV-I 407 W/m 5,7 C 3,6 C 19,3 km/h (3 Bft) 100,00 %
15.11.2018 12:32 8,2 C 8,9 C 10,0 C 85 % 1027,2 hPa 0,0 l/m 10,8 km/h (2 Bft) NO 46 2 min 0,000 mm 0,8 UV-I 408 W/m 5,8 C 5,1 C 17,7 km/h (3 Bft) 97,87 %
15.11.2018 12:34 8,2 C 8,3 C 9,4 C 84 % 1027,1 hPa 0,0 l/m 14,7 km/h (3 Bft) O 82 0 min 0,000 mm 0,7 UV-I 168 W/m 5,7 C 3,1 C 20,9 km/h (4 Bft) 100,00 %
15.11.2018 12:36 8,2 C 8,3 C 9,4 C 83 % 1027,0 hPa 0,0 l/m 13,8 km/h (3 Bft) O-SO 106 0 min 0,000 mm 0,7 UV-I 171 W/m 5,5 C 3,5 C 19,3 km/h (3 Bft) 100,00 %
15.11.2018 12:38 8,1 C 8,9 C 8,9 C 82 % 1027,0 hPa 0,0 l/m 10,7 km/h (2 Bft) NO 55 0 min 0,000 mm 0,7 UV-I 158 W/m 5,2 C 5,1 C 16,1 km/h (3 Bft) 98,00 %
15.11.2018 12:40 8,2 C 8,9 C 8,9 C 82 % 1027,0 hPa 0,0 l/m 11,4 km/h (2 Bft) O 82 0 min 0,000 mm 0,7 UV-I 138 W/m 5,3 C 4,8 C 19,3 km/h (3 Bft) 100,00 %
15.11.2018 12:42 8,2 C 8,3 C 8,3 C 82 % 1027,0 hPa 0,0 l/m 11,9 km/h (2 Bft) O-NO 65 0 min 0,000 mm 0,7 UV-I 124 W/m 5,3 C 4,5 C 20,9 km/h (4 Bft) 97,87 %
15.11.2018 12:44 8,3 C 8,3 C 8,3 C 80 % 1027,0 hPa 0,0 l/m 18,8 km/h (3 Bft) NO 48 2 min 0,000 mm 0,7 UV-I 296 W/m 5,1 C 1,5 C 25,7 km/h (4 Bft) 100,00 %
15.11.2018 12:46 8,4 C 8,9 C 8,9 C 80 % 1027,0 hPa 0,0 l/m 17,9 km/h (3 Bft) O-NO 74 2 min 0,000 mm 0,8 UV-I 349 W/m 5,2 C 2,0 C 22,5 km/h (4 Bft) 98,00 %
15.11.2018 12:48 8,6 C 8,3 C 9,4 C 79 % 1027,1 hPa 0,0 l/m 17,6 km/h (3 Bft) O 85 2 min 0,000 mm 0,8 UV-I 354 W/m 5,2 C 2,4 C 27,4 km/h (4 Bft) 95,74 %
15.11.2018 12:50 8,7 C 8,9 C 9,4 C 78 % 1027,0 hPa 0,0 l/m 20,8 km/h (4 Bft) O-NO 74 2 min 0,000 mm 0,8 UV-I 306 W/m 5,1 C 1,3 C 29,0 km/h (5 Bft) 97,87 %
15.11.2018 12:52 8,8 C 8,9 C 9,4 C 77 % 1027,0 hPa 0,0 l/m 17,3 km/h (3 Bft) O 82 2 min 0,000 mm 0,8 UV-I 331 W/m 5,0 C 2,7 C 25,7 km/h (4 Bft) 98,00 %
15.11.2018 12:54 8,8 C 8,9 C 9,4 C 76 % 1027,0 hPa 0,0 l/m 17,8 km/h (3 Bft) O-NO 62 2 min 0,000 mm 0,7 UV-I 294 W/m 4,8 C 2,5 C 22,5 km/h (4 Bft) 93,62 %
15.11.2018 12:56 8,8 C 8,9 C 9,4 C 76 % 1027,0 hPa 0,0 l/m 17,2 km/h (3 Bft) O 90 2 min 0,000 mm 0,8 UV-I 341 W/m 4,8 C 2,8 C 24,1 km/h (4 Bft) 91,49 %
15.11.2018 12:58 8,9 C 8,3 C 9,4 C 76 % 1026,9 hPa 0,0 l/m 16,2 km/h (3 Bft) O-SO 103 2 min 0,000 mm 0,7 UV-I 337 W/m 4,9 C 3,3 C 22,5 km/h (4 Bft) 93,75 %
15.11.2018 13:00 8,9 C 8,9 C 9,4 C 76 % 1026,9 hPa 0,0 l/m 18,8 km/h (3 Bft) O 90 2 min 0,127 mm 0,7 UV-I 338 W/m 4,9 C 2,3 C 25,7 km/h (4 Bft) 94,74 %
15.11.2018 13:02 9,0 C 8,3 C 10,0 C 76 % 1026,9 hPa 0,0 l/m 13,5 km/h (3 Bft) O 97 2 min 0,000 mm 0,7 UV-I 337 W/m 5,0 C 4,6 C 24,1 km/h (4 Bft) 93,62 %
15.11.2018 13:04 9,1 C 8,3 C 10,0 C 75 % 1026,9 hPa 0,0 l/m 18,8 km/h (3 Bft) O 98 2 min 0,000 mm 0,7 UV-I 330 W/m 4,9 C 2,5 C 29,0 km/h (5 Bft) 96,00 %
15.11.2018 13:06 9,1 C 8,9 C 10,0 C 75 % 1026,8 hPa 0,0 l/m 16,5 km/h (3 Bft) O-NO 64 2 min 0,000 mm 0,7 UV-I 332 W/m 4,9 C 3,4 C 24,1 km/h (4 Bft) 94,00 %
15.11.2018 13:08 9,1 C 8,9 C 10,0 C 75 % 1026,8 hPa 0,0 l/m 17,1 km/h (3 Bft) O 85 2 min 0,000 mm 0,7 UV-I 331 W/m 4,9 C 3,2 C 22,5 km/h (4 Bft) 91,30 %
15.11.2018 13:10 9,2 C 8,9 C 10,0 C 75 % 1026,8 hPa 0,0 l/m 20,6 km/h (4 Bft) O-NO 73 2 min 0,000 mm 0,7 UV-I 330 W/m 5,0 C 2,1 C 29,0 km/h (5 Bft) 91,94 %
15.11.2018 13:12 9,2 C 8,3 C 10,0 C 75 % 1026,9 hPa 0,0 l/m 15,8 km/h (3 Bft) O 84 2 min 0,000 mm 0,7 UV-I 333 W/m 5,0 C 3,8 C 20,9 km/h (4 Bft) 93,62 %
15.11.2018 13:14 9,3 C 8,9 C 10,0 C 74 % 1026,7 hPa 0,0 l/m 17,7 km/h (3 Bft) O 87 2 min 0,000 mm 0,7 UV-I 336 W/m 4,9 C 3,2 C 29,0 km/h (5 Bft) 92,00 %
15.11.2018 13:16 9,3 C 8,9 C 10,6 C 74 % 1026,8 hPa 0,0 l/m 17,7 km/h (3 Bft) O 85 2 min 0,000 mm 0,7 UV-I 334 W/m 4,9 C 3,2 C 24,1 km/h (4 Bft) 91,49 %
15.11.2018 13:18 9,4 C 8,9 C 10,6 C 74 % 1026,7 hPa 0,0 l/m 18,9 km/h (3 Bft) O 94 2 min 0,000 mm 0,7 UV-I 336 W/m 5,0 C 2,9 C 30,6 km/h (5 Bft) 93,62 %
15.11.2018 13:20 9,5 C 8,9 C 10,6 C 73 % 1026,7 hPa 0,0 l/m 17,7 km/h (3 Bft) O 84 2 min 0,000 mm 0,7 UV-I 336 W/m 4,9 C 3,4 C 29,0 km/h (5 Bft) 90,00 %
15.11.2018 13:22 9,6 C 8,9 C 10,6 C 74 % 1026,7 hPa 0,0 l/m 16,7 km/h (3 Bft) NO 56 2 min 0,000 mm 0,7 UV-I 335 W/m 5,2 C 4,0 C 22,5 km/h (4 Bft) 95,74 %
15.11.2018 13:24 9,7 C 8,9 C 11,1 C 73 % 1026,6 hPa 0,0 l/m 18,7 km/h (3 Bft) O-NO 71 2 min 0,000 mm 0,7 UV-I 336 W/m 5,1 C 3,3 C 25,7 km/h (4 Bft) 95,74 %
15.11.2018 13:26 9,8 C 8,9 C 10,6 C 72 % 1026,6 hPa 0,0 l/m 18,7 km/h (3 Bft) O-NO 76 2 min 0,000 mm 0,7 UV-I 339 W/m 5,0 C 3,5 C 25,7 km/h (4 Bft) 95,74 %
15.11.2018 13:28 9,9 C 8,9 C 11,1 C 71 % 1026,6 hPa 0,0 l/m 22,6 km/h (4 Bft) O-NO 62 2 min 0,000 mm 0,6 UV-I 342 W/m 4,9 C 2,4 C 32,2 km/h (5 Bft) 97,87 %
15.11.2018 13:30 9,9 C 8,9 C 11,1 C 70 % 1026,6 hPa 0,0 l/m 23,2 km/h (4 Bft) O 89 2 min 0,000 mm 0,6 UV-I 337 W/m 4,7 C 2,2 C 30,6 km/h (5 Bft) 95,74 %
15.11.2018 13:32 9,9 C 8,9 C 10,6 C 69 % 1026,6 hPa 0,0 l/m 25,3 km/h (4 Bft) O-SO 111 2 min 0,000 mm 0,6 UV-I 336 W/m 4,5 C 1,6 C 32,2 km/h (5 Bft) 97,87 %
15.11.2018 13:34 9,9 C 8,9 C 10,6 C 69 % 1026,7 hPa 0,0 l/m 22,2 km/h (4 Bft) O-NO 78 2 min 0,000 mm 0,6 UV-I 331 W/m 4,5 C 2,5 C 29,0 km/h (5 Bft) 94,87 %
15.11.2018 13:36 9,9 C 8,9 C 11,1 C 69 % 1026,6 hPa 0,0 l/m 20,5 km/h (4 Bft) O 87 2 min 0,000 mm 0,6 UV-I 338 W/m 4,5 C 3,0 C 30,6 km/h (5 Bft) 98,00 %
15.11.2018 13:38 9,9 C 8,9 C 11,1 C 69 % 1026,7 hPa 0,0 l/m 25,1 km/h (4 Bft) O 82 2 min 0,000 mm 0,6 UV-I 336 W/m 4,5 C 1,7 C 32,2 km/h (5 Bft) 97,87 %
15.11.2018 13:40 9,9 C 8,9 C 11,1 C 68 % 1026,7 hPa 0,0 l/m 23,4 km/h (4 Bft) O 88 2 min 0,000 mm 0,6 UV-I 339 W/m 4,3 C 2,1 C 35,4 km/h (5 Bft) 95,74 %
15.11.2018 13:42 10,0 C 8,9 C 11,1 C 68 % 1026,7 hPa 0,0 l/m 22,6 km/h (4 Bft) O 89 2 min 0,000 mm 0,6 UV-I 343 W/m 4,4 C 2,5 C 30,6 km/h (5 Bft) 95,74 %
15.11.2018 13:44 10,0 C 8,9 C 11,1 C 68 % 1026,6 hPa 0,0 l/m 21,8 km/h (4 Bft) O-SO 102 2 min 0,000 mm 0,6 UV-I 337 W/m 4,4 C 2,7 C 30,6 km/h (5 Bft) 95,74 %
15.11.2018 13:46 10,1 C 8,9 C 11,1 C 68 % 1026,6 hPa 0,0 l/m 22,4 km/h (4 Bft) O-SO 116 2 min 0,000 mm 0,5 UV-I 326 W/m 4,5 C 2,7 C 32,2 km/h (5 Bft) 98,00 %
15.11.2018 13:48 10,1 C 8,9 C 11,1 C 67 % 1026,5 hPa 0,0 l/m 22,3 km/h (4 Bft) O-NO 76 2 min 0,000 mm 0,5 UV-I 315 W/m 4,3 C 2,7 C 32,2 km/h (5 Bft) 95,74 %
15.11.2018 13:50 10,1 C 8,9 C 11,1 C 67 % 1026,5 hPa 0,0 l/m 24,6 km/h (4 Bft) O-NO 64 2 min 0,000 mm 0,5 UV-I 309 W/m 4,3 C 2,1 C 35,4 km/h (5 Bft) 92,00 %
15.11.2018 13:52 10,0 C 8,9 C 10,6 C 67 % 1026,5 hPa 0,0 l/m 24,1 km/h (4 Bft) O 80 2 min 0,000 mm 0,5 UV-I 310 W/m 4,2 C 2,1 C 33,8 km/h (5 Bft) 92,11 %
15.11.2018 13:54 9,9 C 8,9 C 10,6 C 66 % 1026,4 hPa 0,0 l/m 23,2 km/h (4 Bft) O 92 2 min 0,000 mm 0,5 UV-I 288 W/m 3,9 C 2,2 C 30,6 km/h (5 Bft) 98,00 %
15.11.2018 13:56 9,9 C 8,9 C 10,6 C 66 % 1026,5 hPa 0,0 l/m 27,8 km/h (4 Bft) O 84 2 min 0,000 mm 0,5 UV-I 287 W/m 3,9 C 1,0 C 38,6 km/h (5 Bft) 98,00 %
15.11.2018 13:58 9,9 C 8,9 C 10,6 C 66 % 1026,5 hPa 0,0 l/m 22,8 km/h (4 Bft) O 82 2 min 0,000 mm 0,5 UV-I 281 W/m 3,9 C 2,3 C 30,6 km/h (5 Bft) 95,74 %
15.11.2018 14:00 9,9 C 8,9 C 10,6 C 67 % 1026,5 hPa 0,0 l/m 23,5 km/h (4 Bft) O 101 2 min 0,203 mm 0,5 UV-I 279 W/m 4,1 C 2,1 C 30,6 km/h (5 Bft) 97,87 %
15.11.2018 14:02 10,0 C 8,9 C 10,6 C 66 % 1026,5 hPa 0,0 l/m 21,8 km/h (4 Bft) O 81 2 min 0,000 mm 0,5 UV-I 279 W/m 3,9 C 2,7 C 30,6 km/h (5 Bft) 95,74 %
15.11.2018 14:04 10,0 C 8,9 C 10,6 C 65 % 1026,4 hPa 0,0 l/m 21,3 km/h (4 Bft) NO 49 2 min 0,000 mm 0,5 UV-I 278 W/m 3,7 C 2,9 C 33,8 km/h (5 Bft) 94,74 %
15.11.2018 14:06 10,1 C 8,9 C 10,6 C 67 % 1026,4 hPa 0,0 l/m 20,1 km/h (4 Bft) O 99 2 min 0,000 mm 0,3 UV-I 280 W/m 4,3 C 3,4 C 27,4 km/h (4 Bft) 97,92 %
15.11.2018 14:08 10,1 C 8,9 C 11,1 C 66 % 1026,4 hPa 0,0 l/m 21,3 km/h (4 Bft) O 97 2 min 0,000 mm 0,0 UV-I 279 W/m 4,0 C 3,0 C 27,4 km/h (4 Bft) 95,74 %
15.11.2018 14:10 10,1 C 8,9 C 11,1 C 65 % 1026,4 hPa 0,0 l/m 22,2 km/h (4 Bft) O 94 2 min 0,000 mm 0,0 UV-I 278 W/m 3,8 C 2,7 C 30,6 km/h (5 Bft) 95,74 %
15.11.2018 14:12 10,0 C 8,9 C 11,1 C 65 % 1026,4 hPa 0,0 l/m 20,1 km/h (4 Bft) O-SO 110 2 min 0,000 mm 0,0 UV-I 278 W/m 3,7 C 3,3 C 30,6 km/h (5 Bft) 95,74 %
15.11.2018 14:14 10,1 C 8,9 C 10,6 C 65 % 1026,4 hPa 0,0 l/m 23,3 km/h (4 Bft) O 91 2 min 0,000 mm 0,0 UV-I 278 W/m 3,8 C 2,4 C 30,6 km/h (5 Bft) 97,87 %
15.11.2018 14:16 10,0 C 8,9 C 10,6 C 65 % 1026,4 hPa 0,0 l/m 24,2 km/h (4 Bft) O 84 2 min 0,000 mm 0,0 UV-I 272 W/m 3,7 C 2,0 C 32,2 km/h (5 Bft) 98,00 %
15.11.2018 14:18 10,0 C 8,9 C 10,6 C 65 % 1026,4 hPa 0,0 l/m 20,4 km/h (4 Bft) O 79 2 min 0,000 mm 0,0 UV-I 272 W/m 3,7 C 3,2 C 29,0 km/h (5 Bft) 97,87 %
15.11.2018 14:20 10,0 C 8,9 C 10,0 C 66 % 1026,4 hPa 0,0 l/m 19,1 km/h (3 Bft) NO 56 2 min 0,000 mm 0,0 UV-I 267 W/m 3,9 C 3,6 C 27,4 km/h (4 Bft) 96,00 %
15.11.2018 14:22 10,1 C 8,9 C 10,0 C 66 % 1026,4 hPa 0,0 l/m 18,6 km/h (3 Bft) O 87 2 min 0,000 mm 0,0 UV-I 259 W/m 4,0 C 3,9 C 25,7 km/h (4 Bft) 97,87 %
15.11.2018 14:24 10,1 C 8,9 C 10,0 C 66 % 1026,4 hPa 0,0 l/m 18,2 km/h (3 Bft) O-NO 75 2 min 0,000 mm 0,0 UV-I 246 W/m 4,0 C 4,0 C 27,4 km/h (4 Bft) 95,74 %
15.11.2018 14:26 10,1 C 8,9 C 10,0 C 66 % 1026,5 hPa 0,0 l/m 17,6 km/h (3 Bft) O 79 2 min 0,000 mm 0,0 UV-I 239 W/m 4,0 C 4,2 C 27,4 km/h (4 Bft) 94,74 %
15.11.2018 14:28 10,0 C 8,9 C 10,0 C 65 % 1026,5 hPa 0,0 l/m 18,5 km/h (3 Bft) O 82 2 min 0,000 mm 0,0 UV-I 236 W/m 3,7 C 3,8 C 24,1 km/h (4 Bft) 95,74 %
15.11.2018 14:30 10,0 C 8,9 C 9,4 C 65 % 1026,5 hPa 0,0 l/m 16,9 km/h (3 Bft) SO 132 2 min 0,000 mm 0,0 UV-I 231 W/m 3,7 C 4,4 C 24,1 km/h (4 Bft) 93,62 %
15.11.2018 14:32 10,0 C 8,9 C 9,4 C 65 % 1026,5 hPa 0,0 l/m 19,6 km/h (3 Bft) O-SO 105 2 min 0,000 mm 0,0 UV-I 225 W/m 3,7 C 3,4 C 27,4 km/h (4 Bft) 95,74 %
15.11.2018 14:34 10,0 C 8,9 C 9,4 C 65 % 1026,5 hPa 0,0 l/m 19,9 km/h (4 Bft) O-SO 103 2 min 0,000 mm 0,0 UV-I 212 W/m 3,7 C 3,3 C 25,7 km/h (4 Bft) 95,74 %
15.11.2018 14:36 9,9 C 8,9 C 9,4 C 64 % 1026,5 hPa 0,0 l/m 22,3 km/h (4 Bft) O 97 2 min 0,000 mm 0,0 UV-I 185 W/m 3,4 C 2,4 C 33,8 km/h (5 Bft) 93,62 %
15.11.2018 14:38 9,8 C 8,9 C 9,4 C 64 % 1026,5 hPa 0,0 l/m 23,8 km/h (4 Bft) O 88 2 min 0,000 mm 0,0 UV-I 170 W/m 3,3 C 1,9 C 30,6 km/h (5 Bft) 93,62 %
15.11.2018 14:40 9,8 C 8,9 C 9,4 C 64 % 1026,5 hPa 0,0 l/m 19,8 km/h (3 Bft) O 88 2 min 0,000 mm 0,0 UV-I 151 W/m 3,3 C 3,1 C 30,6 km/h (5 Bft) 93,62 %
15.11.2018 14:42 9,7 C 8,9 C 9,4 C 65 % 1026,5 hPa 0,0 l/m 21,8 km/h (4 Bft) O-SO 117 0 min 0,000 mm 0,0 UV-I 122 W/m 3,4 C 2,3 C 30,6 km/h (5 Bft) 93,75 %
15.11.2018 14:44 9,7 C 8,9 C 8,9 C 65 % 1026,5 hPa 0,0 l/m 21,0 km/h (4 Bft) O 96 2 min 0,000 mm 0,0 UV-I 134 W/m 3,4 C 2,6 C 30,6 km/h (5 Bft) 92,00 %
15.11.2018 14:46 9,7 C 8,9 C 8,9 C 65 % 1026,6 hPa 0,0 l/m 19,3 km/h (3 Bft) O-NO 74 2 min 0,000 mm 0,0 UV-I 144 W/m 3,4 C 3,1 C 29,0 km/h (5 Bft) 91,49 %
15.11.2018 14:48 9,7 C 8,9 C 8,9 C 66 % 1026,5 hPa 0,0 l/m 19,1 km/h (3 Bft) O-NO 59 2 min 0,000 mm 0,0 UV-I 170 W/m 3,7 C 3,2 C 27,4 km/h (4 Bft) 94,23 %
15.11.2018 14:50 9,7 C 8,9 C 8,9 C 66 % 1026,6 hPa 0,0 l/m 19,8 km/h (3 Bft) O 82 2 min 0,000 mm 0,0 UV-I 192 W/m 3,7 C 3,0 C 29,0 km/h (5 Bft) 95,83 %
15.11.2018 14:52 9,7 C 8,9 C 8,9 C 65 % 1026,5 hPa 0,0 l/m 19,1 km/h (3 Bft) O 100 2 min 0,000 mm 0,0 UV-I 194 W/m 3,4 C 3,2 C 25,7 km/h (4 Bft) 97,14 %
15.11.2018 14:54 9,7 C 8,9 C 8,9 C 65 % 1026,6 hPa 0,0 l/m 20,7 km/h (4 Bft) O 81 2 min 0,000 mm 0,0 UV-I 188 W/m 3,4 C 2,7 C 30,6 km/h (5 Bft) 89,13 %
15.11.2018 14:56 9,7 C 8,9 C 8,9 C 66 % 1026,5 hPa 0,0 l/m 20,3 km/h (4 Bft) O-NO 63 2 min 0,000 mm 0,0 UV-I 183 W/m 3,7 C 2,8 C 27,4 km/h (4 Bft) 96,00 %
15.11.2018 14:58 9,7 C 8,9 C 8,9 C 65 % 1026,6 hPa 0,0 l/m 21,3 km/h (4 Bft) O 101 2 min 0,000 mm 0,0 UV-I 179 W/m 3,4 C 2,5 C 33,8 km/h (5 Bft) 95,74 %
15.11.2018 15:00 9,7 C 8,9 C 8,9 C 66 % 1026,6 hPa 0,0 l/m 19,9 km/h (4 Bft) O 92 2 min 0,178 mm 0,0 UV-I 162 W/m 3,7 C 2,9 C 27,4 km/h (4 Bft) 98,00 %
15.11.2018 15:02 9,6 C 8,9 C 8,9 C 66 % 1026,6 hPa 0,0 l/m 19,0 km/h (3 Bft) O-SO 107 2 min 0,000 mm 0,0 UV-I 156 W/m 3,6 C 3,1 C 25,7 km/h (4 Bft) 93,62 %
15.11.2018 15:04 9,6 C 8,9 C 8,9 C 65 % 1026,6 hPa 0,0 l/m 19,0 km/h (3 Bft) O 83 2 min 0,000 mm 0,0 UV-I 156 W/m 3,4 C 3,1 C 30,6 km/h (5 Bft) 97,87 %
15.11.2018 15:06 9,5 C 8,9 C 8,9 C 65 % 1026,7 hPa 0,0 l/m 21,1 km/h (4 Bft) O 100 2 min 0,000 mm 0,0 UV-I 120 W/m 3,3 C 2,3 C 30,6 km/h (5 Bft) 98,00 %
15.11.2018 15:08 9,4 C 8,9 C 8,3 C 66 % 1026,7 hPa 0,0 l/m 18,4 km/h (3 Bft) O 84 0 min 0,000 mm 0,0 UV-I 79 W/m 3,4 C 3,1 C 25,7 km/h (4 Bft) 97,87 %
15.11.2018 15:10 9,3 C 8,9 C 8,3 C 67 % 1026,7 hPa 0,0 l/m 16,2 km/h (3 Bft) O 98 0 min 0,000 mm 0,0 UV-I 63 W/m 3,5 C 3,8 C 24,1 km/h (4 Bft) 97,87 %
15.11.2018 15:12 9,2 C 8,9 C 7,8 C 67 % 1026,7 hPa 0,0 l/m 14,7 km/h (3 Bft) O-SO 103 0 min 0,000 mm 0,0 UV-I 54 W/m 3,4 C 4,3 C 20,9 km/h (4 Bft) 93,62 %
15.11.2018 15:14 9,1 C 8,9 C 7,8 C 68 % 1026,7 hPa 0,0 l/m 15,6 km/h (3 Bft) O 93 0 min 0,000 mm 0,0 UV-I 50 W/m 3,5 C 3,8 C 20,9 km/h (4 Bft) 100,00 %
15.11.2018 15:16 8,9 C 8,9 C 7,8 C 68 % 1026,7 hPa 0,0 l/m 16,7 km/h (3 Bft) O 91 0 min 0,000 mm 0,0 UV-I 48 W/m 3,3 C 3,1 C 22,5 km/h (4 Bft) 100,00 %
15.11.2018 15:18 8,8 C 8,9 C 7,2 C 67 % 1026,7 hPa 0,0 l/m 19,4 km/h (3 Bft) O-NO 63 0 min 0,000 mm 0,0 UV-I 49 W/m 3,0 C 1,9 C 32,2 km/h (5 Bft) 97,37 %
15.11.2018 15:20 8,8 C 8,9 C 7,2 C 67 % 1026,7 hPa 0,0 l/m 20,4 km/h (4 Bft) O 85 0 min 0,000 mm 0,0 UV-I 52 W/m 3,0 C 1,6 C 32,2 km/h (5 Bft) 100,00 %
15.11.2018 15:22 8,8 C 8,9 C 7,2 C 67 % 1026,7 hPa 0,0 l/m 20,4 km/h (4 Bft) O 88 0 min 0,000 mm 0,0 UV-I 43 W/m 3,0 C 1,6 C 27,4 km/h (4 Bft) 100,00 %
15.11.2018 15:24 8,7 C 8,9 C 7,2 C 67 % 1026,7 hPa 0,0 l/m 24,8 km/h (4 Bft) O 96 0 min 0,000 mm 0,0 UV-I 49 W/m 2,9 C 0,1 C 37,0 km/h (5 Bft) 100,00 %
15.11.2018 15:26 8,7 C 8,9 C 7,2 C 67 % 1026,7 hPa 0,0 l/m 21,5 km/h (4 Bft) O-NO 71 0 min 0,000 mm 0,0 UV-I 68 W/m 2,9 C 1,1 C 30,6 km/h (5 Bft) 95,74 %
15.11.2018 15:28 8,7 C 8,9 C 7,2 C 67 % 1026,8 hPa 0,0 l/m 19,7 km/h (3 Bft) O 101 2 min 0,000 mm 0,0 UV-I 75 W/m 2,9 C 1,7 C 27,4 km/h (4 Bft) 100,00 %
15.11.2018 15:30 8,6 C 8,9 C 7,2 C 68 % 1026,7 hPa 0,0 l/m 17,1 km/h (3 Bft) O-SO 103 2 min 0,000 mm 0,0 UV-I 81 W/m 3,0 C 2,6 C 24,1 km/h (4 Bft) 100,00 %
15.11.2018 15:32 8,6 C 8,9 C 7,2 C 68 % 1026,8 hPa 0,0 l/m 16,9 km/h (3 Bft) O-SO 102 2 min 0,000 mm 0,0 UV-I 88 W/m 3,0 C 2,6 C 25,7 km/h (4 Bft) 94,29 %
15.11.2018 15:34 8,5 C 8,9 C 6,7 C 68 % 1026,8 hPa 0,0 l/m 22,8 km/h (4 Bft) O 96 2 min 0,000 mm 0,0 UV-I 84 W/m 2,9 C 0,4 C 29,0 km/h (5 Bft) 100,00 %
15.11.2018 15:36 8,5 C 8,9 C 6,7 C 68 % 1026,7 hPa 0,0 l/m 19,5 km/h (3 Bft) O 101 2 min 0,000 mm 0,0 UV-I 81 W/m 2,9 C 1,5 C 30,6 km/h (5 Bft) 100,00 %
15.11.2018 15:38 8,5 C 8,9 C 6,7 C 68 % 1026,8 hPa 0,0 l/m 18,3 km/h (3 Bft) O 95 2 min 0,000 mm 0,0 UV-I 78 W/m 2,9 C 2,0 C 27,4 km/h (4 Bft) 97,87 %
15.11.2018 15:40 8,5 C 8,9 C 6,7 C 68 % 1026,8 hPa 0,0 l/m 15,2 km/h (3 Bft) O-SO 102 2 min 0,000 mm 0,0 UV-I 75 W/m 2,9 C 3,2 C 24,1 km/h (4 Bft) 100,00 %
15.11.2018 15:42 8,4 C 8,9 C 6,7 C 68 % 1026,8 hPa 0,0 l/m 17,9 km/h (3 Bft) O 98 2 min 0,000 mm 0,0 UV-I 67 W/m 2,8 C 2,0 C 25,7 km/h (4 Bft) 97,87 %
15.11.2018 15:44 8,4 C 8,9 C 6,7 C 69 % 1026,8 hPa 0,0 l/m 18,0 km/h (3 Bft) O-SO 109 2 min 0,000 mm 0,0 UV-I 62 W/m 3,0 C 2,0 C 24,1 km/h (4 Bft) 100,00 %
15.11.2018 15:46 8,4 C 8,9 C 6,7 C 68 % 1026,8 hPa 0,0 l/m 17,6 km/h (3 Bft) O 98 2 min 0,000 mm 0,0 UV-I 60 W/m 2,8 C 2,1 C 24,1 km/h (4 Bft) 98,00 %
15.11.2018 15:48 8,3 C 8,9 C 6,7 C 69 % 1026,8 hPa 0,0 l/m 18,3 km/h (3 Bft) O-SO 109 2 min 0,000 mm 0,0 UV-I 61 W/m 3,0 C 1,7 C 29,0 km/h (5 Bft) 97,87 %
15.11.2018 15:50 8,3 C 8,9 C 6,7 C 69 % 1026,8 hPa 0,0 l/m 21,2 km/h (4 Bft) O 89 2 min 0,000 mm 0,0 UV-I 56 W/m 3,0 C 0,7 C 29,0 km/h (5 Bft) 97,87 %
15.11.2018 15:52 8,3 C 8,9 C 6,7 C 69 % 1026,9 hPa 0,0 l/m 20,7 km/h (4 Bft) O-SO 105 2 min 0,000 mm 0,0 UV-I 47 W/m 3,0 C 0,9 C 30,6 km/h (5 Bft) 97,37 %
15.11.2018 15:54 8,3 C 8,9 C 6,7 C 69 % 1026,8 hPa 0,0 l/m 22,2 km/h (4 Bft) O 98 2 min 0,000 mm 0,0 UV-I 39 W/m 3,0 C 0,4 C 29,0 km/h (5 Bft) 97,87 %
15.11.2018 15:56 8,2 C 8,9 C 6,7 C 70 % 1026,9 hPa 0,0 l/m 16,4 km/h (3 Bft) O-SO 112 2 min 0,000 mm 0,0 UV-I 37 W/m 3,1 C 2,3 C 22,5 km/h (4 Bft) 93,62 %
15.11.2018 15:58 8,1 C 8,9 C 6,7 C 70 % 1026,8 hPa 0,0 l/m 17,4 km/h (3 Bft) O-SO 113 2 min 0,000 mm 0,0 UV-I 38 W/m 3,0 C 1,8 C 29,0 km/h (5 Bft) 93,75 %
15.11.2018 16:00 8,1 C 8,3 C 6,1 C 70 % 1026,9 hPa 0,0 l/m 16,4 km/h (3 Bft) O 84 2 min 0,101 mm 0,0 UV-I 33 W/m 3,0 C 2,2 C 25,7 km/h (4 Bft) 97,87 %
15.11.2018 16:02 8,1 C 8,3 C 6,1 C 70 % 1026,8 hPa 0,0 l/m 15,6 km/h (3 Bft) O 94 2 min 0,000 mm 0,0 UV-I 31 W/m 3,0 C 2,6 C 20,9 km/h (4 Bft) 97,87 %
15.11.2018 16:04 8,1 C 8,9 C 6,1 C 70 % 1026,8 hPa 0,0 l/m 19,5 km/h (3 Bft) O-SO 111 2 min 0,000 mm 0,0 UV-I 29 W/m 3,0 C 1,0 C 32,2 km/h (5 Bft) 97,87 %
15.11.2018 16:06 8,0 C 8,3 C 6,1 C 70 % 1026,8 hPa 0,0 l/m 18,9 km/h (3 Bft) O 101 2 min 0,000 mm 0,0 UV-I 28 W/m 2,9 C 1,1 C 25,7 km/h (4 Bft) 95,74 %
15.11.2018 16:08 8,0 C 8,3 C 6,1 C 70 % 1026,8 hPa 0,0 l/m 17,4 km/h (3 Bft) O-SO 121 2 min 0,000 mm 0,0 UV-I 26 W/m 2,9 C 1,7 C 27,4 km/h (4 Bft) 93,62 %
15.11.2018 16:10 8,0 C 8,3 C 6,1 C 70 % 1026,8 hPa 0,0 l/m 18,3 km/h (3 Bft) O 86 2 min 0,000 mm 0,0 UV-I 22 W/m 2,9 C 1,3 C 30,6 km/h (5 Bft) 100,00 %
15.11.2018 16:12 7,9 C 8,3 C 6,1 C 70 % 1026,9 hPa 0,0 l/m 20,6 km/h (4 Bft) O 87 2 min 0,000 mm 0,0 UV-I 18 W/m 2,8 C 0,4 C 32,2 km/h (5 Bft) 100,00 %
15.11.2018 16:14 7,9 C 8,3 C 6,1 C 70 % 1026,9 hPa 0,0 l/m 18,9 km/h (3 Bft) O 97 2 min 0,000 mm 0,0 UV-I 14 W/m 2,8 C 1,0 C 27,4 km/h (4 Bft) 100,00 %
15.11.2018 16:16 7,9 C 8,3 C 6,1 C 70 % 1026,9 hPa 0,0 l/m 18,7 km/h (3 Bft) O 92 0 min 0,000 mm 0,0 UV-I 12 W/m 2,8 C 1,1 C 24,1 km/h (4 Bft) 100,00 %
15.11.2018 16:18 7,8 C 8,3 C 6,1 C 71 % 1026,9 hPa 0,0 l/m 18,0 km/h (3 Bft) O-NO 76 0 min 0,000 mm 0,0 UV-I 12 W/m 2,9 C 1,2 C 24,1 km/h (4 Bft) 100,00 %
15.11.2018 16:20 7,8 C 8,3 C 6,1 C 71 % 1026,9 hPa 0,0 l/m 16,4 km/h (3 Bft) O-NO 63 0 min 0,000 mm 0,0 UV-I 11 W/m 2,9 C 1,8 C 25,7 km/h (4 Bft) 100,00 %
15.11.2018 16:22 7,8 C 8,3 C 5,6 C 71 % 1026,9 hPa 0,0 l/m 16,7 km/h (3 Bft) O 92 0 min 0,000 mm 0,0 UV-I 10 W/m 2,9 C 1,7 C 24,1 km/h (4 Bft) 100,00 %
15.11.2018 16:24 7,7 C 8,3 C 6,1 C 71 % 1026,9 hPa 0,0 l/m 18,2 km/h (3 Bft) O 88 0 min 0,000 mm 0,0 UV-I 8 W/m 2,8 C 1,0 C 25,7 km/h (4 Bft) 100,00 %
15.11.2018 16:26 7,7 C 8,3 C 5,6 C 72 % 1027,0 hPa 0,0 l/m 14,1 km/h (3 Bft) O-NO 76 0 min 0,000 mm 0,0 UV-I 7 W/m 3,0 C 2,8 C 22,5 km/h (4 Bft) 100,00 %
15.11.2018 16:28 7,6 C 8,3 C 5,6 C 72 % 1027,0 hPa 0,0 l/m 14,6 km/h (3 Bft) O 80 0 min 0,000 mm 0,0 UV-I 7 W/m 2,9 C 2,4 C 20,9 km/h (4 Bft) 97,87 %
15.11.2018 16:30 7,5 C 8,3 C 5,6 C 72 % 1027,0 hPa 0,0 l/m 14,4 km/h (3 Bft) O-SO 107 0 min 0,000 mm 0,0 UV-I 7 W/m 2,8 C 2,4 C 24,1 km/h (4 Bft) 100,00 %
15.11.2018 16:32 7,5 C 8,3 C 5,6 C 72 % 1027,0 hPa 0,0 l/m 16,3 km/h (3 Bft) O 90 0 min 0,000 mm 0,0 UV-I 6 W/m 2,8 C 1,5 C 22,5 km/h (4 Bft) 100,00 %
15.11.2018 16:34 7,5 C 8,3 C 5,6 C 72 % 1027,0 hPa 0,0 l/m 16,3 km/h (3 Bft) NO 56 0 min 0,000 mm 0,0 UV-I 5 W/m 2,8 C 1,5 C 22,5 km/h (4 Bft) 98,00 %
15.11.2018 16:36 7,5 C 8,3 C 5,6 C 72 % 1027,0 hPa 0,0 l/m 16,4 km/h (3 Bft) O 84 0 min 0,000 mm 0,0 UV-I 5 W/m 2,8 C 1,5 C 22,5 km/h (4 Bft) 97,87 %
15.11.2018 16:38 7,5 C 8,3 C 5,6 C 72 % 1027,0 hPa 0,0 l/m 15,9 km/h (3 Bft) O-NO 67 0 min 0,000 mm 0,0 UV-I 5 W/m 2,8 C 1,7 C 20,9 km/h (4 Bft) 98,00 %
15.11.2018 16:40 7,4 C 8,3 C 5,6 C 72 % 1026,9 hPa 0,0 l/m 17,9 km/h (3 Bft) O 88 0 min 0,000 mm 0,0 UV-I 5 W/m 2,7 C 0,7 C 25,7 km/h (4 Bft) 97,87 %
15.11.2018 16:42 7,4 C 8,3 C 5,6 C 72 % 1026,9 hPa 0,0 l/m 16,8 km/h (3 Bft) O-NO 70 0 min 0,000 mm 0,0 UV-I 5 W/m 2,7 C 1,2 C 24,1 km/h (4 Bft) 100,00 %
15.11.2018 16:44 7,4 C 8,3 C 5,6 C 73 % 1027,0 hPa 0,0 l/m 15,8 km/h (3 Bft) O-SO 116 0 min 0,000 mm 0,0 UV-I 3 W/m 2,9 C 1,6 C 20,9 km/h (4 Bft) 97,87 %
15.11.2018 16:46 7,4 C 8,3 C 5,6 C 73 % 1027,0 hPa 0,0 l/m 13,9 km/h (3 Bft) O-NO 72 0 min 0,000 mm 0,0 UV-I 0 W/m 2,9 C 2,5 C 19,3 km/h (3 Bft) 93,62 %
15.11.2018 16:48 7,3 C 8,3 C 5,6 C 73 % 1027,0 hPa 0,0 l/m 13,9 km/h (3 Bft) O-NO 76 0 min 0,000 mm 0,0 UV-I 0 W/m 2,8 C 2,4 C 20,9 km/h (4 Bft) 100,00 %
15.11.2018 16:50 7,3 C 8,3 C 5,6 C 73 % 1027,0 hPa 0,0 l/m 12,8 km/h (3 Bft) O-NO 62 0 min 0,000 mm 0,0 UV-I 0 W/m 2,8 C 3,0 C 17,7 km/h (3 Bft) 94,00 %
15.11.2018 16:52 7,2 C 8,3 C 5,0 C 74 % 1027,0 hPa 0,0 l/m 16,0 km/h (3 Bft) O 92 0 min 0,000 mm 0,0 UV-I 0 W/m 2,9 C 1,3 C 20,9 km/h (4 Bft) 98,00 %
15.11.2018 16:54 7,2 C 8,3 C 5,0 C 74 % 1027,0 hPa 0,0 l/m 14,8 km/h (3 Bft) O-NO 70 0 min 0,000 mm 0,0 UV-I 0 W/m 2,9 C 1,8 C 17,7 km/h (3 Bft) 97,87 %
15.11.2018 16:56 7,2 C 8,3 C 5,6 C 74 % 1027,0 hPa 0,0 l/m 12,9 km/h (3 Bft) O-NO 63 0 min 0,000 mm 0,0 UV-I 0 W/m 2,9 C 2,8 C 19,3 km/h (3 Bft) 97,87 %
15.11.2018 16:58 7,2 C 8,3 C 5,0 C 74 % 1027,0 hPa 0,0 l/m 14,8 km/h (3 Bft) O 91 0 min 0,000 mm 0,0 UV-I 0 W/m 2,9 C 1,8 C 20,9 km/h (4 Bft) 97,87 %
15.11.2018 17:00 7,2 C 8,3 C 5,6 C 74 % 1026,9 hPa 0,0 l/m 19,1 km/h (3 Bft) O 92 0 min 0,000 mm 0,0 UV-I 0 W/m 2,9 C 0,0 C 29,0 km/h (5 Bft) 97,87 %
15.11.2018 17:02 7,3 C 8,3 C 5,6 C 74 % 1026,9 hPa 0,0 l/m 16,2 km/h (3 Bft) O-SO 102 0 min 0,051 mm 0,0 UV-I 0 W/m 3,0 C 1,3 C 22,5 km/h (4 Bft) 98,00 %
15.11.2018 17:04 7,3 C 8,3 C 5,6 C 74 % 1026,9 hPa 0,0 l/m 19,2 km/h (3 Bft) O-SO 102 0 min 0,000 mm 0,0 UV-I 0 W/m 3,0 C 0,1 C 27,4 km/h (4 Bft) 91,49 %
15.11.2018 17:06 7,3 C 8,3 C 5,6 C 74 % 1027,0 hPa 0,0 l/m 20,5 km/h (4 Bft) O 98 0 min 0,000 mm 0,0 UV-I 0 W/m 3,0 C -0,4 C 33,8 km/h (5 Bft) 93,62 %
15.11.2018 17:08 7,3 C 8,3 C 5,6 C 74 % 1027,0 hPa 0,0 l/m 13,6 km/h (3 Bft) SO 126 0 min 0,000 mm 0,0 UV-I 0 W/m 3,0 C 2,5 C 20,9 km/h (4 Bft) 93,62 %
15.11.2018 17:10 7,3 C 8,3 C 5,6 C 74 % 1027,0 hPa 0,0 l/m 17,0 km/h (3 Bft) O-SO 112 0 min 0,000 mm 0,0 UV-I 0 W/m 3,0 C 1,0 C 24,1 km/h (4 Bft) 93,62 %
15.11.2018 17:12 7,3 C 8,3 C 5,6 C 74 % 1027,0 hPa 0,0 l/m 16,1 km/h (3 Bft) O-SO 109 0 min 0,000 mm 0,0 UV-I 0 W/m 3,0 C 1,4 C 24,1 km/h (4 Bft) 95,74 %
15.11.2018 17:14 7,2 C 8,3 C 5,6 C 74 % 1027,0 hPa 0,0 l/m 19,4 km/h (3 Bft) O-SO 103 0 min 0,000 mm 0,0 UV-I 0 W/m 2,9 C -0,1 C 30,6 km/h (5 Bft) 93,62 %
15.11.2018 17:16 7,3 C 8,3 C 5,6 C 74 % 1027,1 hPa 0,0 l/m 22,1 km/h (4 Bft) O 91 0 min 0,000 mm 0,0 UV-I 0 W/m 3,0 C -0,9 C 32,2 km/h (5 Bft) 91,49 %
15.11.2018 17:18 7,3 C 8,3 C 5,6 C 74 % 1027,0 hPa 0,0 l/m 22,1 km/h (4 Bft) O-SO 103 0 min 0,000 mm 0,0 UV-I 0 W/m 3,0 C -0,9 C 29,0 km/h (5 Bft) 97,44 %
15.11.2018 17:20 7,3 C 8,3 C 5,6 C 74 % 1027,0 hPa 0,0 l/m 20,8 km/h (4 Bft) O-SO 105 0 min 0,000 mm 0,0 UV-I 0 W/m 3,0 C -0,5 C 33,8 km/h (5 Bft) 94,00 %
15.11.2018 17:22 7,3 C 8,3 C 5,6 C 74 % 1027,1 hPa 0,0 l/m 19,2 km/h (3 Bft) O 94 0 min 0,000 mm 0,0 UV-I 0 W/m 3,0 C 0,1 C 30,6 km/h (5 Bft) 91,49 %
15.11.2018 17:24 7,3 C 8,3 C 5,6 C 74 % 1027,0 hPa 0,0 l/m 22,8 km/h (4 Bft) O-SO 106 0 min 0,000 mm 0,0 UV-I 0 W/m 3,0 C -1,2 C 33,8 km/h (5 Bft) 97,87 %
15.11.2018 17:26 7,3 C 8,3 C 5,6 C 74 % 1027,0 hPa 0,0 l/m 18,3 km/h (3 Bft) O-SO 111 0 min 0,000 mm 0,0 UV-I 0 W/m 3,0 C 0,4 C 27,4 km/h (4 Bft) 100,00 %
15.11.2018 17:28 7,3 C 8,3 C 5,6 C 75 % 1027,0 hPa 0,0 l/m 18,6 km/h (3 Bft) O 81 0 min 0,000 mm 0,0 UV-I 0 W/m 3,2 C 0,3 C 25,7 km/h (4 Bft) 100,00 %
15.11.2018 17:30 7,2 C 8,3 C 5,6 C 75 % 1027,0 hPa 0,0 l/m 16,1 km/h (3 Bft) O-NO 76 0 min 0,000 mm 0,0 UV-I 0 W/m 3,1 C 1,2 C 24,1 km/h (4 Bft) 96,00 %
15.11.2018 17:32 7,2 C 8,3 C 5,6 C 75 % 1027,1 hPa 0,0 l/m 18,6 km/h (3 Bft) O-NO 77 0 min 0,000 mm 0,0 UV-I 0 W/m 3,1 C 0,2 C 24,1 km/h (4 Bft) 100,00 %
15.11.2018 17:34 7,2 C 8,3 C 5,0 C 75 % 1027,1 hPa 0,0 l/m 16,0 km/h (3 Bft) O-SO 123 0 min 0,000 mm 0,0 UV-I 0 W/m 3,1 C 1,3 C 20,9 km/h (4 Bft) 100,00 %
15.11.2018 17:36 7,2 C 8,3 C 5,0 C 75 % 1027,1 hPa 0,0 l/m 16,1 km/h (3 Bft) SO 134 0 min 0,000 mm 0,0 UV-I 0 W/m 3,1 C 1,2 C 30,6 km/h (5 Bft) 97,37 %
15.11.2018 17:38 7,2 C 8,3 C 5,0 C 75 % 1027,1 hPa 0,0 l/m 17,1 km/h (3 Bft) O 94 0 min 0,000 mm 0,0 UV-I 0 W/m 3,1 C 0,8 C 24,1 km/h (4 Bft) 100,00 %
15.11.2018 17:40 7,2 C 8,3 C 5,0 C 75 % 1027,1 hPa 0,0 l/m 15,1 km/h (3 Bft) O 84 0 min 0,000 mm 0,0 UV-I 0 W/m 3,1 C 1,7 C 24,1 km/h (4 Bft) 100,00 %
15.11.2018 17:42 7,1 C 8,3 C 5,0 C 75 % 1027,1 hPa 0,0 l/m 12,9 km/h (3 Bft) O 84 0 min 0,000 mm 0,0 UV-I 0 W/m 3,0 C 2,7 C 17,7 km/h (3 Bft) 97,87 %
15.11.2018 17:44 7,0 C 8,3 C 5,0 C 76 % 1027,3 hPa 0,0 l/m 15,5 km/h (3 Bft) O-SO 105 0 min 0,000 mm 0,0 UV-I 0 W/m 3,1 C 1,3 C 19,3 km/h (3 Bft) 97,87 %
15.11.2018 17:46 6,9 C 8,3 C 5,0 C 76 % 1027,3 hPa 0,0 l/m 17,8 km/h (3 Bft) O 90 0 min 0,000 mm 0,0 UV-I 0 W/m 3,0 C 0,1 C 24,1 km/h (4 Bft) 96,00 %
15.11.2018 17:48 7,0 C 8,3 C 5,0 C 76 % 1027,4 hPa 0,0 l/m 17,7 km/h (3 Bft) O 96 0 min 0,000 mm 0,0 UV-I 0 W/m 3,1 C 0,3 C 27,4 km/h (4 Bft) 97,87 %
15.11.2018 17:50 6,9 C 8,3 C 5,0 C 76 % 1027,4 hPa 0,0 l/m 18,2 km/h (3 Bft) O 88 0 min 0,000 mm 0,0 UV-I 0 W/m 3,0 C -0,0 C 25,7 km/h (4 Bft) 100,00 %
15.11.2018 17:52 6,9 C 8,3 C 5,0 C 76 % 1027,5 hPa 0,0 l/m 19,8 km/h (3 Bft) O 89 0 min 0,000 mm 0,0 UV-I 0 W/m 3,0 C -0,6 C 27,4 km/h (4 Bft) 100,00 %
15.11.2018 17:54 6,9 C 8,3 C 5,0 C 76 % 1027,5 hPa 0,0 l/m 18,3 km/h (3 Bft) O-SO 104 0 min 0,000 mm 0,0 UV-I 0 W/m 3,0 C -0,1 C 25,7 km/h (4 Bft) 97,87 %
15.11.2018 17:56 6,9 C 8,3 C 5,0 C 76 % 1027,5 hPa 0,0 l/m 16,7 km/h (3 Bft) O 99 0 min 0,000 mm 0,0 UV-I 0 W/m 3,0 C 0,6 C 22,5 km/h (4 Bft) 94,44 %
15.11.2018 17:58 6,8 C 8,3 C 5,0 C 77 % 1027,5 hPa 0,0 l/m 15,1 km/h (3 Bft) O 83 0 min 0,000 mm 0,0 UV-I 0 W/m 3,1 C 1,2 C 19,3 km/h (3 Bft) 100,00 %
15.11.2018 18:00 6,7 C 8,3 C 5,0 C 77 % 1027,5 hPa 0,0 l/m 13,4 km/h (3 Bft) O 84 0 min 0,000 mm 0,0 UV-I 0 W/m 3,0 C 1,9 C 22,5 km/h (4 Bft) 100,00 %
15.11.2018 18:02 6,7 C 8,3 C 4,4 C 77 % 1027,6 hPa 0,0 l/m 13,5 km/h (3 Bft) O 84 0 min 0,051 mm 0,0 UV-I 0 W/m 3,0 C 1,9 C 17,7 km/h (3 Bft) 100,00 %
15.11.2018 18:04 6,6 C 8,3 C 4,4 C 78 % 1027,6 hPa 0,0 l/m 13,2 km/h (3 Bft) O-NO 63 0 min 0,000 mm 0,0 UV-I 0 W/m 3,0 C 1,9 C 17,7 km/h (3 Bft) 100,00 %
15.11.2018 18:06 6,4 C 8,3 C 4,4 C 78 % 1027,6 hPa 0,0 l/m 10,8 km/h (2 Bft) O-NO 76 0 min 0,000 mm 0,0 UV-I 0 W/m 2,8 C 3,1 C 14,5 km/h (3 Bft) 100,00 %
15.11.2018 18:08 6,4 C 8,3 C 4,4 C 78 % 1027,6 hPa 0,0 l/m 11,1 km/h (2 Bft) O-NO 74 0 min 0,000 mm 0,0 UV-I 0 W/m 2,8 C 2,9 C 16,1 km/h (3 Bft) 100,00 %
15.11.2018 18:10 6,3 C 8,3 C 4,4 C 79 % 1027,6 hPa 0,0 l/m 9,2 km/h (2 Bft) O-NO 61 0 min 0,000 mm 0,0 UV-I 0 W/m 2,9 C 4,1 C 14,5 km/h (3 Bft) 95,74 %
15.11.2018 18:12 6,2 C 8,3 C 4,4 C 79 % 1027,6 hPa 0,0 l/m 12,8 km/h (3 Bft) O 89 0 min 0,000 mm 0,0 UV-I 0 W/m 2,8 C 1,7 C 19,3 km/h (3 Bft) 97,87 %
15.11.2018 18:14 6,2 C 8,3 C 4,4 C 79 % 1027,6 hPa 0,0 l/m 15,9 km/h (3 Bft) O-NO 68 0 min 0,000 mm 0,0 UV-I 0 W/m 2,8 C 0,1 C 20,9 km/h (4 Bft) 98,00 %
15.11.2018 18:16 6,2 C 8,3 C 4,4 C 79 % 1027,6 hPa 0,0 l/m 13,5 km/h (3 Bft) O-NO 67 0 min 0,000 mm 0,0 UV-I 0 W/m 2,8 C 1,3 C 20,9 km/h (4 Bft) 97,87 %
15.11.2018 18:18 6,1 C 8,3 C 4,4 C 79 % 1027,7 hPa 0,0 l/m 13,2 km/h (3 Bft) O-NO 69 0 min 0,000 mm 0,0 UV-I 0 W/m 2,7 C 1,3 C 17,7 km/h (3 Bft) 95,74 %
15.11.2018 18:20 6,0 C 8,3 C 3,9 C 80 % 1027,7 hPa 0,0 l/m 13,5 km/h (3 Bft) O 80 0 min 0,000 mm 0,0 UV-I 0 W/m 2,8 C 1,1 C 17,7 km/h (3 Bft) 97,87 %
15.11.2018 18:22 5,9 C 8,3 C 3,9 C 80 % 1027,7 hPa 0,0 l/m 9,0 km/h (2 Bft) NO 56 0 min 0,000 mm 0,0 UV-I 0 W/m 2,7 C 3,8 C 16,1 km/h (3 Bft) 93,62 %
15.11.2018 18:24 5,7 C 8,3 C 3,9 C 81 % 1027,7 hPa 0,0 l/m 10,9 km/h (2 Bft) O-NO 60 0 min 0,000 mm 0,0 UV-I 0 W/m 2,7 C 2,2 C 16,1 km/h (3 Bft) 96,00 %
15.11.2018 18:26 5,6 C 8,3 C 3,9 C 81 % 1027,7 hPa 0,0 l/m 14,2 km/h (3 Bft) NO 34 0 min 0,000 mm 0,0 UV-I 0 W/m 2,6 C 0,2 C 20,9 km/h (4 Bft) 95,74 %
15.11.2018 18:28 5,5 C 8,3 C 3,3 C 82 % 1027,7 hPa 0,0 l/m 8,8 km/h (2 Bft) O-NO 63 0 min 0,000 mm 0,0 UV-I 0 W/m 2,7 C 3,5 C 14,5 km/h (3 Bft) 94,44 %
15.11.2018 18:30 5,6 C 8,3 C 3,9 C 82 % 1027,7 hPa 0,0 l/m 11,6 km/h (2 Bft) O-NO 68 0 min 0,000 mm 0,0 UV-I 0 W/m 2,8 C 1,7 C 17,7 km/h (3 Bft) 96,00 %
15.11.2018 18:32 5,6 C 8,3 C 3,9 C 82 % 1027,7 hPa 0,0 l/m 11,8 km/h (2 Bft) O-NO 66 0 min 0,000 mm 0,0 UV-I 0 W/m 2,8 C 1,6 C 14,5 km/h (3 Bft) 95,74 %
15.11.2018 18:34 5,6 C 8,3 C 3,3 C 82 % 1027,6 hPa 0,0 l/m 11,7 km/h (2 Bft) O-NO 68 0 min 0,000 mm 0,0 UV-I 0 W/m 2,8 C 1,6 C 16,1 km/h (3 Bft) 95,74 %
15.11.2018 18:36 5,5 C 8,3 C 3,9 C 82 % 1027,7 hPa 0,0 l/m 11,5 km/h (2 Bft) O-NO 74 0 min 0,000 mm 0,0 UV-I 0 W/m 2,7 C 1,6 C 17,7 km/h (3 Bft) 92,00 %
15.11.2018 18:38 5,4 C 8,3 C 3,3 C 82 % 1027,7 hPa 0,0 l/m 8,3 km/h (2 Bft) O-NO 67 0 min 0,000 mm 0,0 UV-I 0 W/m 2,6 C 3,8 C 14,5 km/h (3 Bft) 95,74 %
15.11.2018 18:40 5,4 C 8,3 C 3,3 C 83 % 1027,7 hPa 0,0 l/m 6,8 km/h (2 Bft) O-NO 68 0 min 0,000 mm 0,0 UV-I 0 W/m 2,7 C 5,1 C 9,7 km/h (2 Bft) 93,62 %
15.11.2018 18:42 5,3 C 8,3 C 3,3 C 83 % 1027,7 hPa 0,0 l/m 7,8 km/h (2 Bft) O-NO 76 0 min 0,000 mm 0,0 UV-I 0 W/m 2,7 C 4,1 C 14,5 km/h (3 Bft) 95,74 %
15.11.2018 18:44 5,3 C 8,3 C 3,3 C 83 % 1027,7 hPa 0,0 l/m 8,6 km/h (2 Bft) O-NO 78 0 min 0,000 mm 0,0 UV-I 0 W/m 2,7 C 3,4 C 12,9 km/h (3 Bft) 95,74 %
15.11.2018 18:46 5,3 C 8,3 C 3,3 C 83 % 1027,7 hPa 0,0 l/m 8,5 km/h (2 Bft) O-NO 60 0 min 0,000 mm 0,0 UV-I 0 W/m 2,7 C 3,5 C 14,5 km/h (3 Bft) 93,62 %
15.11.2018 18:48 5,3 C 8,3 C 3,3 C 83 % 1027,8 hPa 0,0 l/m 9,1 km/h (2 Bft) O-NO 67 0 min 0,000 mm 0,0 UV-I 0 W/m 2,7 C 3,1 C 12,9 km/h (3 Bft) 91,49 %
15.11.2018 18:50 5,2 C 8,3 C 3,3 C 83 % 1027,7 hPa 0,0 l/m 6,8 km/h (2 Bft) O-NO 71 0 min 0,000 mm 0,0 UV-I 0 W/m 2,6 C 4,9 C 9,7 km/h (2 Bft) 95,74 %
15.11.2018 18:52 5,0 C 8,3 C 2,8 C 83 % 1027,7 hPa 0,0 l/m 6,3 km/h (2 Bft) NO 40 0 min 0,000 mm 0,0 UV-I 0 W/m 2,4 C 5,0 C 9,7 km/h (2 Bft) 95,74 %
15.11.2018 18:54 4,8 C 8,3 C 2,8 C 84 % 1027,8 hPa 0,0 l/m 7,0 km/h (2 Bft) O-NO 66 0 min 0,000 mm 0,0 UV-I 0 W/m 2,3 C 4,3 C 12,9 km/h (3 Bft) 95,12 %
15.11.2018 18:56 4,8 C 8,3 C 2,8 C 84 % 1027,8 hPa 0,0 l/m 9,1 km/h (2 Bft) O 82 0 min 0,000 mm 0,0 UV-I 0 W/m 2,3 C 2,5 C 14,5 km/h (3 Bft) 96,00 %
15.11.2018 18:58 4,8 C 8,3 C 2,8 C 85 % 1027,8 hPa 0,0 l/m 9,8 km/h (2 Bft) O-NO 63 0 min 0,000 mm 0,0 UV-I 0 W/m 2,5 C 2,0 C 16,1 km/h (3 Bft) 95,74 %
15.11.2018 19:00 4,8 C 8,3 C 2,8 C 85 % 1027,9 hPa 0,0 l/m 13,1 km/h (3 Bft) O-NO 75 0 min 0,025 mm 0,0 UV-I 0 W/m 2,5 C -0,1 C 16,1 km/h (3 Bft) 96,00 %
15.11.2018 19:02 4,8 C 8,3 C 3,3 C 85 % 1027,8 hPa 0,0 l/m 16,3 km/h (3 Bft) O-NO 72 0 min 0,000 mm 0,0 UV-I 0 W/m 2,5 C -1,8 C 19,3 km/h (3 Bft) 93,62 %
15.11.2018 19:04 4,9 C 8,3 C 3,3 C 85 % 1027,9 hPa 0,0 l/m 15,3 km/h (3 Bft) O-NO 63 0 min 0,000 mm 0,0 UV-I 0 W/m 2,6 C -1,2 C 20,9 km/h (4 Bft) 93,62 %
15.11.2018 19:06 4,9 C 8,3 C 3,3 C 84 % 1027,8 hPa 0,0 l/m 14,1 km/h (3 Bft) O 82 0 min 0,000 mm 0,0 UV-I 0 W/m 2,4 C -0,6 C 19,3 km/h (3 Bft) 91,49 %
15.11.2018 19:08 4,9 C 8,3 C 3,3 C 84 % 1027,9 hPa 0,0 l/m 12,8 km/h (3 Bft) O-NO 77 0 min 0,000 mm 0,0 UV-I 0 W/m 2,4 C 0,2 C 17,7 km/h (3 Bft) 95,74 %
15.11.2018 19:10 4,9 C 8,3 C 3,3 C 84 % 1027,8 hPa 0,0 l/m 10,3 km/h (2 Bft) O-NO 71 0 min 0,000 mm 0,0 UV-I 0 W/m 2,4 C 1,8 C 14,5 km/h (3 Bft) 95,74 %
15.11.2018 19:12 4,9 C 8,3 C 3,3 C 84 % 1027,9 hPa 0,0 l/m 8,9 km/h (2 Bft) NO 48 0 min 0,000 mm 0,0 UV-I 0 W/m 2,4 C 2,8 C 14,5 km/h (3 Bft) 97,87 %
15.11.2018 19:14 4,9 C 8,3 C 3,3 C 84 % 1027,8 hPa 0,0 l/m 10,1 km/h (2 Bft) O-NO 66 0 min 0,000 mm 0,0 UV-I 0 W/m 2,4 C 1,9 C 14,5 km/h (3 Bft) 93,75 %
15.11.2018 19:16 4,9 C 8,3 C 3,3 C 84 % 1027,8 hPa 0,0 l/m 9,3 km/h (2 Bft) NO 56 0 min 0,000 mm 0,0 UV-I 0 W/m 2,4 C 2,5 C 12,9 km/h (3 Bft) 94,74 %
15.11.2018 19:18 4,8 C 8,3 C 3,3 C 84 % 1027,8 hPa 0,0 l/m 8,2 km/h (2 Bft) O-NO 77 0 min 0,000 mm 0,0 UV-I 0 W/m 2,3 C 3,2 C 12,9 km/h (3 Bft) 98,00 %
15.11.2018 19:20 4,7 C 8,3 C 3,3 C 84 % 1027,8 hPa 0,0 l/m 9,1 km/h (2 Bft) O-NO 63 0 min 0,000 mm 0,0 UV-I 0 W/m 2,2 C 2,4 C 14,5 km/h (3 Bft) 98,00 %
15.11.2018 19:22 4,7 C 8,3 C 3,3 C 85 % 1027,8 hPa 0,0 l/m 8,7 km/h (2 Bft) O-NO 76 0 min 0,000 mm 0,0 UV-I 0 W/m 2,4 C 2,7 C 14,5 km/h (3 Bft) 97,87 %
15.11.2018 19:24 4,7 C 8,3 C 2,8 C 85 % 1027,8 hPa 0,0 l/m 8,8 km/h (2 Bft) O-NO 63 0 min 0,000 mm 0,0 UV-I 0 W/m 2,4 C 2,6 C 14,5 km/h (3 Bft) 97,87 %
15.11.2018 19:26 4,7 C 8,3 C 2,8 C 84 % 1027,8 hPa 0,0 l/m 7,9 km/h (2 Bft) NO 52 0 min 0,000 mm 0,0 UV-I 0 W/m 2,2 C 3,4 C 12,9 km/h (3 Bft) 100,00 %
15.11.2018 19:28 4,6 C 8,3 C 2,8 C 85 % 1027,8 hPa 0,0 l/m 8,9 km/h (2 Bft) O-NO 70 0 min 0,000 mm 0,0 UV-I 0 W/m 2,3 C 2,5 C 12,9 km/h (3 Bft) 97,87 %
15.11.2018 19:30 4,4 C 8,3 C 2,8 C 85 % 1027,8 hPa 0,0 l/m 9,2 km/h (2 Bft) NO 53 0 min 0,000 mm 0,0 UV-I 0 W/m 2,1 C 2,0 C 14,5 km/h (3 Bft) 97,87 %
15.11.2018 19:32 4,4 C 8,3 C 2,2 C 85 % 1027,8 hPa 0,0 l/m 10,5 km/h (2 Bft) NO 46 0 min 0,000 mm 0,0 UV-I 0 W/m 2,1 C 1,1 C 16,1 km/h (3 Bft) 100,00 %
15.11.2018 19:34 4,3 C 8,3 C 2,8 C 85 % 1027,8 hPa 0,0 l/m 13,8 km/h (3 Bft) NO 55 0 min 0,000 mm 0,0 UV-I 0 W/m 2,0 C -1,1 C 17,7 km/h (3 Bft) 97,87 %
15.11.2018 19:36 4,3 C 8,3 C 2,8 C 86 % 1027,7 hPa 0,0 l/m 13,4 km/h (3 Bft) O-NO 62 0 min 0,000 mm 0,0 UV-I 0 W/m 2,2 C -0,9 C 17,7 km/h (3 Bft) 100,00 %
15.11.2018 19:38 4,3 C 8,3 C 2,8 C 86 % 1027,8 hPa 0,0 l/m 11,4 km/h (2 Bft) O-NO 57 0 min 0,000 mm 0,0 UV-I 0 W/m 2,2 C 0,3 C 17,7 km/h (3 Bft) 95,74 %
15.11.2018 19:40 4,4 C 8,3 C 2,8 C 86 % 1027,7 hPa 0,0 l/m 12,7 km/h (3 Bft) NO 45 0 min 0,000 mm 0,0 UV-I 0 W/m 2,3 C -0,4 C 17,7 km/h (3 Bft) 93,62 %
15.11.2018 19:42 4,4 C 8,3 C 2,8 C 86 % 1027,7 hPa 0,0 l/m 9,4 km/h (2 Bft) NO 49 0 min 0,000 mm 0,0 UV-I 0 W/m 2,3 C 1,9 C 16,1 km/h (3 Bft) 98,11 %
15.11.2018 19:44 4,5 C 8,3 C 2,8 C 85 % 1027,8 hPa 0,0 l/m 8,8 km/h (2 Bft) O-NO 66 0 min 0,000 mm 0,0 UV-I 0 W/m 2,2 C 2,4 C 12,9 km/h (3 Bft) 98,00 %
15.11.2018 19:46 4,4 C 8,3 C 2,8 C 85 % 1027,8 hPa 0,0 l/m 11,1 km/h (2 Bft) NO 56 0 min 0,000 mm 0,0 UV-I 0 W/m 2,1 C 0,6 C 14,5 km/h (3 Bft) 97,44 %
15.11.2018 19:48 4,4 C 8,3 C 2,8 C 85 % 1027,8 hPa 0,0 l/m 13,2 km/h (3 Bft) NO 53 0 min 0,000 mm 0,0 UV-I 0 W/m 2,1 C -0,7 C 19,3 km/h (3 Bft) 91,49 %
15.11.2018 19:50 4,3 C 8,3 C 2,8 C 86 % 1027,8 hPa 0,0 l/m 11,6 km/h (2 Bft) NO 49 0 min 0,000 mm 0,0 UV-I 0 W/m 2,2 C 0,2 C 17,7 km/h (3 Bft) 96,00 %
15.11.2018 19:52 4,3 C 8,3 C 2,2 C 85 % 1027,8 hPa 0,0 l/m 12,8 km/h (3 Bft) NO 53 0 min 0,000 mm 0,0 UV-I 0 W/m 2,0 C -0,5 C 16,1 km/h (3 Bft) 95,74 %
15.11.2018 19:54 4,2 C 8,3 C 2,2 C 86 % 1027,8 hPa 0,0 l/m 10,8 km/h (2 Bft) NO 54 0 min 0,000 mm 0,0 UV-I 0 W/m 2,1 C 0,6 C 16,1 km/h (3 Bft) 93,62 %
15.11.2018 19:56 4,3 C 8,3 C 2,2 C 86 % 1027,8 hPa 0,0 l/m 8,1 km/h (2 Bft) NO 48 0 min 0,000 mm 0,0 UV-I 0 W/m 2,2 C 2,8 C 11,3 km/h (2 Bft) 95,74 %
15.11.2018 19:58 4,2 C 8,3 C 2,2 C 86 % 1027,8 hPa 0,0 l/m 6,2 km/h (2 Bft) O-NO 74 0 min 0,000 mm 0,0 UV-I 0 W/m 2,1 C 4,2 C 12,9 km/h (3 Bft) 96,00 %
15.11.2018 20:00 4,2 C 8,3 C 2,2 C 86 % 1027,9 hPa 0,0 l/m 6,1 km/h (2 Bft) O-NO 57 0 min 0,026 mm 0,0 UV-I 0 W/m 2,1 C 4,2 C 8,0 km/h (2 Bft) 93,62 %
15.11.2018 20:02 4,1 C 8,3 C 2,2 C 86 % 1027,8 hPa 0,0 l/m 6,7 km/h (2 Bft) NO 46 0 min 0,000 mm 0,0 UV-I 0 W/m 2,0 C 3,8 C 9,7 km/h (2 Bft) 100,00 %
15.11.2018 20:04 4,1 C 8,3 C 1,7 C 86 % 1027,8 hPa 0,0 l/m 8,4 km/h (2 Bft) O-NO 65 0 min 0,000 mm 0,0 UV-I 0 W/m 2,0 C 2,3 C 14,5 km/h (3 Bft) 100,00 %
15.11.2018 20:06 3,9 C 8,3 C 1,7 C 86 % 1027,7 hPa 0,0 l/m 11,3 km/h (2 Bft) NO 49 0 min 0,000 mm 0,0 UV-I 0 W/m 1,8 C -0,1 C 16,1 km/h (3 Bft) 100,00 %
15.11.2018 20:08 3,8 C 8,3 C 1,7 C 87 % 1027,7 hPa 0,0 l/m 14,0 km/h (3 Bft) NO 51 0 min 0,000 mm 0,0 UV-I 0 W/m 1,8 C -1,8 C 19,3 km/h (3 Bft) 100,00 %
15.11.2018 20:10 3,8 C 8,3 C 2,2 C 87 % 1027,7 hPa 0,0 l/m 11,5 km/h (2 Bft) NO 39 0 min 0,000 mm 0,0 UV-I 0 W/m 1,8 C -0,3 C 17,7 km/h (3 Bft) 100,00 %
15.11.2018 20:12 4,0 C 8,3 C 2,2 C 88 % 1027,6 hPa 0,0 l/m 8,2 km/h (2 Bft) O-NO 61 0 min 0,000 mm 0,0 UV-I 0 W/m 2,2 C 2,4 C 11,3 km/h (2 Bft) 100,00 %
15.11.2018 20:14 4,1 C 8,3 C 2,2 C 87 % 1027,7 hPa 0,0 l/m 9,4 km/h (2 Bft) O 84 0 min 0,000 mm 0,0 UV-I 0 W/m 2,1 C 1,5 C 16,1 km/h (3 Bft) 100,00 %
15.11.2018 20:16 4,2 C 8,3 C 2,8 C 87 % 1027,7 hPa 0,0 l/m 6,1 km/h (2 Bft) O-NO 66 0 min 0,000 mm 0,0 UV-I 0 W/m 2,2 C 4,2 C 11,3 km/h (2 Bft) 100,00 %
15.11.2018 20:18 4,2 C 8,3 C 2,2 C 86 % 1027,7 hPa 0,0 l/m 7,3 km/h (2 Bft) O-NO 69 0 min 0,000 mm 0,0 UV-I 0 W/m 2,1 C 3,4 C 12,9 km/h (3 Bft) 97,87 %
15.11.2018 20:20 4,0 C 8,3 C 2,2 C 86 % 1027,7 hPa 0,0 l/m 7,3 km/h (2 Bft) O 89 0 min 0,000 mm 0,0 UV-I 0 W/m 1,9 C 3,2 C 12,9 km/h (3 Bft) 100,00 %
15.11.2018 20:22 3,8 C 8,3 C 2,2 C 86 % 1027,7 hPa 0,0 l/m 8,8 km/h (2 Bft) O-SO 112 0 min 0,000 mm 0,0 UV-I 0 W/m 1,7 C 1,7 C 12,9 km/h (3 Bft) 100,00 %
15.11.2018 20:24 3,7 C 8,3 C 1,7 C 87 % 1027,7 hPa 0,0 l/m 7,7 km/h (2 Bft) O 96 0 min 0,000 mm 0,0 UV-I 0 W/m 1,7 C 2,5 C 11,3 km/h (2 Bft) 93,62 %
15.11.2018 20:26 3,7 C 8,3 C 1,1 C 87 % 1027,8 hPa 0,0 l/m 7,2 km/h (2 Bft) O 100 0 min 0,000 mm 0,0 UV-I 0 W/m 1,7 C 3,0 C 11,3 km/h (2 Bft) 97,87 %
15.11.2018 20:28 3,6 C 8,3 C 1,1 C 88 % 1027,8 hPa 0,0 l/m 4,2 km/h (1 Bft) O-SO 102 0 min 0,000 mm 0,0 UV-I 0 W/m 1,8 C 3,6 C 6,4 km/h (2 Bft) 100,00 %
15.11.2018 20:30 3,6 C 8,3 C 1,1 C 88 % 1027,7 hPa 0,0 l/m 5,0 km/h (1 Bft) O 86 0 min 0,000 mm 0,0 UV-I 0 W/m 1,8 C 3,6 C 6,4 km/h (2 Bft) 98,00 %
15.11.2018 20:32 3,7 C 8,3 C 1,1 C 88 % 1027,7 hPa 0,0 l/m 3,7 km/h (1 Bft) O-NO 72 0 min 0,000 mm 0,0 UV-I 0 W/m 1,9 C 3,7 C 6,4 km/h (2 Bft) 100,00 %
15.11.2018 20:34 3,7 C 8,3 C 1,1 C 88 % 1027,7 hPa 0,0 l/m 4,0 km/h (1 Bft) O-NO 73 0 min 0,000 mm 0,0 UV-I 0 W/m 1,9 C 3,7 C 6,4 km/h (2 Bft) 100,00 %
15.11.2018 20:36 3,6 C 8,3 C 1,1 C 87 % 1027,7 hPa 0,0 l/m 4,2 km/h (1 Bft) O-NO 75 0 min 0,000 mm 0,0 UV-I 0 W/m 1,6 C 3,6 C 6,4 km/h (2 Bft) 100,00 %
15.11.2018 20:38 3,5 C 8,3 C 1,1 C 87 % 1027,8 hPa 0,0 l/m 4,7 km/h (1 Bft) O 89 0 min 0,000 mm 0,0 UV-I 0 W/m 1,5 C 3,5 C 6,4 km/h (2 Bft) 100,00 %
15.11.2018 20:40 3,4 C 8,3 C 1,1 C 88 % 1027,7 hPa 0,0 l/m 4,9 km/h (1 Bft) NO 55 0 min 0,000 mm 0,0 UV-I 0 W/m 1,6 C 3,4 C 8,0 km/h (2 Bft) 100,00 %
15.11.2018 20:42 3,3 C 8,3 C 1,1 C 88 % 1027,7 hPa 0,0 l/m 4,1 km/h (1 Bft) NO 34 0 min 0,000 mm 0,0 UV-I 0 W/m 1,5 C 3,3 C 6,4 km/h (2 Bft) 100,00 %
15.11.2018 20:44 3,4 C 8,3 C 1,1 C 88 % 1027,6 hPa 0,0 l/m 2,7 km/h (1 Bft) NO 47 0 min 0,000 mm 0,0 UV-I 0 W/m 1,6 C 3,4 C 4,8 km/h (1 Bft) 100,00 %
15.11.2018 20:46 3,4 C 8,3 C 1,1 C 88 % 1027,7 hPa 0,0 l/m 9,8 km/h (2 Bft) O-NO 69 0 min 0,000 mm 0,0 UV-I 0 W/m 1,6 C 0,5 C 16,1 km/h (3 Bft) 100,00 %
15.11.2018 20:48 3,5 C 8,3 C 1,7 C 89 % 1027,7 hPa 0,0 l/m 12,1 km/h (2 Bft) O-NO 78 0 min 0,000 mm 0,0 UV-I 0 W/m 1,9 C -1,0 C 17,7 km/h (3 Bft) 100,00 %
15.11.2018 20:50 3,6 C 8,3 C 1,7 C 89 % 1027,7 hPa 0,0 l/m 13,5 km/h (3 Bft) NO 44 0 min 0,000 mm 0,0 UV-I 0 W/m 2,0 C -1,8 C 17,7 km/h (3 Bft) 97,87 %
15.11.2018 20:52 3,7 C 8,3 C 2,2 C 88 % 1027,7 hPa 0,0 l/m 14,0 km/h (3 Bft) O 84 0 min 0,000 mm 0,0 UV-I 0 W/m 1,9 C -1,9 C 19,3 km/h (3 Bft) 100,00 %
15.11.2018 20:54 3,7 C 8,3 C 2,2 C 88 % 1027,7 hPa 0,0 l/m 15,7 km/h (3 Bft) O-NO 73 0 min 0,000 mm 0,0 UV-I 0 W/m 1,9 C -2,9 C 19,3 km/h (3 Bft) 97,87 %
15.11.2018 20:56 3,7 C 8,3 C 2,2 C 88 % 1027,7 hPa 0,0 l/m 16,3 km/h (3 Bft) O 82 0 min 0,000 mm 0,0 UV-I 0 W/m 1,9 C -3,2 C 20,9 km/h (4 Bft) 95,74 %
15.11.2018 20:58 3,8 C 8,3 C 2,2 C 88 % 1027,8 hPa 0,0 l/m 15,1 km/h (3 Bft) O 94 0 min 0,000 mm 0,0 UV-I 0 W/m 2,0 C -2,4 C 19,3 km/h (3 Bft) 95,74 %
15.11.2018 21:00 3,7 C 8,3 C 2,2 C 87 % 1027,8 hPa 0,0 l/m 16,1 km/h (3 Bft) O-NO 71 0 min 0,000 mm 0,0 UV-I 0 W/m 1,7 C -3,1 C 19,3 km/h (3 Bft) 95,74 %
15.11.2018 21:02 3,7 C 8,3 C 2,2 C 87 % 1027,8 hPa 0,0 l/m 15,5 km/h (3 Bft) O-NO 60 0 min 0,000 mm 0,0 UV-I 0 W/m 1,7 C -2,8 C 19,3 km/h (3 Bft) 94,87 %
15.11.2018 21:04 3,7 C 8,3 C 2,2 C 88 % 1027,9 hPa 0,0 l/m 15,3 km/h (3 Bft) O-NO 67 0 min 0,000 mm 0,0 UV-I 0 W/m 1,9 C -2,7 C 20,9 km/h (4 Bft) 93,62 %
15.11.2018 21:06 3,7 C 8,3 C 2,2 C 88 % 1028,0 hPa 0,0 l/m 14,1 km/h (3 Bft) O-NO 74 0 min 0,000 mm 0,0 UV-I 0 W/m 1,9 C -2,0 C 17,7 km/h (3 Bft) 94,00 %
15.11.2018 21:08 3,6 C 8,3 C 2,2 C 88 % 1028,0 hPa 0,0 l/m 14,1 km/h (3 Bft) O-NO 74 0 min 0,000 mm 0,0 UV-I 0 W/m 1,8 C -2,1 C 17,7 km/h (3 Bft) 94,00 %
15.11.2018 21:10 3,6 C 8,3 C 2,2 C 88 % 1027,9 hPa 0,0 l/m 14,2 km/h (3 Bft) O 82 0 min 0,000 mm 0,0 UV-I 0 W/m 1,8 C -2,2 C 19,3 km/h (3 Bft) 93,62 %
15.11.2018 21:12 3,6 C 8,3 C 1,7 C 88 % 1028,0 hPa 0,0 l/m 14,0 km/h (3 Bft) O 84 0 min 0,000 mm 0,0 UV-I 0 W/m 1,8 C -2,1 C 17,7 km/h (3 Bft) 92,11 %
15.11.2018 21:14 3,6 C 8,3 C 2,2 C 88 % 1028,0 hPa 0,0 l/m 10,8 km/h (2 Bft) O 83 0 min 0,000 mm 0,0 UV-I 0 W/m 1,8 C -0,1 C 16,1 km/h (3 Bft) 96,43 %
15.11.2018 21:16 3,6 C 8,3 C 1,7 C 88 % 1028,0 hPa 0,0 l/m 8,9 km/h (2 Bft) O 81 0 min 0,000 mm 0,0 UV-I 0 W/m 1,8 C 1,4 C 12,9 km/h (3 Bft) 98,00 %
15.11.2018 21:18 3,5 C 8,3 C 1,7 C 88 % 1028,0 hPa 0,0 l/m 9,0 km/h (2 Bft) O-NO 57 0 min 0,000 mm 0,0 UV-I 0 W/m 1,7 C 1,2 C 14,5 km/h (3 Bft) 97,14 %
15.11.2018 21:20 3,4 C 8,3 C 1,7 C 88 % 1028,0 hPa 0,0 l/m 8,0 km/h (2 Bft) O-NO 62 0 min 0,000 mm 0,0 UV-I 0 W/m 1,6 C 1,9 C 12,9 km/h (3 Bft) 97,87 %
15.11.2018 21:22 3,4 C 8,3 C 1,7 C 88 % 1028,0 hPa 0,0 l/m 9,1 km/h (2 Bft) O-NO 61 0 min 0,000 mm 0,0 UV-I 0 W/m 1,6 C 1,0 C 14,5 km/h (3 Bft) 97,87 %
15.11.2018 21:24 3,4 C 8,3 C 1,7 C 88 % 1028,0 hPa 0,0 l/m 7,9 km/h (2 Bft) O-NO 71 0 min 0,000 mm 0,0 UV-I 0 W/m 1,6 C 2,0 C 12,9 km/h (3 Bft) 97,87 %
15.11.2018 21:26 3,4 C 8,3 C 1,7 C 88 % 1028,0 hPa 0,0 l/m 9,0 km/h (2 Bft) O-NO 71 0 min 0,000 mm 0,0 UV-I 0 W/m 1,6 C 1,1 C 16,1 km/h (3 Bft) 91,49 %
15.11.2018 21:28 3,4 C 8,3 C 1,7 C 88 % 1027,9 hPa 0,0 l/m 9,5 km/h (2 Bft) O-NO 60 0 min 0,000 mm 0,0 UV-I 0 W/m 1,6 C 0,7 C 14,5 km/h (3 Bft) 97,87 %
15.11.2018 21:30 3,4 C 8,3 C 1,7 C 89 % 1027,9 hPa 0,0 l/m 11,6 km/h (2 Bft) O 81 0 min 0,000 mm 0,0 UV-I 0 W/m 1,8 C -0,8 C 17,7 km/h (3 Bft) 95,74 %
15.11.2018 21:32 3,4 C 8,3 C 1,7 C 88 % 1028,0 hPa 0,0 l/m 13,6 km/h (3 Bft) O 80 0 min 0,000 mm 0,0 UV-I 0 W/m 1,6 C -2,1 C 17,7 km/h (3 Bft) 100,00 %
15.11.2018 21:34 3,3 C 8,3 C 1,7 C 88 % 1027,9 hPa 0,0 l/m 13,7 km/h (3 Bft) O-NO 61 0 min 0,000 mm 0,0 UV-I 0 W/m 1,5 C -2,3 C 19,3 km/h (3 Bft) 90,00 %
15.11.2018 21:36 3,3 C 8,3 C 1,7 C 89 % 1027,9 hPa 0,0 l/m 12,3 km/h (3 Bft) O-NO 68 0 min 0,000 mm 0,0 UV-I 0 W/m 1,7 C -1,4 C 14,5 km/h (3 Bft) 100,00 %
15.11.2018 21:38 3,3 C 8,3 C 1,7 C 89 % 1027,9 hPa 0,0 l/m 12,8 km/h (3 Bft) O-NO 66 0 min 0,000 mm 0,0 UV-I 0 W/m 1,7 C -1,7 C 16,1 km/h (3 Bft) 97,87 %
15.11.2018 21:40 3,3 C 8,3 C 1,7 C 89 % 1027,9 hPa 0,0 l/m 13,8 km/h (3 Bft) O-NO 69 0 min 0,000 mm 0,0 UV-I 0 W/m 1,7 C -2,3 C 17,7 km/h (3 Bft) 97,87 %
15.11.2018 21:42 3,3 C 8,3 C 1,7 C 89 % 1027,9 hPa 0,0 l/m 12,5 km/h (3 Bft) O-NO 71 0 min 0,000 mm 0,0 UV-I 0 W/m 1,7 C -1,5 C 16,1 km/h (3 Bft) 100,00 %
15.11.2018 21:44 3,3 C 8,3 C 1,7 C 89 % 1028,0 hPa 0,0 l/m 14,3 km/h (3 Bft) O-NO 77 0 min 0,000 mm 0,0 UV-I 0 W/m 1,7 C -2,6 C 19,3 km/h (3 Bft) 100,00 %
15.11.2018 21:46 3,3 C 8,3 C 1,7 C 89 % 1027,9 hPa 0,0 l/m 14,6 km/h (3 Bft) O-NO 73 0 min 0,000 mm 0,0 UV-I 0 W/m 1,7 C -2,8 C 20,9 km/h (4 Bft) 100,00 %
15.11.2018 21:48 3,3 C 8,3 C 1,7 C 89 % 1027,9 hPa 0,0 l/m 14,5 km/h (3 Bft) O-NO 72 0 min 0,000 mm 0,0 UV-I 0 W/m 1,7 C -2,7 C 19,3 km/h (3 Bft) 92,00 %
15.11.2018 21:50 3,3 C 8,3 C 1,7 C 89 % 1027,9 hPa 0,0 l/m 12,2 km/h (2 Bft) O-NO 77 0 min 0,000 mm 0,0 UV-I 0 W/m 1,7 C -1,3 C 16,1 km/h (3 Bft) 100,00 %
15.11.2018 21:52 3,3 C 8,3 C 1,7 C 89 % 1028,0 hPa 0,0 l/m 13,5 km/h (3 Bft) O-NO 69 0 min 0,000 mm 0,0 UV-I 0 W/m 1,7 C -2,1 C 17,7 km/h (3 Bft) 97,87 %
15.11.2018 21:54 3,3 C 8,3 C 1,7 C 89 % 1027,9 hPa 0,0 l/m 14,4 km/h (3 Bft) O-NO 75 0 min 0,000 mm 0,0 UV-I 0 W/m 1,7 C -2,7 C 17,7 km/h (3 Bft) 96,00 %
15.11.2018 21:56 3,3 C 8,3 C 1,7 C 89 % 1027,9 hPa 0,0 l/m 13,5 km/h (3 Bft) O-NO 57 0 min 0,000 mm 0,0 UV-I 0 W/m 1,7 C -2,1 C 16,1 km/h (3 Bft) 95,74 %
15.11.2018 21:58 3,3 C 8,3 C 1,7 C 89 % 1027,9 hPa 0,0 l/m 13,5 km/h (3 Bft) O-NO 69 0 min 0,000 mm 0,0 UV-I 0 W/m 1,7 C -2,1 C 17,7 km/h (3 Bft) 97,87 %
15.11.2018 22:00 3,3 C 8,3 C 1,7 C 89 % 1027,9 hPa 0,0 l/m 13,7 km/h (3 Bft) O-NO 77 0 min 0,000 mm 0,0 UV-I 0 W/m 1,7 C -2,3 C 17,7 km/h (3 Bft) 98,00 %
15.11.2018 22:02 3,3 C 8,3 C 1,7 C 89 % 1027,9 hPa 0,0 l/m 12,4 km/h (3 Bft) O-NO 78 0 min 0,025 mm 0,0 UV-I 0 W/m 1,7 C -1,5 C 14,5 km/h (3 Bft) 95,74 %
15.11.2018 22:04 3,3 C 8,3 C 1,7 C 89 % 1027,9 hPa 0,0 l/m 9,8 km/h (2 Bft) O-NO 76 0 min 0,000 mm 0,0 UV-I 0 W/m 1,7 C 0,3 C 14,5 km/h (3 Bft) 97,87 %
15.11.2018 22:06 3,3 C 8,3 C 1,7 C 89 % 1027,9 hPa 0,0 l/m 8,8 km/h (2 Bft) O 79 0 min 0,000 mm 0,0 UV-I 0 W/m 1,7 C 1,1 C 12,9 km/h (3 Bft) 93,62 %
15.11.2018 22:08 3,3 C 8,3 C 1,7 C 89 % 1027,9 hPa 0,0 l/m 10,6 km/h (2 Bft) O-NO 57 0 min 0,000 mm 0,0 UV-I 0 W/m 1,7 C -0,2 C 14,5 km/h (3 Bft) 91,43 %
15.11.2018 22:10 3,3 C 8,3 C 1,7 C 89 % 1027,9 hPa 0,0 l/m 8,1 km/h (2 Bft) O-NO 71 0 min 0,000 mm 0,0 UV-I 0 W/m 1,7 C 1,7 C 11,3 km/h (2 Bft) 96,00 %
15.11.2018 22:12 3,2 C 8,3 C 1,1 C 89 % 1028,0 hPa 0,0 l/m 7,5 km/h (2 Bft) NO 52 0 min 0,000 mm 0,0 UV-I 0 W/m 1,6 C 2,2 C 12,9 km/h (3 Bft) 95,74 %
15.11.2018 22:14 3,2 C 8,3 C 1,1 C 89 % 1028,0 hPa 0,0 l/m 9,1 km/h (2 Bft) O 88 0 min 0,000 mm 0,0 UV-I 0 W/m 1,6 C 0,8 C 12,9 km/h (3 Bft) 91,49 %
15.11.2018 22:16 3,1 C 8,3 C 1,1 C 89 % 1028,1 hPa 0,0 l/m 8,6 km/h (2 Bft) O-NO 65 0 min 0,000 mm 0,0 UV-I 0 W/m 1,5 C 1,1 C 12,9 km/h (3 Bft) 94,00 %
15.11.2018 22:18 3,0 C 8,3 C 1,1 C 89 % 1028,1 hPa 0,0 l/m 7,6 km/h (2 Bft) O-NO 74 0 min 0,000 mm 0,0 UV-I 0 W/m 1,4 C 1,9 C 12,9 km/h (3 Bft) 93,62 %
15.11.2018 22:20 2,9 C 8,3 C 1,1 C 89 % 1028,1 hPa 0,0 l/m 6,2 km/h (2 Bft) O-NO 66 0 min 0,000 mm 0,0 UV-I 0 W/m 1,3 C 2,9 C 11,3 km/h (2 Bft) 91,49 %
15.11.2018 22:22 2,8 C 8,3 C 1,1 C 89 % 1028,1 hPa 0,0 l/m 6,9 km/h (2 Bft) NO 55 0 min 0,000 mm 0,0 UV-I 0 W/m 1,2 C 2,3 C 12,9 km/h (3 Bft) 95,83 %
15.11.2018 22:24 2,7 C 8,3 C 1,1 C 90 % 1028,1 hPa 0,0 l/m 7,8 km/h (2 Bft) O-NO 67 0 min 0,000 mm 0,0 UV-I 0 W/m 1,2 C 1,4 C 11,3 km/h (2 Bft) 97,87 %
15.11.2018 22:26 2,7 C 8,3 C 1,1 C 90 % 1028,1 hPa 0,0 l/m 5,5 km/h (1 Bft) O-NO 57 0 min 0,000 mm 0,0 UV-I 0 W/m 1,2 C 2,7 C 8,0 km/h (2 Bft) 96,00 %
15.11.2018 22:28 2,7 C 8,3 C 0,6 C 90 % 1028,1 hPa 0,0 l/m 5,6 km/h (1 Bft) O-NO 78 0 min 0,000 mm 0,0 UV-I 0 W/m 1,2 C 2,7 C 8,0 km/h (2 Bft) 93,62 %
15.11.2018 22:30 2,6 C 8,3 C 0,6 C 90 % 1028,1 hPa 0,0 l/m 5,0 km/h (1 Bft) O-NO 77 0 min 0,000 mm 0,0 UV-I 0 W/m 1,1 C 2,6 C 8,0 km/h (2 Bft) 95,74 %
15.11.2018 22:32 2,6 C 8,3 C 0,6 C 90 % 1028,1 hPa 0,0 l/m 4,5 km/h (1 Bft) O-NO 71 0 min 0,000 mm 0,0 UV-I 0 W/m 1,1 C 2,6 C 6,4 km/h (2 Bft) 97,37 %
15.11.2018 22:34 2,4 C 8,3 C 0,6 C 90 % 1028,0 hPa 0,0 l/m 3,6 km/h (1 Bft) O-NO 59 0 min 0,000 mm 0,0 UV-I 0 W/m 0,9 C 2,4 C 6,4 km/h (2 Bft) 95,74 %
15.11.2018 22:36 2,3 C 8,3 C 0,0 C 90 % 1028,1 hPa 0,0 l/m 5,5 km/h (1 Bft) O-NO 71 0 min 0,000 mm 0,0 UV-I 0 W/m 0,8 C 2,3 C 9,7 km/h (2 Bft) 97,87 %
15.11.2018 22:39 2,2 C 8,3 C 0,0 C 90 % 1028,1 hPa 0,0 l/m 5,5 km/h (1 Bft) NO 53 0 min 0,000 mm 0,0 UV-I 0 W/m 0,7 C 2,2 C 8,0 km/h (2 Bft) 97,26 %
15.11.2018 22:40 2,2 C 8,3 C 0,0 C 91 % 1028,1 hPa 0,0 l/m 6,2 km/h (2 Bft) O-NO 60 0 min 0,000 mm 0,0 UV-I 0 W/m 0,9 C 2,2 C 8,0 km/h (2 Bft) 95,83 %
15.11.2018 22:42 2,2 C 8,3 C 0,6 C 91 % 1028,2 hPa 0,0 l/m 6,9 km/h (2 Bft) NO 43 0 min 0,000 mm 0,0 UV-I 0 W/m 0,9 C 1,7 C 9,7 km/h (2 Bft) 93,62 %
15.11.2018 22:44 2,3 C 8,3 C 0,6 C 91 % 1028,2 hPa 0,0 l/m 5,8 km/h (2 Bft) NO 55 0 min 0,000 mm 0,0 UV-I 0 W/m 1,0 C 2,3 C 8,0 km/h (2 Bft) 97,87 %
15.11.2018 22:46 2,3 C 8,3 C 0,0 C 91 % 1028,3 hPa 0,0 l/m 4,5 km/h (1 Bft) NO 55 0 min 0,000 mm 0,0 UV-I 0 W/m 1,0 C 2,3 C 8,0 km/h (2 Bft) 98,00 %
15.11.2018 22:48 2,3 C 8,3 C 0,0 C 91 % 1028,3 hPa 0,0 l/m 5,0 km/h (1 Bft) O-NO 68 0 min 0,000 mm 0,0 UV-I 0 W/m 1,0 C 2,3 C 8,0 km/h (2 Bft) 94,74 %
15.11.2018 22:50 2,3 C 8,3 C 0,0 C 91 % 1028,3 hPa 0,0 l/m 5,3 km/h (1 Bft) NO 42 0 min 0,000 mm 0,0 UV-I 0 W/m 1,0 C 2,3 C 8,0 km/h (2 Bft) 98,00 %
15.11.2018 22:52 2,3 C 8,3 C 0,0 C 91 % 1028,3 hPa 0,0 l/m 5,5 km/h (1 Bft) O-NO 77 0 min 0,000 mm 0,0 UV-I 0 W/m 1,0 C 2,3 C 11,3 km/h (2 Bft) 97,87 %
15.11.2018 22:54 2,3 C 8,3 C 0,0 C 91 % 1028,3 hPa 0,0 l/m 4,6 km/h (1 Bft) O-NO 76 0 min 0,000 mm 0,0 UV-I 0 W/m 1,0 C 2,3 C 6,4 km/h (2 Bft) 100,00 %
15.11.2018 22:56 2,3 C 8,3 C 0,0 C 91 % 1028,3 hPa 0,0 l/m 4,3 km/h (1 Bft) NO 47 0 min 0,000 mm 0,0 UV-I 0 W/m 1,0 C 2,3 C 6,4 km/h (2 Bft) 100,00 %
15.11.2018 22:59 2,2 C 8,3 C 0,0 C 91 % 1028,4 hPa 0,0 l/m 4,8 km/h (1 Bft) NO 49 0 min 0,000 mm 0,0 UV-I 0 W/m 0,9 C 2,2 C 8,0 km/h (2 Bft) 98,59 %
15.11.2018 23:00 2,2 C 8,3 C 0,0 C 91 % 1028,4 hPa 0,0 l/m 3,9 km/h (1 Bft) O-NO 57 0 min 0,000 mm 0,0 UV-I 0 W/m 0,9 C 2,2 C 6,4 km/h (2 Bft) 100,00 %
15.11.2018 23:02 2,2 C 8,3 C 0,0 C 91 % 1028,4 hPa 0,0 l/m 4,8 km/h (1 Bft) O-NO 73 0 min 0,000 mm 0,0 UV-I 0 W/m 0,9 C 2,2 C 6,4 km/h (2 Bft) 95,12 %
15.11.2018 23:04 2,2 C 8,3 C 0,0 C 91 % 1028,4 hPa 0,0 l/m 3,4 km/h (1 Bft) O-NO 73 0 min 0,000 mm 0,0 UV-I 0 W/m 0,9 C 2,2 C 4,8 km/h (1 Bft) 95,74 %
15.11.2018 23:06 2,2 C 8,3 C 0,0 C 91 % 1028,5 hPa 0,0 l/m 5,2 km/h (1 Bft) O 88 0 min 0,000 mm 0,0 UV-I 0 W/m 0,9 C 2,2 C 8,0 km/h (2 Bft) 98,00 %
15.11.2018 23:08 2,2 C 8,3 C 0,0 C 91 % 1028,5 hPa 0,0 l/m 4,8 km/h (1 Bft) NO 52 0 min 0,000 mm 0,0 UV-I 0 W/m 0,9 C 2,2 C 8,0 km/h (2 Bft) 95,74 %
15.11.2018 23:10 2,2 C 8,3 C 0,0 C 91 % 1028,5 hPa 0,0 l/m 5,8 km/h (2 Bft) O 80 0 min 0,000 mm 0,0 UV-I 0 W/m 0,9 C 2,2 C 8,0 km/h (2 Bft) 95,74 %
15.11.2018 23:12 2,2 C 8,3 C 0,0 C 92 % 1028,5 hPa 0,0 l/m 6,6 km/h (2 Bft) O 86 0 min 0,000 mm 0,0 UV-I 0 W/m 1,0 C 2,0 C 11,3 km/h (2 Bft) 95,74 %
15.11.2018 23:14 2,3 C 8,3 C 0,0 C 92 % 1028,5 hPa 0,0 l/m 6,0 km/h (2 Bft) O 88 0 min 0,000 mm 0,0 UV-I 0 W/m 1,1 C 2,3 C 9,7 km/h (2 Bft) 95,74 %
15.11.2018 23:16 2,4 C 8,3 C 0,0 C 92 % 1028,5 hPa 0,0 l/m 6,5 km/h (2 Bft) O-NO 76 0 min 0,000 mm 0,0 UV-I 0 W/m 1,2 C 2,3 C 9,7 km/h (2 Bft) 95,74 %
15.11.2018 23:18 2,4 C 8,3 C 0,0 C 92 % 1028,5 hPa 0,0 l/m 4,4 km/h (1 Bft) O-SO 104 0 min 0,000 mm 0,0 UV-I 0 W/m 1,2 C 2,4 C 9,7 km/h (2 Bft) 97,87 %
15.11.2018 23:20 2,4 C 8,3 C 0,0 C 92 % 1028,5 hPa 0,0 l/m 5,1 km/h (1 Bft) O-SO 103 0 min 0,000 mm 0,0 UV-I 0 W/m 1,2 C 2,4 C 9,7 km/h (2 Bft) 100,00 %
15.11.2018 23:22 2,4 C 8,3 C 0,0 C 92 % 1028,5 hPa 0,0 l/m 4,8 km/h (1 Bft) O-SO 107 0 min 0,000 mm 0,0 UV-I 0 W/m 1,2 C 2,4 C 9,7 km/h (2 Bft) 96,23 %
15.11.2018 23:24 2,5 C 8,3 C 0,0 C 92 % 1028,5 hPa 0,0 l/m 5,5 km/h (1 Bft) O 92 0 min 0,000 mm 0,0 UV-I 0 W/m 1,3 C 2,5 C 9,7 km/h (2 Bft) 91,49 %
15.11.2018 23:26 2,6 C 8,3 C 0,0 C 92 % 1028,6 hPa 0,0 l/m 5,8 km/h (2 Bft) O-SO 108 0 min 0,000 mm 0,0 UV-I 0 W/m 1,4 C 2,6 C 11,3 km/h (2 Bft) 93,62 %
15.11.2018 23:28 2,6 C 8,3 C 0,0 C 92 % 1028,6 hPa 0,0 l/m 6,6 km/h (2 Bft) O 94 0 min 0,000 mm 0,0 UV-I 0 W/m 1,4 C 2,4 C 11,3 km/h (2 Bft) 94,74 %
15.11.2018 23:30 2,6 C 8,3 C 0,0 C 92 % 1028,5 hPa 0,0 l/m 6,4 km/h (2 Bft) O-NO 65 0 min 0,000 mm 0,0 UV-I 0 W/m 1,4 C 2,6 C 9,7 km/h (2 Bft) 96,00 %
15.11.2018 23:32 2,6 C 8,3 C 0,0 C 91 % 1028,5 hPa 0,0 l/m 8,1 km/h (2 Bft) O-NO 70 0 min 0,000 mm 0,0 UV-I 0 W/m 1,3 C 1,0 C 11,3 km/h (2 Bft) 96,00 %
15.11.2018 23:34 2,6 C 8,3 C 0,0 C 91 % 1028,5 hPa 0,0 l/m 6,5 km/h (2 Bft) O 87 0 min 0,000 mm 0,0 UV-I 0 W/m 1,3 C 2,5 C 11,3 km/h (2 Bft) 94,87 %
15.11.2018 23:36 2,6 C 8,3 C 0,6 C 91 % 1028,5 hPa 0,0 l/m 6,9 km/h (2 Bft) O 84 0 min 0,000 mm 0,0 UV-I 0 W/m 1,3 C 2,1 C 11,3 km/h (2 Bft) 95,74 %
15.11.2018 23:38 2,5 C 8,3 C 0,6 C 91 % 1028,5 hPa 0,0 l/m 7,2 km/h (2 Bft) O 94 0 min 0,000 mm 0,0 UV-I 0 W/m 1,2 C 1,7 C 11,3 km/h (2 Bft) 96,00 %
15.11.2018 23:40 2,5 C 8,3 C 0,6 C 91 % 1028,5 hPa 0,0 l/m 6,9 km/h (2 Bft) O 94 0 min 0,000 mm 0,0 UV-I 0 W/m 1,2 C 2,0 C 9,7 km/h (2 Bft) 95,74 %
15.11.2018 23:42 2,6 C 8,3 C 0,0 C 91 % 1028,6 hPa 0,0 l/m 7,0 km/h (2 Bft) O 94 0 min 0,000 mm 0,0 UV-I 0 W/m 1,3 C 2,0 C 9,7 km/h (2 Bft) 91,49 %
15.11.2018 23:44 2,6 C 8,3 C 0,0 C 91 % 1028,6 hPa 0,0 l/m 7,0 km/h (2 Bft) O 86 0 min 0,000 mm 0,0 UV-I 0 W/m 1,3 C 2,0 C 9,7 km/h (2 Bft) 100,00 %
15.11.2018 23:46 2,7 C 8,3 C 0,0 C 92 % 1028,6 hPa 0,0 l/m 5,4 km/h (1 Bft) O-SO 103 0 min 0,000 mm 0,0 UV-I 0 W/m 1,5 C 2,7 C 9,7 km/h (2 Bft) 100,00 %
15.11.2018 23:49 2,7 C 8,3 C 0,0 C 91 % 1028,6 hPa 0,0 l/m 4,5 km/h (1 Bft) O-NO 67 0 min 0,000 mm 0,0 UV-I 0 W/m 1,4 C 2,7 C 8,0 km/h (2 Bft) 97,26 %
15.11.2018 23:50 2,6 C 8,3 C 0,0 C 91 % 1028,6 hPa 0,0 l/m 6,1 km/h (2 Bft) O 89 0 min 0,000 mm 0,0 UV-I 0 W/m 1,3 C 2,6 C 8,0 km/h (2 Bft) 95,83 %
15.11.2018 23:52 2,5 C 8,3 C 0,0 C 91 % 1028,6 hPa 0,0 l/m 5,1 km/h (1 Bft) O-NO 71 0 min 0,000 mm 0,0 UV-I 0 W/m 1,2 C 2,5 C 6,4 km/h (2 Bft) 100,00 %
15.11.2018 23:54 2,4 C 8,3 C 0,0 C 91 % 1028,5 hPa 0,0 l/m 4,4 km/h (1 Bft) O 86 0 min 0,000 mm 0,0 UV-I 0 W/m 1,1 C 2,4 C 8,0 km/h (2 Bft) 100,00 %
15.11.2018 23:56 2,2 C 8,3 C 0,0 C 91 % 1028,5 hPa 0,0 l/m 5,6 km/h (1 Bft) O-NO 74 0 min 0,000 mm 0,0 UV-I 0 W/m 0,9 C 2,2 C 8,0 km/h (2 Bft) 100,00 %
15.11.2018 23:59 2,1 C 8,3 C -0,6 C 91 % 1028,5 hPa 0,0 l/m 5,2 km/h (1 Bft) O-NO 66 0 min 0,000 mm 0,0 UV-I 0 W/m 0,8 C 2,1 C 6,4 km/h (2 Bft) 100,00 %
_ Min-Zeit 23:59 07:56 23:59 14:36 13:54 - 20:44 - - - - - - 22:39 20:56 02:16 14:54
Minimum _ 2,1 C 8,3 C -0,6 C 64 % 1026,4 hPa - 2,7 km/h (1 Bft) - - - - - - 0,7 C -3,2 C 4,8 km/h (1 Bft) 89,13 %
_ Max-Zeit 13:46 00:00 11:54 00:00 00:02 00:00 13:56 - - 09:08 14:00 11:32 11:48 12:32 12:10 13:56 00:24
Maximum _ 10,1 C 8,9 C 11,1 C 98 % 1029,0 hPa 0,0 l/m 27,8 km/h
O (4 Bft)
- - 2 min 0,203 mm 0,9 UV-I 448 W/m 5,8 C 6,7 C 38,6 km/h
O-NO (5 Bft)
100,00 %
Durchschnitt _ 5,2 C 8,6 C 4,9 C 88 % 1027,8 hPa #0,0 l/m 11,6 km/h (2 Bft) O-NO - #5:58 h #1,143 mm 0,7 UV-I 174 W/m 3,3 C 1,7 C 17,1 km/h (3 Bft) 97,05 %